GFSGBSN_prec_cloud_003.txt.gz
Cloud_Cover
0 0 3 98 100 99 100 100 100 100 100 100 100 100 100 100 64 98 100 100 100 100 100 100 100 100 7 60 1 0 68 100 99 100 100 100 100 84 1 2 3 8 100 100 100 100 100
0 0 1 34 100 99 100 100 100 100 100 100 100 100 47 29 8 99 100 100 100 100 100 100 100 100 100 5 50 85 100 64 84 60 96 100 96 27 86 67 0 99 100 100 100 100 100
0 0 5 29 93 100 100 100 100 100 100 100 100 100 97 100 37 100 100 100 100 100 100 100 100 91 57 98 96 100 72 65 67 77 98 99 99 100 58 6 0 0 65 100 100 100 100
0 0 5 32 100 100 100 100 100 100 100 100 100 100 90 26 100 100 100 100 100 100 100 100 100 85 100 49 100 96 100 100 100 100 73 4 1 0 0 0 0 0 41 65 68 2 91
0 0 19 24 100 100 100 100 100 100 100 78 91 89 30 74 100 100 100 100 100 100 100 100 15 93 100 24 96 25 3 0 2 2 0 0 0 0 0 0 0 0 3 4 2 0 0
0 0 5 77 100 100 100 100 83 100 84 100 93 100 96 100 100 100 100 100 82 92 61 3 0 14 0 0 0 0 0 0 0 0 0 0 0 0 31 3 4 4 100 67 1 0 0
0 0 71 100 100 100 100 100 100 21 100 100 100 100 100 100 100 100 100 47 30 5 0 2 0 0 0 0 0 0 0 0 0 0 0 0 1 0 0 0 5 95 83 68 5 0 2
0 1 100 100 100 100 100 50 29 2 36 100 100 100 100 100 100 97 65 1 1 0 0 3 0 0 4 0 0 0 0 0 0 0 0 4 3 9 30 63 60 66 92 82 6 70 19
0 10 100 100 100 100 99 45 2 97 100 100 100 100 100 100 42 50 8 5 5 2 0 3 3 1 24 19 6 12 49 58 38 29 32 63 42 23 28 31 30 10 7 12 15 7 2
0 70 100 100 100 100 35 58 4 100 100 100 100 99 6 37 8 4 2 1 35 14 4 4 20 34 52 75 70 68 39 52 65 21 9 9 0 0 0 0 0 0 0 0 0 0 0
0 100 100 100 100 100 5 4 70 100 100 100 100 5 5 6 5 2 4 6 58 88 8 28 63 81 37 22 5 5 2 0 1 0 0 0 0 0 0 0 0 0 0 0 0 0 0
1 100 100 100 100 44 14 4 64 100 100 100 99 50 5 5 2 16 80 65 19 59 25 46 79 45 5 2 0 0 0 0 0 0 0 0 0 0 0 0 0 0 0 0 0 0 0
81 100 100 100 100 38 48 5 100 100 100 70 5 1 8 5 12 60 18 100 63 58 42 46 48 1 0 0 0 0 0 0 0 0 1 0 0 0 0 0 0 0 0 0 0 33 75
96 100 100 100 93 98 83 82 90 93 61 88 72 43 33 35 6 74 28 6 24 6 6 5 0 0 0 0 0 2 0 0 0 0 5 3 36 0 0 0 0 0 0 0 0 2 0
99 100 100 100 100 99 70 98 32 50 15 96 93 92 32 5 5 5 39 45 8 5 5 2 0 0 0 0 0 2 0 0 0 0 4 3 2 0 0 0 0 0 0 0 0 0 0
100 100 100 100 100 100 98 90 22 68 100 71 100 96 7 6 7 62 41 8 5 5 1 0 0 4 4 0 0 0 0 1 0 0 0 0 0 0 0 0 0 0 0 0 2 3 1
100 100 100 100 100 100 100 95 16 100 100 78 100 98 44 9 55 9 12 14 9 0 0 0 5 31 83 4 30 12 0 0 0 0 0 0 0 0 0 0 0 0 0 0 0 0 2
100 100 100 100 100 100 86 100 10 60 100 99 36 100 84 11 9 74 60 13 5 5 5 4 0 0 9 5 7 5 5 0 0 0 0 0 0 0 3 1 0 0 0 0 0 3 1
100 100 100 100 100 100 100 100 100 100 85 54 100 100 100 12 23 21 31 10 5 4 0 0 5 0 0 5 32 5 5 5 5 0 0 0 0 0 0 0 0 1 1 0 0 0 0
98 100 100 100 100 100 100 100 100 100 60 69 100 100 100 7 58 64 43 25 5 5 5 0 5 0 0 5 5 5 5 5 5 0 0 0 0 0 0 0 0 0 0 0 3 5 4
100 100 100 100 100 100 100 100 100 100 96 100 100 100 98 90 66 45 55 12 5 5 5 0 0 0 2 4 5 5 5 5 5 1 0 0 0 0 0 0 0 0 0 0 0 0 5
100 100 100 100 100 100 80 100 100 100 100 100 100 95 5 8 6 34 73 5 5 48 5 5 4 5 5 5 3 0 0 2 0 0 0 0 40 0 0 0 0 0 0 0 0 0 0
100 100 100 100 100 98 95 100 100 100 100 100 100 100 99 41 35 21 18 5 5 5 5 5 5 5 5 5 5 4 0 0 0 0 0 27 35 21 24 4 3 0 0 0 0 1 10
100 100 100 100 100 100 100 100 100 100 100 100 100 89 84 54 34 89 63 5 15 5 6 65 15 5 5 45 5 5 5 5 1 3 5 52 41 78 6 25 3 1 3 0 0 2 2
100 100 100 100 100 100 100 100 100 100 100 100 100 100 75 96 9 7 5 5 22 5 97 6 8 60 91 7 6 5 5 5 5 5 5 5 25 58 82 7 5 5 5 2 0 0 1
100 100 100 100 100 100 100 95 100 100 100 96 95 100 100 18 34 6 5 93 75 6 5 5 7 5 10 39 34 6 5 5 6 35 100 100 49 24 28 22 5 5 4 4 5 1 0
100 100 100 100 100 100 100 100 100 100 100 100 79 100 100 82 6 15 5 66 49 11 56 64 42 22 8 94 80 96 42 40 100 100 66 46 6 14 89 5 4 0 5 5 2 1 5
100 100 100 100 100 100 100 100 100 100 100 100 100 100 100 100 100 21 7 18 5 34 40 65 41 74 90 63 100 100 53 13 27 28 58 5 37 54 45 43 5 3 5 5 5 5 5
100 100 100 100 100 100 100 100 100 100 100 100 100 100 100 100 100 100 100 94 5 10 9 5 5 60 14 84 90 100 80 90 99 26 67 26 20 7 45 5 3 0 5 5 2 4 45

GFSGBSN_prec_cloud_006.txt.gz
Cloud_Cover
0 0 0 0 0 0 72 100 100 100 100 100 100 100 100 100 100 97 100 100 100 100 100 100 100 100 8 1 30 5 0 48 100 95 83 96 100 100 100 100 98 65 75 100 100 100 100
0 0 0 0 0 0 100 100 100 100 100 100 100 100 100 100 99 92 100 100 100 100 100 100 100 98 100 65 69 5 0 94 91 91 6 91 100 100 94 58 39 6 76 99 100 100 100
0 0 0 0 0 6 98 100 100 100 100 100 100 100 100 100 66 35 100 100 100 100 100 100 100 100 100 13 5 2 95 100 99 100 100 100 98 90 100 100 100 5 4 8 100 100 100
0 0 0 0 0 0 100 98 100 100 100 100 100 98 82 100 100 100 100 100 100 100 100 100 100 100 98 97 96 100 100 76 100 99 99 100 100 100 100 37 6 5 5 0 4 1 2
0 0 0 0 0 13 100 100 100 100 100 100 71 62 65 100 24 100 100 100 100 100 100 100 99 58 100 95 45 100 100 41 100 100 100 100 100 100 93 6 4 5 5 5 0 0 0
0 0 0 0 0 66 100 100 100 100 100 20 5 89 92 93 100 100 100 100 100 63 76 20 100 95 48 79 96 100 95 96 100 100 72 49 36 5 1 4 4 3 5 2 5 0 0
0 0 0 2 0 90 100 100 100 100 77 0 21 100 77 92 100 100 100 98 28 5 0 4 40 86 64 41 0 3 0 0 0 0 0 0 0 0 0 0 5 84 13 0 5 6 8
0 0 0 4 0 0 44 96 100 86 9 52 100 99 99 100 100 94 79 36 4 0 0 0 0 0 0 0 0 0 0 0 0 0 4 0 0 0 0 0 32 100 69 0 0 1 1
0 0 0 5 0 2 81 100 100 33 6 0 99 75 100 100 100 44 56 10 5 4 0 0 0 0 0 0 0 0 0 0 0 0 1 0 2 2 2 19 5 57 35 6 9 18 9
1 0 4 4 0 12 100 100 98 0 3 31 57 100 100 100 99 38 2 0 4 4 0 0 0 0 2 2 3 4 3 2 4 5 5 5 5 5 5 19 5 44 53 59 1 2 0
0 3 67 0 0 78 100 100 49 5 77 100 100 100 100 96 4 2 3 5 5 5 0 3 5 5 6 6 6 7 22 5 5 3 1 0 0 0 0 0 0 0 0 0 0 0 0
0 4 30 0 4 86 100 100 30 20 89 100 100 100 98 33 5 5 4 0 5 77 12 18 5 44 31 5 5 4 4 2 0 0 0 0 0 0 0 0 0 0 0 0 0 0 0
4 5 1 1 5 100 100 67 21 74 100 100 100 95 45 65 7 5 5 12 25 89 5 20 56 37 40 3 0 0 0 0 0 0 0 0 0 0 0 0 0 0 0 0 0 4 0
9 3 0 5 5 100 100 52 54 82 100 100 98 77 52 11 27 30 78 17 5 70 77 80 16 5 2 0 0 0 0 0 0 0 0 0 2 0 0 0 0 0 0 0 0 2 5
7 3 1 5 41 100 100 95 26 100 100 100 96 85 98 58 86 51 12 21 70 88 54 11 4 0 0 0 0 0 0 0 0 4 1 3 0 0 2 4 3 0 0 0 0 0 0
6 3 6 80 100 100 100 100 71 100 98 62 63 40 85 86 62 84 84 52 5 6 5 5 0 0 0 0 0 0 0 0 2 1 2 3 0 0 0 0 0 0 0 0 0 0 0
100 4 73 74 100 100 53 100 100 100 51 14 64 62 97 80 91 73 8 33 7 5 5 0 0 4 5 1 0 0 0 0 0 4 0 0 0 0 0 0 0 0 0 0 0 0 2
89 84 100 76 100 100 81 100 100 100 12 32 89 100 100 44 27 38 58 32 5 5 5 0 0 3 5 5 0 0 0 0 5 3 0 0 2 0 0 0 0 0 0 0 0 3 0
10 100 100 100 100 100 100 100 100 94 32 52 99 100 82 63 55 33 22 33 14 5 5 1 1 4 4 5 2 5 3 2 0 0 4 4 3 0 0 0 1 4 5 2 0 0 0
43 100 100 100 100 100 100 100 100 97 5 5 100 90 73 23 9 8 5 9 22 5 2 4 5 4 0 4 5 5 54 6 5 5 5 5 3 0 0 0 0 0 3 4 5 5 4
100 100 100 100 100 100 100 100 100 6 5 9 100 98 96 92 64 5 5 5 5 5 5 5 2 0 4 5 5 5 5 5 5 1 0 0 0 0 0 3 5 5 0 0 0 2 4
100 100 100 100 100 100 100 100 100 34 14 19 88 84 100 15 5 5 5 5 5 5 5 5 5 11 5 5 0 4 5 5 4 0 0 0 38 0 0 1 1 0 0 0 0 0 0
100 100 100 100 100 100 100 100 100 100 100 89 64 71 100 84 5 32 54 5 5 10 35 7 5 5 5 0 5 5 5 5 5 4 4 23 24 2 5 14 3 5 4 0 0 0 0
100 100 100 100 100 100 100 100 100 100 100 100 100 57 100 98 75 82 27 5 5 83 69 13 5 5 5 5 5 5 53 29 53 12 5 59 40 43 5 9 5 5 5 0 0 0 0
100 100 100 100 100 100 100 100 100 100 100 100 85 81 100 99 10 7 5 95 8 5 56 5 19 31 5 6 5 47 62 89 47 51 20 39 16 79 69 42 5 5 5 5 5 3 0
100 100 100 100 100 100 100 100 100 100 100 100 100 100 100 99 74 6 8 100 99 38 67 27 61 80 10 10 67 23 74 41 20 7 32 11 65 100 89 5 5 5 5 26 14 52 5
100 100 100 100 100 100 100 100 100 100 100 100 100 100 100 100 31 5 18 55 96 78 5 26 6 8 6 27 72 75 41 5 38 91 94 47 13 65 60 6 38 8 6 63 47 5 3
100 100 100 100 100 100 100 100 100 100 100 100 100 100 100 100 55 13 8 65 72 49 5 5 5 55 92 84 58 89 82 49 97 100 96 7 46 72 100 100 100 94 18 42 7 5 5
100 100 100 100 100 100 100 100 100 100 100 100 100 100 100 100 100 99 100 97 86 72 61 15 32 89 38 83 68 84 90 92 82 40 97 100 100 100 100 100 100 100 97 38 5 5 99

GFSGBSN_prec_cloud_009.txt.gz
Cloud_Cover
100 99 0 0 0 0 0 26 91 100 100 100 100 100 100 100 100 100 100 100 100 100 100 100 100 100 10 7 7 23 66 100 99 99 97 83 74 98 93 97 100 100 99 100 100 100 92
9 68 4 0 0 0 3 20 100 100 100 100 100 100 100 100 100 100 100 100 100 100 100 100 100 98 16 19 100 100 77 94 96 100 92 99 99 100 96 77 100 100 100 82 94 2 25
5 5 5 0 0 0 0 14 100 100 100 100 100 100 100 100 100 100 100 100 100 100 100 100 100 95 100 100 100 100 8 10 100 100 68 96 100 100 100 100 100 100 57 76 83 26 5
0 0 0 0 0 0 0 7 100 100 100 100 100 100 100 100 100 100 100 100 100 100 100 100 100 100 100 100 100 31 5 100 100 100 100 100 100 100 100 100 82 21 14 9 88 100 100
0 0 0 0 0 0 0 5 100 100 100 100 100 100 58 84 100 100 100 100 100 100 100 100 89 100 100 100 100 100 100 100 100 96 100 100 100 87 84 90 87 100 55 7 31 5 20
0 0 0 0 0 0 0 33 100 100 100 100 100 32 5 100 91 97 100 100 100 98 99 97 95 94 76 88 47 59 100 100 98 92 100 100 100 97 100 100 100 37 5 5 5 3 5
0 0 0 0 0 0 3 100 100 100 95 100 99 4 5 20 53 55 72 91 19 95 7 100 89 83 98 49 14 22 100 97 40 99 74 100 100 100 100 82 4 5 5 4 5 23 5
0 0 0 3 0 0 0 37 96 10 58 100 15 13 30 5 62 100 100 67 14 20 84 100 100 100 100 100 78 100 100 12 5 5 97 4 17 2 1 13 5 5 0 0 0 4 1
0 0 0 4 0 0 0 4 0 5 100 74 26 11 5 86 100 61 5 4 0 2 77 97 64 79 46 1 1 2 1 0 0 0 0 0 0 0 5 25 5 5 2 2 0 0 4
0 0 0 0 2 0 0 2 0 16 100 4 0 12 96 100 11 5 5 4 0 0 1 0 0 0 0 0 0 0 0 0 0 0 0 0 0 0 0 1 8 42 10 5 57 21 5
4 0 0 0 5 0 3 0 0 68 80 0 8 100 67 70 48 5 10 9 5 0 0 0 0 0 0 0 0 1 3 0 5 10 2 6 10 5 6 89 88 32 6 2 0 0 0
4 0 4 0 3 0 4 0 5 100 27 94 100 66 100 100 6 4 5 4 0 0 0 0 0 0 5 5 5 5 5 4 2 2 3 3 5 3 0 0 0 0 0 0 0 0 0
1 0 0 5 0 1 4 0 18 95 4 100 100 100 100 87 4 4 5 0 0 5 6 5 5 17 9 5 4 2 0 1 0 0 0 0 0 0 0 0 0 0 0 0 0 2 0
0 0 4 0 2 3 0 4 98 21 4 89 100 100 68 8 5 20 5 5 5 10 23 19 54 20 4 0 0 0 0 0 0 0 0 0 0 0 0 0 0 0 0 0 0 0 0
0 0 0 4 3 5 0 42 100 5 65 100 88 94 7 7 5 19 5 5 2 6 82 57 8 12 5 2 0 0 0 0 0 0 0 0 0 0 0 0 0 0 0 0 0 0 0
13 0 6 4 4 4 20 98 97 74 100 100 22 15 20 43 32 59 53 24 26 34 72 67 22 5 0 0 0 0 0 0 0 0 1 4 4 1 0 0 0 0 0 0 0 0 0
5 19 43 3 4 49 83 100 52 100 100 97 34 8 49 19 12 74 22 88 66 16 48 23 5 1 0 0 0 0 0 0 0 2 0 1 0 0 0 0 0 0 0 0 0 2 2
74 0 5 5 0 50 78 100 54 100 100 84 6 65 26 44 47 24 69 86 83 66 20 5 5 5 4 5 0 0 0 0 0 0 0 0 0 0 0 0 0 0 0 0 0 0 11
2 48 5 2 91 40 100 100 100 100 100 98 59 47 58 70 75 68 58 61 80 79 5 5 4 0 0 5 0 0 0 0 0 0 0 0 1 3 5 5 5 0 0 0 0 5 3
5 27 5 39 100 99 100 100 100 100 98 39 25 23 58 44 15 20 54 57 90 32 5 5 3 0 1 0 2 3 5 0 0 0 1 5 5 5 5 5 0 3 5 0 0 0 0
7 100 99 100 100 100 100 100 100 100 66 6 86 94 98 88 95 88 59 82 89 68 7 7 5 5 4 3 5 5 4 4 5 5 5 5 5 2 1 0 0 0 0 0 0 5 2
7 50 100 100 100 100 100 100 100 100 11 66 88 100 97 43 5 7 67 55 88 67 57 31 5 5 5 0 0 0 0 5 5 5 5 2 38 3 4 0 0 0 0 3 5 5 5
20 100 99 100 99 100 100 100 100 97 13 88 65 100 99 42 78 77 72 34 60 74 52 5 5 5 4 5 5 4 4 4 5 5 5 12 27 5 5 8 5 5 4 5 5 5 5
100 100 100 100 100 100 100 100 100 50 100 100 100 100 99 94 94 13 5 9 85 56 40 10 5 9 5 16 5 5 1 3 5 7 18 55 34 8 5 5 5 18 37 5 5 5 2
100 84 100 100 85 100 100 100 90 100 100 100 27 100 100 100 87 6 12 54 83 65 5 7 7 56 6 5 5 5 14 9 5 53 8 18 37 62 5 10 37 99 98 5 5 42 5
93 100 100 100 98 100 100 100 100 100 100 100 100 100 100 100 33 100 67 76 60 7 67 36 42 43 31 29 6 5 5 5 20 32 48 40 6 5 78 23 5 100 6 6 8 99 81
100 100 100 99 100 100 100 100 100 100 100 100 100 44 16 89 99 100 100 100 65 15 19 38 20 29 49 87 97 88 56 10 19 45 35 61 37 16 96 5 85 100 100 100 100 71 100
100 100 100 100 100 100 100 100 100 100 82 100 100 95 18 96 96 100 100 100 100 92 5 5 8 87 74 53 68 74 55 70 92 100 98 100 56 40 68 99 100 100 100 100 100 100 57
100 100 100 100 100 100 100 100 100 100 100 100 100 100 78 100 100 100 100 100 100 97 95 20 28 43 5 6 37 76 100 98 100 99 100 100 83 100 100 100 100 100 64 85 81 6 6

GFSGBSN_prec_cloud_012.txt.gz
Cloud_Cover
0 5 40 95 4 1 0 0 0 66 100 100 100 100 100 100 100 100 100 100 100 100 100 100 100 100 49 22 2 0 48 86 100 100 72 89 92 72 100 100 100 100 100 100 100 100 100
69 87 97 100 5 5 3 0 0 70 100 100 100 100 100 100 100 100 100 100 100 100 100 100 100 100 32 18 62 71 5 88 100 99 100 100 99 100 100 100 100 100 88 100 100 95 99
100 100 98 28 2 5 4 0 0 14 100 100 100 100 100 100 100 100 100 100 100 100 100 100 100 86 98 56 100 100 100 100 100 100 100 88 89 100 100 96 100 100 92 100 100 25 100
4 4 5 1 5 5 6 0 0 54 100 100 100 100 100 98 100 100 100 100 100 100 100 100 100 59 69 5 89 100 98 24 100 100 100 100 100 88 96 100 100 100 83 100 100 100 100
6 5 5 2 2 5 5 1 0 68 100 100 100 100 100 100 100 100 100 100 100 100 100 100 66 100 98 91 100 100 37 100 100 93 100 100 98 100 100 100 88 90 53 58 99 100 51
12 4 5 1 5 5 4 0 0 100 100 100 100 100 99 96 99 100 100 100 100 93 99 90 12 6 98 69 84 100 95 100 100 100 100 84 100 100 100 100 98 84 66 29 32 58 47
5 5 5 0 5 5 5 0 2 100 100 100 66 98 100 8 78 100 98 76 30 18 62 69 17 96 79 100 100 95 100 98 100 86 84 85 84 100 100 100 92 99 34 42 5 5 5
0 4 0 0 0 4 2 0 16 100 92 24 4 99 99 5 83 100 90 87 12 67 100 61 86 30 74 24 1 0 3 38 94 66 100 100 100 100 100 100 100 69 4 2 4 5 5
7 0 0 0 0 0 0 0 0 1 7 0 31 51 7 42 94 97 99 51 100 83 100 100 100 100 100 100 100 100 75 35 79 100 100 87 100 100 100 64 2 0 3 4 2 0 0
92 0 2 5 2 0 1 0 0 3 0 0 10 10 5 99 45 87 63 7 16 84 97 100 100 100 100 96 90 100 99 77 38 81 54 56 7 50 5 5 4 0 0 0 1 5 4
89 5 14 100 5 2 43 0 0 0 0 0 100 0 3 7 18 6 0 0 2 5 59 7 15 0 0 0 0 0 0 0 0 0 0 0 0 0 2 0 1 0 0 4 52 70 72
100 79 100 100 100 74 34 3 0 0 0 0 82 3 97 71 33 10 0 1 1 2 0 0 0 0 0 0 0 0 0 0 0 0 0 0 0 0 0 4 5 5 5 5 5 4 2
100 100 100 100 100 100 5 5 0 0 0 28 65 50 99 100 55 5 4 5 0 0 0 0 0 0 0 1 3 5 5 5 6 5 12 9 5 5 5 5 3 0 0 0 0 2 0
100 100 100 100 100 100 74 5 0 0 0 32 47 96 100 100 12 5 5 0 0 0 3 3 33 9 5 5 5 5 5 5 5 5 5 0 0 0 0 0 0 0 0 0 0 5 0
100 100 100 100 100 100 63 3 0 0 2 92 70 68 100 100 16 5 5 0 0 1 5 5 20 5 0 1 0 0 0 0 0 0 0 0 0 0 0 0 0 0 0 0 0 0 0
100 100 100 36 100 100 26 5 0 0 1 100 53 59 100 93 6 5 5 2 0 13 5 5 4 4 0 0 0 0 0 0 0 0 0 0 0 0 0 0 0 0 0 0 0 0 0
100 100 82 1 100 46 6 37 0 0 63 63 4 100 100 65 5 21 5 5 57 68 9 5 5 1 0 0 0 0 0 0 0 0 0 1 0 0 0 0 0 0 0 0 0 2 2
100 100 100 4 0 76 74 100 2 0 100 40 31 97 66 5 33 6 5 61 65 12 5 5 4 5 5 5 0 0 0 0 0 0 0 0 4 0 0 0 0 0 0 0 0 0 16
100 100 41 2 0 9 99 5 0 28 93 50 100 80 20 5 38 5 22 85 40 62 7 5 6 5 5 5 10 0 0 0 0 0 0 0 0 0 0 0 0 0 0 0 0 0 0
100 100 100 18 5 87 5 0 1 100 52 17 83 5 5 54 5 5 33 71 60 6 5 5 5 5 5 2 5 2 0 0 0 0 0 0 0 0 4 5 5 4 0 0 0 0 0
100 100 100 100 100 100 31 0 91 100 26 23 3 6 98 54 9 56 100 75 47 15 60 26 5 5 3 5 5 4 0 0 0 0 0 0 1 5 5 5 5 5 0 0 0 0 3
100 100 100 100 100 100 100 57 100 74 5 65 5 94 100 13 5 46 81 47 68 100 86 5 5 5 7 5 4 0 2 4 5 18 23 5 40 5 0 1 5 15 5 5 5 21 23
100 100 100 100 100 100 44 100 100 45 5 95 20 97 99 6 5 26 59 100 99 95 30 7 5 52 8 5 5 8 98 94 84 70 7 5 10 5 5 5 53 99 5 8 21 71 5
100 100 100 100 100 96 100 100 100 3 52 100 100 100 7 28 88 50 83 100 94 17 8 64 5 50 63 5 7 5 6 36 28 18 5 19 5 5 5 5 61 38 54 5 6 5 5
100 100 100 99 100 93 100 100 100 5 84 99 42 42 66 98 100 6 75 32 51 21 17 5 5 34 15 5 55 57 33 12 5 5 5 5 5 35 32 15 79 100 99 34 5 5 45
100 100 100 100 100 100 100 100 97 5 100 66 23 34 69 100 100 8 7 19 60 85 18 6 5 5 5 11 70 40 8 5 5 16 5 5 5 5 34 11 31 100 100 94 4 36 100
100 96 100 100 100 100 100 100 45 14 100 97 76 27 96 100 76 67 25 26 81 56 14 5 15 40 57 34 48 44 38 36 64 44 74 59 73 6 94 5 74 100 83 47 90 100 100
100 100 100 100 100 100 100 100 87 7 100 100 63 41 100 100 92 100 73 100 100 28 5 8 74 70 88 84 47 27 14 13 86 63 26 26 45 23 63 57 94 51 63 100 100 100 100
100 100 100 100 100 100 100 100 100 59 100 100 98 87 68 100 93 100 100 100 100 18 27 62 29 32 12 39 39 77 100 80 48 65 100 98 100 96 80 98 71 86 100 75 100 100 60

GFSGBSN_prec_cloud_015.txt.gz
Cloud_Cover
5 5 4 1 3 34 1 25 5 1 45 100 100 100 100 100 100 100 100 95 100 100 100 100 100 100 63 68 1 0 0 3 100 100 48 100 100 100 96 74 100 100 100 100 100 100 100
4 2 16 1 0 7 23 0 0 0 0 100 100 100 100 100 100 100 100 100 81 100 100 100 100 98 65 73 44 5 5 12 100 100 100 99 100 94 88 100 100 100 100 100 100 100 100
93 5 5 5 30 3 14 0 5 0 0 96 100 100 100 100 100 100 100 100 100 100 100 100 100 98 60 68 12 21 99 100 100 78 94 100 100 100 100 100 100 100 100 100 100 100 100
98 21 87 32 5 5 26 22 100 0 0 20 100 100 100 100 100 100 100 100 100 100 100 100 100 98 34 5 5 41 21 100 66 59 100 100 100 79 99 99 100 100 100 100 100 100 83
100 69 51 4 38 22 51 33 4 5 0 40 100 100 100 100 100 100 100 100 100 100 100 100 88 40 92 37 6 46 100 88 71 100 100 100 97 93 100 100 100 100 96 92 100 100 100
100 99 5 5 93 100 100 100 90 6 0 78 100 100 100 100 100 100 100 100 100 97 99 91 26 5 98 100 16 100 9 97 99 99 76 100 100 100 100 92 100 76 100 100 100 100 100
100 100 83 81 52 100 100 100 36 78 0 95 100 100 98 61 100 100 62 100 82 28 73 22 24 25 100 47 62 28 100 100 100 100 100 100 100 90 100 99 78 100 100 100 84 60 48
96 100 100 100 100 87 100 100 68 3 2 100 99 58 20 95 100 100 95 25 20 22 93 100 96 100 100 100 100 85 100 100 100 100 100 78 96 89 91 100 100 83 84 100 100 9 1
20 100 100 100 100 100 59 97 71 0 0 33 24 12 4 100 100 86 81 5 50 99 100 74 43 14 38 4 89 55 4 90 54 98 70 98 99 100 100 100 97 100 100 69 5 4 5
77 100 100 73 100 88 25 5 5 0 0 6 0 0 62 100 46 31 9 50 95 96 94 67 100 100 100 100 100 100 81 36 100 72 100 100 100 97 57 100 100 99 6 4 3 15 75
100 82 92 78 0 3 0 4 5 0 1 0 0 0 84 6 10 2 5 5 5 72 48 37 100 86 100 100 100 100 100 100 91 100 99 93 96 99 100 97 12 0 5 4 2 5 5
99 100 100 100 1 0 0 5 12 1 2 0 0 1 96 57 66 5 5 0 8 62 86 99 100 78 8 6 14 10 1 2 32 6 3 2 11 6 5 1 4 3 2 10 15 42 21
21 9 95 100 19 1 6 35 39 5 3 0 6 17 98 19 4 5 4 0 18 65 0 2 0 0 0 0 0 0 0 0 0 0 0 0 0 0 0 0 0 5 5 63 77 31 1
5 9 100 100 100 83 98 100 96 77 1 0 32 99 99 32 100 9 0 0 4 0 0 0 0 0 0 0 0 0 0 0 0 0 0 3 5 24 5 5 4 1 0 0 0 0 0
6 38 100 100 100 100 100 100 100 100 1 47 96 100 100 13 100 61 3 5 2 0 0 0 0 5 2 5 5 5 5 5 4 4 0 0 1 0 0 0 0 0 0 0 0 0 0
89 13 100 100 96 64 100 100 100 100 5 88 19 26 97 59 100 75 5 5 0 0 0 2 5 5 5 4 0 0 0 0 0 0 0 0 0 0 0 0 0 0 0 0 0 0 0
87 52 100 100 57 31 75 100 100 90 12 29 0 3 97 86 100 31 5 5 2 5 5 4 5 2 0 0 0 0 0 0 0 0 0 0 0 0 0 0 0 0 0 0 0 0 0
20 61 100 100 100 100 5 5 100 88 72 99 0 21 100 72 100 40 5 5 5 23 5 5 3 0 0 0 0 0 0 0 0 0 0 0 4 0 0 0 0 0 0 0 0 0 2
23 100 100 100 100 100 20 33 99 75 84 99 3 43 100 49 100 19 46 5 78 48 5 5 0 0 0 4 5 1 0 0 0 0 0 0 0 0 0 0 0 0 0 0 0 0 0
46 100 100 100 100 100 27 100 57 23 55 8 0 31 99 5 100 11 74 48 25 5 14 5 3 0 0 0 4 35 0 0 0 0 0 0 0 0 0 0 4 5 5 0 0 0 0
67 100 100 100 100 99 99 63 8 18 36 51 1 20 100 51 77 7 20 8 5 23 12 5 6 1 0 0 2 5 5 2 5 0 1 0 0 0 4 5 5 5 5 4 5 3 5
100 100 100 100 100 84 60 0 17 41 68 13 24 97 100 100 60 53 72 27 5 18 5 34 91 5 5 5 4 5 4 5 5 5 5 5 5 5 5 5 5 63 22 5 5 2 5
100 100 100 100 100 100 100 43 26 48 1 5 100 100 100 82 5 7 75 61 44 76 11 25 6 5 5 5 5 5 2 5 5 15 25 24 7 5 69 8 27 100 10 5 5 5 5
100 100 100 100 100 100 100 50 47 5 0 60 100 100 100 6 7 98 58 28 5 30 31 5 5 5 5 5 5 5 13 41 30 52 53 20 5 5 20 5 90 77 58 5 5 5 5
100 100 100 100 100 100 100 100 15 1 4 100 100 100 100 5 100 23 5 5 5 23 11 5 5 5 5 5 5 5 5 5 5 8 28 14 5 9 5 5 73 99 78 96 5 6 5
100 100 100 100 100 100 100 100 42 32 100 100 100 100 58 37 31 5 5 9 22 5 5 5 5 12 5 5 29 46 63 61 68 45 27 5 5 6 10 23 82 100 100 28 5 54 50
100 100 100 100 100 100 100 92 46 100 100 100 100 88 67 44 5 5 33 28 19 34 17 5 5 5 5 10 51 17 38 31 89 56 39 64 39 39 22 42 95 29 5 5 44 74 100
100 100 100 100 100 100 100 49 100 100 100 100 100 67 66 28 5 5 81 62 37 41 33 29 5 5 5 19 37 9 59 87 99 8 15 15 42 43 48 100 28 5 53 88 71 100 73
100 100 100 100 100 100 100 100 100 100 100 100 100 97 90 9 6 5 47 29 50 28 63 64 32 6 5 5 5 12 24 34 37 66 30 80 19 21 98 100 20 5 33 100 100 65 5

GFSGBSN_prec_cloud_018.txt.gz
Cloud_Cover
92 70 0 0 0 0 8 5 5 5 5 3 1 99 100 100 100 100 100 100 99 100 100 100 100 100 86 7 0 0 0 0 1 2 0 12 71 30 100 100 100 100 100 100 100 100 100
100 98 50 0 0 5 5 21 71 82 6 0 0 48 100 100 100 100 100 100 86 100 100 100 100 100 100 4 5 19 1 0 86 100 66 40 100 100 99 100 100 100 100 100 100 100 100
95 100 100 56 3 5 5 59 100 97 38 3 5 8 100 100 100 100 58 64 68 100 100 100 100 100 49 6 100 12 5 27 100 18 77 76 100 100 100 100 100 100 100 100 100 100 100
5 100 100 87 5 5 58 22 92 44 4 0 9 56 100 100 100 100 45 25 54 100 100 100 99 40 99 11 98 29 6 52 96 100 93 92 90 100 100 100 100 100 100 99 100 100 100
92 9 100 100 5 5 5 40 100 10 10 3 6 100 100 100 100 99 98 76 63 100 100 100 49 80 60 24 5 26 8 100 100 39 100 84 100 100 100 100 100 100 100 99 100 100 100
60 11 40 100 68 5 5 5 64 37 5 22 92 100 100 100 100 100 45 56 100 97 78 77 77 8 11 100 28 88 100 100 100 66 100 100 100 100 100 100 100 100 100 100 100 94 100
0 97 5 100 100 23 5 100 54 9 6 63 58 100 100 100 100 100 31 2 10 28 1 4 5 4 91 96 100 77 100 97 94 100 100 100 100 100 100 100 100 100 100 100 100 100 100
97 94 54 84 100 98 82 10 90 5 25 6 95 100 100 100 100 100 29 0 0 5 2 4 34 72 32 100 17 100 36 62 99 100 100 100 100 100 100 100 100 100 100 100 100 100 64
99 100 98 100 100 99 32 44 7 15 100 100 86 100 100 100 100 68 0 0 0 4 53 94 79 32 91 67 68 42 39 100 100 100 100 100 100 100 100 100 100 100 100 100 91 81 100
53 98 100 95 100 100 100 100 55 93 100 100 100 100 99 100 31 0 0 0 0 2 5 4 5 6 54 43 61 52 8 100 100 100 100 100 100 100 100 100 100 100 100 100 100 89 90
22 24 10 92 100 100 100 100 100 100 100 100 100 100 100 5 5 0 0 0 0 0 4 21 58 61 53 63 95 94 20 12 99 100 100 100 100 100 100 100 100 100 100 20 27 12 5
5 5 13 38 64 100 100 100 100 100 100 100 100 100 100 72 4 0 0 1 5 5 15 6 18 9 33 100 100 100 100 100 91 100 100 100 100 88 18 100 99 85 37 5 27 4 0
5 5 6 2 55 98 100 100 100 100 100 100 100 100 100 100 0 1 0 5 0 4 17 8 84 39 28 12 71 99 52 100 100 99 68 98 70 57 52 29 15 5 5 8 2 0 5
56 32 90 45 83 98 100 100 100 100 100 100 100 100 100 12 0 0 15 4 4 2 5 5 4 0 0 0 0 0 1 3 7 14 7 3 1 4 5 5 3 2 3 8 7 9 31
75 16 100 100 100 100 100 100 100 100 100 100 100 100 98 0 0 2 97 3 0 0 0 0 0 0 0 0 0 0 0 0 0 0 1 0 0 0 3 6 38 50 92 24 0 0 0
100 100 100 100 100 100 100 100 100 100 96 61 73 68 1 0 0 2 38 53 4 0 5 0 0 0 0 0 1 5 5 4 5 5 5 4 5 21 3 7 0 0 0 0 0 0 0
24 98 100 94 100 100 100 100 100 100 100 51 50 0 16 2 4 3 100 70 5 5 5 5 0 0 5 6 13 7 5 4 1 0 0 0 0 0 0 0 0 0 0 0 0 0 0
5 87 100 100 52 100 100 100 100 92 82 100 3 0 21 5 3 5 100 82 8 5 5 5 5 5 5 5 5 0 0 0 0 0 0 0 0 0 0 0 0 0 0 0 0 2 2
15 97 100 100 58 100 100 100 97 27 100 100 3 7 51 5 13 6 100 68 6 5 28 6 5 5 0 2 0 0 0 0 0 0 0 0 0 0 1 0 0 0 1 5 5 5 5
5 26 98 100 100 100 100 100 96 28 100 100 8 100 19 5 72 9 100 67 65 21 46 14 5 0 1 0 0 4 0 0 0 0 0 0 0 0 4 2 5 16 60 78 43 5 5
64 20 14 95 100 100 100 99 98 90 91 94 12 61 100 16 100 67 100 23 53 43 38 49 5 3 4 4 2 4 5 0 0 3 5 1 5 5 5 13 44 64 96 28 5 5 3
99 5 5 100 100 100 100 100 100 90 62 5 7 74 100 100 100 100 100 6 58 76 16 6 34 5 5 5 0 1 5 5 5 5 5 5 28 15 44 17 59 100 50 5 5 3 5
7 20 96 100 100 100 100 100 100 100 13 0 1 94 100 100 100 59 100 76 99 85 14 6 5 5 5 2 0 4 2 5 5 5 14 22 5 5 5 33 100 100 5 5 5 4 5
71 68 100 100 100 100 92 100 100 100 0 0 3 26 100 100 71 95 100 24 53 83 26 5 5 5 5 0 0 0 4 5 5 5 5 5 5 5 5 20 100 98 6 1 0 1 5
100 100 100 100 100 100 97 100 100 90 0 0 6 65 100 100 98 100 100 6 6 62 5 5 5 5 5 5 3 5 8 6 5 5 5 5 5 12 42 5 31 77 48 13 5 13 5
100 100 100 100 100 100 100 100 63 60 5 2 76 28 100 100 100 100 81 5 42 69 41 5 5 5 5 5 5 5 5 5 5 5 5 5 5 5 6 67 48 93 24 5 5 24 96
100 100 100 100 100 100 100 88 100 52 4 1 13 95 100 100 100 100 17 29 93 74 9 48 10 12 5 20 92 19 5 5 5 5 72 25 37 39 7 35 19 6 7 68 46 46 100
100 100 100 100 100 100 100 100 100 100 49 8 75 72 96 100 100 100 5 15 51 5 12 74 9 29 8 48 54 28 61 46 44 5 9 12 8 19 15 64 33 5 5 60 91 73 90
100 100 100 100 100 100 100 100 100 100 5 5 68 81 100 100 100 84 57 71 6 10 8 23 74 95 74 63 46 41 94 94 7 34 7 47 5 5 5 7 5 5 20 23 54 100 100

GFSGBSN_prec_cloud_021.txt.gz
Cloud_Cover
100 100 100 100 57 5 18 49 0 0 0 1 2 3 5 96 24 8 72 41 100 100 26 39 78 28 98 100 100 18 0 0 0 0 9 100 100 32 96 69 100 100 100 100 100 100 100
100 100 100 100 100 50 91 6 0 0 4 0 0 5 5 95 94 19 96 35 100 80 0 37 97 7 5 98 9 3 5 0 0 26 0 100 100 80 100 98 100 100 100 100 100 100 99
100 100 100 100 100 74 12 0 0 3 5 4 4 2 5 99 100 70 73 69 16 4 0 0 39 0 24 6 95 100 5 0 5 99 94 17 100 100 94 95 100 100 100 100 100 100 100
100 100 100 66 100 99 16 1 3 5 5 5 5 5 5 94 100 81 100 80 5 3 0 0 3 0 4 64 10 100 64 2 100 100 29 7 99 92 43 100 100 100 100 100 100 100 100
64 100 100 100 100 100 82 5 5 35 19 5 4 5 5 100 100 79 94 100 5 0 0 4 2 5 0 3 2 0 88 29 99 100 100 22 96 98 100 100 100 100 100 100 100 100 100
88 14 97 100 100 100 100 17 78 100 40 6 5 58 5 100 100 100 79 38 4 31 12 0 4 0 0 74 84 5 65 100 98 61 100 100 100 100 100 100 100 100 100 100 100 100 100
5 7 5 71 96 100 100 100 93 100 14 5 5 3 22 68 100 100 88 5 5 5 0 0 0 0 4 40 5 5 13 100 88 100 100 100 100 100 100 100 100 100 100 100 100 100 100
5 5 5 6 96 90 100 100 100 100 100 50 5 5 10 100 97 100 18 5 5 5 2 0 9 8 7 90 9 80 97 91 97 100 100 100 100 100 100 100 100 100 100 100 100 100 92
84 66 6 75 100 100 100 92 100 100 100 92 28 66 50 99 82 86 78 66 8 5 1 0 1 4 3 10 91 4 100 100 100 100 100 100 100 100 100 100 100 100 100 100 100 94 92
68 5 72 69 22 100 100 100 99 7 5 99 84 100 58 100 38 93 96 87 91 17 3 1 0 5 4 3 4 60 9 92 100 100 100 100 100 100 100 100 100 100 100 100 100 59 61
99 34 5 5 5 97 87 100 100 100 32 87 100 99 100 100 100 100 100 94 97 5 64 45 4 2 0 4 10 69 4 50 100 100 100 100 100 100 100 99 100 100 98 100 100 99 100
97 92 46 5 5 9 80 100 100 100 100 99 100 42 100 100 100 100 100 100 85 5 91 0 2 5 4 3 1 30 0 5 55 88 100 100 100 100 98 99 100 100 100 100 100 76 57
58 62 34 9 0 4 69 100 100 100 100 100 100 100 100 100 100 100 100 100 100 96 4 0 0 0 4 4 5 14 89 100 100 86 85 93 91 100 100 100 100 100 100 94 77 99 60
100 84 5 82 3 6 90 99 100 100 100 100 100 100 100 100 100 100 100 100 99 24 6 0 0 5 33 6 4 5 11 97 100 100 100 100 100 100 95 100 100 100 95 94 29 100 48
100 100 30 12 5 3 67 84 96 100 100 100 100 100 100 100 100 100 100 100 79 5 2 0 0 0 4 2 38 85 100 55 59 76 100 98 100 100 100 98 61 30 5 1 4 21 36
100 100 100 94 5 4 0 76 100 100 85 100 100 100 100 63 100 100 46 100 100 5 0 0 0 0 5 0 0 0 4 24 4 9 61 62 76 28 26 28 4 5 5 8 3 0 2
100 100 100 100 93 44 4 26 100 100 92 100 100 100 100 100 100 100 89 100 97 0 0 0 0 0 5 5 0 0 16 2 0 3 4 5 32 41 25 18 32 28 4 0 1 3 3
100 100 100 100 100 100 100 100 100 100 100 100 100 100 100 100 100 100 100 100 65 1 0 4 5 0 0 2 5 5 14 8 5 6 6 5 5 2 0 1 0 0 5 5 0 2 0
96 100 100 100 100 100 100 100 100 100 100 100 100 100 100 100 100 100 100 100 4 5 5 5 4 2 6 62 37 10 5 3 4 0 0 0 0 3 5 1 0 0 0 0 0 0 0
100 100 100 100 100 100 39 100 100 100 100 100 100 100 100 100 72 98 100 56 5 5 36 5 5 8 78 68 53 5 4 0 0 0 0 0 0 1 5 90 37 3 0 4 5 5 5
100 100 100 93 98 100 80 85 100 100 97 100 100 100 100 100 100 94 8 5 0 5 27 2 4 70 86 15 5 5 5 5 0 0 0 0 0 1 5 5 1 5 13 5 5 5 10
100 100 100 100 100 100 100 100 100 100 100 29 68 100 72 6 5 67 37 3 6 12 8 0 6 63 76 5 5 6 5 5 3 0 0 0 0 2 4 0 5 52 14 5 4 5 5
100 99 74 13 29 51 100 100 100 100 35 42 68 74 94 67 4 5 36 5 30 89 32 5 15 67 48 6 5 5 5 2 5 3 5 5 5 5 1 5 6 50 5 5 5 2 0
79 80 55 16 5 89 100 100 100 100 30 5 86 100 99 30 9 72 97 62 78 100 62 45 14 34 10 5 5 5 5 3 0 0 5 0 5 5 13 6 50 7 0 5 5 5 2
5 30 10 3 5 100 100 100 100 100 6 68 100 100 100 66 49 87 100 97 86 100 28 5 8 29 5 5 5 5 5 6 0 0 5 2 4 5 20 4 5 5 22 5 5 5 7
5 5 5 21 100 100 100 100 100 93 37 98 99 100 100 96 67 100 100 88 34 100 18 18 25 43 19 5 5 5 5 0 2 0 5 5 5 5 5 50 63 5 5 5 5 5 39
5 23 56 100 100 100 100 100 100 85 81 97 100 97 100 66 100 100 100 57 100 100 55 76 12 47 46 20 91 5 5 5 5 5 63 5 26 38 5 35 5 5 34 62 41 9 5
99 94 100 100 100 100 100 100 100 94 98 94 70 92 100 80 41 100 89 100 100 100 93 88 13 65 45 29 45 5 31 5 5 5 5 8 15 25 6 63 61 86 78 68 13 6 5
100 100 75 100 100 100 100 100 100 100 100 85 47 3 12 12 37 100 100 100 100 100 45 34 8 11 6 19 92 36 91 90 5 50 17 16 5 15 6 5 5 5 48 5 5 35 16

GFSGBSN_prec_cloud_024.txt.gz
Cloud_Cover
100 100 100 100 100 100 100 100 100 100 100 100 5 4 0 2 15 100 82 74 0 41 25 0 0 2 5 0 0 0 0 0 0 0 0 100 99 52 100 100 100 98 95 97 94 100 100
100 100 100 100 100 100 100 100 100 100 38 78 5 3 1 0 16 100 100 79 0 32 0 0 0 5 5 0 0 95 4 2 0 0 0 100 100 100 100 98 99 69 88 100 100 100 100
100 100 100 99 100 100 100 100 100 100 100 100 95 21 3 5 5 100 100 99 14 0 0 0 2 5 2 0 0 24 5 0 0 42 100 2 98 99 100 100 97 97 100 100 100 100 100
100 100 100 100 100 100 100 100 100 100 100 100 100 99 7 5 38 76 100 90 0 0 0 0 3 5 2 0 0 0 80 1 90 100 97 62 97 100 100 96 33 100 100 100 100 100 100
100 100 100 100 100 100 100 100 100 100 100 100 100 100 100 18 56 44 94 49 4 0 0 0 0 2 0 0 1 0 0 16 11 95 29 10 92 100 100 100 100 100 100 100 100 100 100
100 100 100 100 100 100 89 99 98 100 100 100 100 100 100 64 41 75 39 2 6 0 1 0 1 2 0 1 2 2 4 36 67 88 63 40 77 98 98 99 100 100 100 100 100 100 100
100 100 100 100 100 100 100 100 96 100 100 100 100 100 100 100 100 78 16 5 3 4 0 0 6 52 0 1 0 0 0 98 100 100 15 7 82 100 87 100 100 100 100 100 100 95 100
100 100 100 100 100 100 100 100 98 100 100 100 100 100 100 100 100 100 33 4 10 3 5 3 4 4 0 0 2 0 0 6 46 49 100 100 100 99 100 100 100 100 100 100 66 99 97
100 100 100 100 100 100 100 100 100 100 100 100 100 100 100 100 99 76 15 4 6 4 0 33 3 2 0 0 0 16 0 67 100 97 79 74 98 95 100 100 100 100 100 95 90 100 100
5 59 100 100 100 100 100 100 100 100 100 100 100 100 100 100 92 98 9 5 88 5 3 58 20 5 0 0 0 97 47 57 98 94 93 78 100 100 100 100 100 100 91 53 100 100 93
9 53 28 99 100 100 100 100 100 100 100 100 100 100 99 100 100 79 49 5 18 18 10 9 5 12 0 0 0 0 5 98 77 85 87 95 99 100 100 100 45 100 81 72 53 100 100
100 78 88 22 52 100 100 100 100 100 100 100 100 100 100 100 66 16 44 5 79 20 93 7 19 46 4 0 4 6 16 6 61 95 41 100 100 100 100 100 91 73 94 90 100 100 100
48 95 85 48 100 94 100 100 100 100 100 100 100 100 99 89 28 95 86 28 94 100 32 36 5 2 4 2 3 19 1 1 14 99 97 100 100 100 100 100 92 42 100 100 100 100 100
90 100 100 74 100 100 53 100 100 100 100 100 100 100 100 100 92 100 60 61 38 100 86 18 5 5 5 5 25 74 5 2 3 28 100 40 100 98 56 65 100 100 53 100 100 100 57
100 100 99 82 83 97 16 5 88 100 98 100 100 100 100 100 100 99 100 74 100 28 86 5 12 11 5 75 12 100 30 90 100 100 57 18 95 100 100 100 100 97 99 100 100 98 5
100 100 100 71 100 96 9 0 4 51 99 100 100 100 100 100 100 100 83 6 100 100 38 58 6 5 5 20 0 2 18 59 89 98 99 100 100 98 20 50 91 100 94 22 4 5 12
99 100 100 100 100 100 100 11 45 28 95 100 100 100 100 100 100 71 25 91 100 100 99 80 30 72 23 38 2 3 3 24 17 93 81 100 97 99 62 100 100 54 37 6 4 32 57
100 100 100 100 100 100 100 15 5 61 93 100 100 100 100 100 54 98 14 100 100 100 83 80 76 98 4 99 5 12 30 94 3 5 5 95 100 73 42 100 28 7 42 16 44 8 0
100 100 100 100 100 100 100 79 3 95 100 100 100 81 100 100 68 82 99 100 100 100 100 100 98 100 3 5 19 2 35 5 13 3 3 4 4 5 45 31 15 66 27 4 70 5 0
100 96 100 100 100 100 100 100 6 76 100 100 100 96 100 79 65 93 100 100 100 92 99 99 100 81 5 6 4 5 12 12 22 68 9 23 5 5 3 10 65 89 9 0 3 0 0
100 99 100 99 100 100 100 100 38 77 100 100 100 7 98 100 63 96 100 100 100 100 100 100 89 2 32 15 5 5 13 39 6 0 1 0 0 0 1 16 69 90 40 17 5 0 0
100 76 34 100 100 100 100 100 100 100 100 100 78 87 100 99 100 100 100 100 100 100 29 62 61 5 70 13 4 5 44 5 4 0 0 0 0 0 0 0 0 0 3 0 0 3 5
98 96 91 94 100 100 100 84 100 100 100 100 86 100 100 100 100 100 100 100 100 100 100 100 5 23 42 94 48 10 10 100 53 4 4 4 0 0 0 0 0 0 0 0 0 3 4
86 93 100 100 100 56 95 6 99 100 100 67 79 84 100 100 100 100 100 100 100 100 100 64 5 80 73 12 5 5 5 10 5 5 5 0 0 0 0 0 3 0 0 0 5 3 0
99 100 100 100 74 31 74 5 100 100 100 88 93 58 98 100 100 100 100 100 21 34 100 36 5 75 27 5 7 5 5 1 5 5 4 1 0 0 36 0 0 0 0 0 5 3 6
100 100 100 98 92 19 5 8 100 100 100 100 49 74 100 36 4 96 100 100 5 98 95 14 62 39 28 5 57 9 5 5 5 5 1 4 0 4 0 0 5 5 1 4 4 5 16
89 37 99 96 5 76 6 73 100 100 93 100 95 62 99 94 78 100 26 31 74 88 99 100 100 68 38 29 91 5 14 5 5 5 5 4 5 38 0 33 5 6 13 23 23 17 5
86 15 98 45 5 5 5 29 100 100 100 100 85 100 99 100 100 100 78 100 100 100 100 99 60 13 41 31 41 5 57 19 5 5 5 5 6 40 6 72 54 6 30 74 5 15 29
64 18 5 5 5 5 5 100 97 100 99 100 99 91 100 100 97 100 37 10 100 100 86 100 100 80 31 8 46 20 93 90 5 16 5 11 17 5 5 5 60 67 97 7 57 100 5

GFSGBSN_prec_cloud_027.txt.gz
Cloud_Cover
100 100 100 100 100 100 100 100 100 100 100 100 100 100 100 97 100 6 60 100 88 1 0 0 0 0 1 0 0 0 2 3 1 0 0 16 56 100 54 100 100 100 100 100 100 98 100
100 100 100 100 100 100 100 100 100 100 100 100 100 100 100 100 100 100 5 100 72 0 0 0 0 0 10 0 0 0 0 2 0 0 0 19 100 12 90 100 100 100 100 100 100 100 100
100 100 100 100 100 100 100 100 100 100 100 100 100 100 100 100 98 100 74 62 71 5 0 0 0 0 0 0 0 0 0 5 0 0 16 0 98 11 6 99 58 100 100 62 46 100 100
100 100 100 100 100 100 100 100 100 100 100 100 100 100 100 100 100 80 85 46 4 5 3 3 0 0 0 0 0 0 0 0 98 100 91 33 96 43 97 100 100 100 82 94 100 100 99
100 100 100 100 100 100 100 100 100 100 100 100 100 100 100 100 97 52 100 5 5 5 0 8 1 0 0 0 0 0 0 25 19 4 19 4 5 100 100 99 87 83 100 100 100 100 77
100 100 100 100 100 100 100 100 100 100 100 100 100 100 100 100 100 100 99 5 5 5 1 5 0 0 0 0 0 0 1 5 5 5 3 44 54 100 100 100 100 97 100 100 100 96 100
100 100 100 100 100 100 100 100 100 100 100 100 100 100 100 100 100 100 92 67 53 5 2 5 0 0 0 0 0 0 0 5 1 5 82 5 42 90 100 100 100 31 96 100 100 100 100
100 100 100 100 100 100 100 100 100 100 100 100 100 100 100 100 100 100 100 11 44 5 2 5 0 0 0 0 0 0 0 1 1 94 35 3 93 96 94 100 100 30 100 100 100 90 89
100 100 100 100 100 100 100 100 100 100 100 100 100 100 100 100 100 100 80 27 77 5 1 5 0 0 0 3 0 0 0 32 42 94 52 73 98 51 94 100 69 70 98 95 88 51 61
100 100 100 100 100 99 100 100 100 100 100 100 100 100 100 100 100 100 81 100 5 5 3 3 0 2 0 0 3 0 22 2 5 61 56 40 86 46 100 87 88 50 98 96 55 89 100
100 100 66 99 100 100 100 100 100 100 100 100 100 100 100 100 100 100 100 5 7 5 28 2 0 0 0 0 4 4 54 83 60 5 88 43 100 45 44 15 59 57 100 100 100 97 100
100 100 100 100 64 100 100 100 100 100 100 100 100 100 100 100 100 11 100 88 67 67 89 0 2 0 3 0 3 5 76 7 79 91 100 75 51 100 100 94 96 56 98 96 71 100 100
100 100 100 100 100 100 100 100 100 100 100 100 100 100 100 100 100 62 100 39 17 73 35 0 2 0 0 4 4 8 3 4 3 15 99 100 97 100 100 100 55 100 99 42 61 91 100
100 100 100 100 100 100 100 100 41 100 100 100 100 100 100 100 100 100 100 29 92 59 57 0 5 0 0 0 52 26 38 2 0 0 14 95 93 100 100 88 100 100 66 79 99 100 81
100 100 100 100 100 100 100 100 100 45 100 100 100 100 100 100 100 100 98 100 3 100 7 4 6 0 0 5 6 51 98 16 0 0 23 29 26 79 80 97 100 100 6 67 96 100 100
100 100 100 100 94 90 100 100 100 15 93 100 100 100 100 100 100 100 68 89 15 86 26 14 6 3 5 7 72 74 0 0 81 56 87 36 24 72 100 96 99 100 56 62 32 100 100
76 100 100 100 100 98 100 100 100 26 56 93 100 100 100 100 68 94 77 92 100 88 6 44 96 14 5 6 20 2 2 0 20 100 77 100 100 100 62 98 92 25 95 98 20 36 97
5 32 100 100 100 100 100 100 100 56 77 96 100 100 100 100 43 36 42 93 100 100 69 99 36 26 18 61 6 4 2 3 0 55 100 99 100 100 100 99 34 24 87 100 5 9 83
5 5 77 100 100 100 100 100 100 31 90 100 100 100 100 100 28 1 5 96 100 92 84 100 80 34 47 100 96 35 18 98 100 14 26 73 100 100 100 75 4 10 10 5 60 5 5
5 5 5 94 90 100 100 100 100 96 74 99 100 100 100 97 58 20 10 100 100 70 18 93 100 30 84 77 96 99 5 98 32 6 13 24 30 11 5 11 6 34 5 46 23 6 3
5 5 13 94 100 100 100 100 100 100 100 100 100 100 17 100 80 31 77 88 100 6 81 100 100 98 100 70 14 95 4 6 5 5 18 42 35 63 35 5 5 53 5 92 86 39 4
74 5 8 100 100 30 100 100 100 100 100 100 100 98 11 99 100 100 95 100 100 100 100 100 100 100 18 7 5 5 0 6 5 5 5 5 5 2 0 0 0 5 0 3 5 0 5
66 96 38 100 95 85 100 100 100 100 100 100 100 100 100 100 100 60 5 86 85 100 100 100 100 100 98 47 6 15 12 5 43 5 5 3 0 0 0 0 0 0 0 0 0 0 0
10 93 89 33 78 80 100 100 100 100 100 100 100 100 100 100 52 51 92 100 100 100 100 100 100 100 58 99 42 62 75 23 29 99 3 0 4 5 3 0 0 0 0 0 0 0 0
29 11 96 5 5 94 100 100 100 69 100 100 100 100 100 99 51 56 25 45 100 100 100 100 100 99 7 6 38 97 28 16 19 8 3 4 2 0 0 3 3 0 0 0 0 0 0
21 5 91 12 5 94 97 100 96 5 100 100 100 100 100 100 98 100 100 100 99 93 100 100 100 100 70 100 5 61 5 5 80 5 5 3 5 5 0 5 5 5 5 0 0 2 5
86 85 65 63 100 98 98 98 26 5 94 100 100 100 100 100 98 100 92 5 100 100 100 100 100 100 100 97 95 5 75 10 43 5 5 8 5 5 9 13 5 6 5 4 1 0 5
100 100 100 100 100 100 100 52 27 5 94 99 100 100 100 100 80 5 98 76 100 86 100 100 100 100 86 95 99 88 35 5 62 8 5 7 29 46 58 79 15 5 61 5 5 5 27
100 100 100 100 100 99 89 40 5 40 100 76 100 100 100 100 86 35 79 13 97 100 100 100 98 79 100 100 100 97 74 90 43 72 63 49 5 5 5 5 5 5 5 5 33 68 5

GFSGBSN_prec_cloud_030.txt.gz
Cloud_Cover
100 100 100 100 100 100 100 100 100 100 100 100 100 100 100 100 100 100 100 100 68 100 5 5 37 1 0 0 0 0 0 0 0 0 0 2 52 58 85 18 84 100 100 73 100 82 94
100 100 100 100 100 100 100 100 100 100 100 100 100 100 100 100 100 100 100 100 19 33 5 8 14 0 0 0 0 0 0 0 0 1 0 0 55 5 3 22 100 100 69 100 100 100 100
100 100 100 100 100 100 100 100 100 100 100 100 100 100 100 100 100 100 100 100 5 44 39 5 0 0 3 0 0 0 0 0 0 34 1 2 98 82 5 91 100 100 100 100 100 100 100
100 100 100 100 100 100 100 100 100 100 100 100 100 100 100 100 100 100 100 56 40 51 6 5 0 0 1 0 0 0 0 0 1 0 1 4 9 99 53 100 100 100 100 100 100 100 100
100 100 100 100 100 100 100 100 100 100 100 100 100 100 100 100 100 100 100 100 62 68 5 5 2 0 0 0 0 0 0 0 0 0 0 0 3 31 100 100 100 100 71 100 100 100 100
100 100 100 100 100 100 100 100 100 100 100 100 100 100 100 100 100 100 100 100 100 56 5 5 1 0 0 0 0 0 0 0 0 0 1 0 4 31 87 100 100 100 100 100 100 100 100
100 100 88 100 100 100 100 100 100 100 100 100 100 100 100 100 100 100 100 100 84 18 5 0 1 0 0 0 0 0 0 0 0 0 0 0 4 98 100 100 100 99 90 99 96 100 100
100 100 100 71 98 68 99 100 100 100 100 100 100 100 100 100 100 100 100 52 100 55 6 5 0 0 0 0 0 0 0 0 0 0 0 1 81 84 78 99 78 99 62 92 100 62 97
100 100 100 80 88 81 98 53 100 100 100 100 100 100 100 100 100 100 100 45 100 48 5 3 2 0 0 0 0 0 1 0 4 2 2 19 5 93 100 100 67 84 100 100 100 100 100
100 100 100 100 100 50 100 100 69 100 100 100 100 100 100 100 100 100 100 97 85 5 5 5 5 0 0 0 0 0 5 21 0 4 5 30 80 48 100 89 52 100 100 100 100 100 100
100 100 100 100 100 100 70 94 88 99 100 100 100 100 100 100 100 100 100 100 98 99 0 5 3 0 0 0 0 0 3 5 2 5 19 26 16 15 58 93 98 100 89 67 99 100 61
100 100 100 100 100 100 63 62 98 87 80 100 100 100 100 100 100 100 96 100 99 48 41 5 2 0 0 0 0 1 5 5 0 5 3 5 5 34 90 91 30 10 69 26 100 100 20
99 100 100 100 100 100 100 99 95 100 95 97 100 100 100 99 100 100 100 81 24 93 54 3 2 0 0 0 0 0 44 51 0 1 5 6 83 91 89 93 51 26 26 90 96 98 80
5 87 100 100 100 100 100 100 100 100 48 71 100 100 100 100 100 100 100 96 97 92 41 5 0 0 0 0 0 0 3 3 4 5 49 5 13 100 100 88 25 8 90 100 74 27 5
3 36 100 100 100 100 99 100 100 100 100 48 93 100 100 100 100 100 100 100 23 100 96 2 0 1 0 0 0 0 0 0 7 0 0 5 7 8 100 100 99 13 39 5 12 98 55
0 90 100 98 100 100 91 99 100 100 100 25 97 100 100 100 95 100 100 13 100 100 41 0 0 5 0 0 0 0 0 0 60 0 0 8 30 63 58 71 80 59 95 84 82 100 95
5 72 100 100 100 100 100 58 100 100 100 100 100 100 83 100 100 89 100 98 100 100 10 0 0 1 4 2 0 4 4 1 28 5 26 94 2 2 88 69 35 100 100 33 45 17 69
32 6 96 96 100 100 100 87 24 100 100 94 100 100 85 89 100 32 100 100 100 91 5 5 0 3 5 3 0 5 2 5 5 0 4 11 10 6 36 7 70 9 12 7 9 60 10
100 5 6 22 100 98 100 99 100 100 100 99 100 100 62 11 98 3 25 78 100 97 5 3 3 6 15 3 5 4 5 5 5 3 3 3 67 95 74 28 78 62 100 77 22 59 73
100 9 36 5 100 100 100 100 31 100 100 100 100 100 100 100 6 78 76 100 100 100 11 3 36 25 44 5 27 5 5 3 2 2 20 5 5 9 49 10 10 99 67 20 14 26 5
100 96 59 53 96 100 100 66 100 100 100 100 100 100 41 100 94 96 100 100 100 14 4 56 45 10 55 98 23 5 4 10 5 54 100 93 6 7 99 98 5 70 15 20 7 5 2
100 92 65 5 24 100 100 40 100 100 100 100 100 100 67 9 100 100 100 100 100 100 72 82 100 100 100 91 18 7 82 25 88 5 28 44 5 9 5 2 0 1 0 0 0 94 5
100 100 100 94 11 70 47 27 100 100 100 100 100 95 100 9 100 51 35 100 100 100 100 71 100 97 47 98 40 100 100 68 5 3 0 5 5 5 4 0 0 0 0 0 0 4 25
100 100 100 100 27 5 16 98 100 100 100 92 100 98 100 15 95 29 100 100 100 100 100 100 100 100 100 99 100 100 100 90 4 0 1 5 68 5 1 0 1 0 0 0 0 0 0
100 100 100 67 5 5 99 100 100 100 100 98 100 100 98 42 93 100 100 91 100 98 100 100 80 100 100 52 95 99 100 4 5 5 0 31 85 77 5 5 0 0 0 0 0 0 0
100 100 100 70 30 41 31 92 100 100 100 57 100 100 100 98 46 100 100 100 100 100 44 99 100 57 100 100 78 87 100 92 12 5 5 5 5 39 21 4 2 1 4 0 0 4 5
100 100 46 41 5 5 5 35 99 98 100 48 100 100 100 100 100 100 100 100 100 100 100 100 90 100 100 100 100 100 100 3 11 35 2 74 10 26 45 5 4 4 4 4 5 58 30
100 98 63 70 5 5 5 72 99 95 100 33 100 100 100 100 94 100 100 100 100 100 100 100 100 51 100 100 100 100 72 39 5 3 25 94 30 42 70 74 5 5 5 5 22 32 5
100 100 87 12 5 20 67 98 94 100 100 44 40 100 100 100 100 68 100 100 100 100 100 100 96 100 100 100 100 100 95 31 67 10 16 98 10 10 26 82 75 47 61 21 5 5 6

GFSGBSN_prec_cloud_033.txt.gz
Cloud_Cover
100 100 100 100 100 100 100 100 100 100 100 100 100 100 100 100 100 100 100 100 100 100 100 100 95 2 1 0 0 0 0 0 0 0 0 0 0 0 1 0 24 100 100 100 100 100 100
100 100 100 100 100 100 100 100 100 100 100 100 100 100 100 100 100 100 100 100 100 100 100 100 17 1 0 0 0 0 0 0 0 0 2 0 2 54 95 0 18 100 100 100 100 100 100
97 100 100 100 100 100 100 100 100 100 100 100 100 100 100 100 100 100 100 100 100 100 100 96 9 5 1 0 0 0 0 0 0 0 0 3 6 98 44 4 68 100 100 100 100 100 100
100 90 65 100 100 100 100 100 100 100 100 100 100 100 100 100 100 100 100 100 100 100 100 43 5 5 0 0 0 0 0 0 0 0 0 0 0 0 100 57 48 100 100 100 100 100 100
100 100 90 91 100 100 100 100 100 100 100 100 100 100 100 100 100 100 100 100 100 100 86 79 38 5 1 0 0 0 0 0 0 0 0 0 0 0 63 98 100 97 100 100 100 100 100
100 100 100 96 43 100 100 100 100 100 100 100 100 100 100 100 100 100 100 100 100 100 100 96 28 5 5 0 0 0 0 0 0 0 0 0 0 4 7 100 95 5 73 97 82 100 100
100 100 100 100 100 98 100 100 100 100 100 100 100 100 100 100 100 100 100 100 100 100 100 85 20 5 5 0 0 0 0 0 0 0 0 0 0 4 4 88 100 100 100 100 100 100 100
100 100 100 100 100 100 100 100 100 100 100 100 100 100 100 100 100 100 100 100 100 100 17 100 6 5 5 0 0 0 0 0 0 0 0 0 2 3 80 76 75 93 96 90 100 100 100
100 100 100 100 100 100 100 100 100 96 100 100 100 100 100 100 100 100 100 100 100 100 100 100 30 5 5 5 0 0 0 0 0 0 0 2 24 55 100 100 98 97 90 100 100 100 100
97 100 100 100 100 100 100 100 100 100 94 100 100 100 100 100 100 100 100 100 100 100 94 100 100 94 5 4 0 0 0 0 0 0 0 0 70 58 17 24 97 57 55 66 100 100 100
0 61 100 100 100 96 100 100 100 100 100 100 100 100 100 100 100 100 100 100 100 100 100 100 100 44 5 5 0 0 0 0 0 0 0 0 5 99 12 5 79 100 77 67 86 100 71
5 0 6 100 100 100 100 100 100 100 100 100 100 100 100 100 100 100 100 100 100 100 100 100 100 30 4 2 0 0 0 0 0 0 5 3 5 5 5 5 74 100 100 97 98 100 16
5 5 1 86 100 100 100 100 100 100 100 100 100 100 100 100 98 100 100 100 100 100 100 69 99 5 2 0 0 0 0 0 0 3 5 3 3 3 62 54 6 79 100 100 88 88 28
100 5 3 3 100 100 100 100 100 100 100 100 100 100 100 100 85 20 100 90 100 100 100 100 45 5 0 0 0 0 0 0 1 5 6 0 0 4 5 99 5 5 29 97 100 100 69
98 86 8 0 6 100 100 100 100 100 100 100 28 77 100 100 100 50 87 99 93 100 84 7 56 42 0 0 0 0 0 0 2 5 5 5 1 5 10 10 9 90 64 25 40 48 26
100 100 85 5 4 51 100 100 100 100 100 100 53 60 98 100 100 100 94 91 53 85 100 5 57 85 5 0 0 0 0 0 0 0 0 3 5 4 5 3 91 100 19 8 5 5 5
100 100 83 77 5 6 99 100 100 100 100 100 90 83 66 100 100 78 63 51 45 100 84 2 38 100 5 2 2 0 0 1 1 0 2 1 0 1 5 1 39 40 5 8 32 40 5
100 100 100 100 5 6 100 100 100 100 100 100 97 93 99 100 100 86 52 99 100 100 99 5 3 12 6 5 5 5 0 0 0 5 2 0 0 0 8 5 2 76 58 14 5 38 21
100 100 100 100 100 20 100 100 96 99 100 99 100 99 87 99 99 57 96 42 100 100 5 5 5 11 32 100 53 4 1 0 0 0 2 0 0 0 5 5 5 5 0 14 5 26 6
100 100 100 100 100 100 100 100 100 100 100 100 100 100 100 96 47 100 79 99 100 100 99 84 33 10 37 100 22 5 0 0 0 0 0 0 0 1 4 5 55 26 0 1 5 20 5
100 100 100 100 100 100 100 100 100 98 100 100 100 97 100 100 76 100 100 100 100 100 9 3 1 5 63 100 100 5 5 0 0 4 4 5 3 5 5 5 10 5 5 4 1 5 5
100 100 100 100 100 100 100 99 100 100 100 100 100 91 99 100 100 100 100 100 100 100 30 5 5 84 100 100 96 100 5 0 1 0 76 3 3 5 5 1 0 5 80 100 23 5 3
100 100 100 100 100 100 100 100 100 100 100 100 97 100 100 100 100 100 96 100 100 100 100 100 100 100 100 100 99 100 5 2 72 10 10 30 1 2 0 0 1 8 0 0 0 0 0
100 100 100 100 100 100 99 100 100 95 9 90 70 96 100 56 88 98 100 100 100 100 100 100 100 100 100 100 100 100 5 14 96 43 65 51 5 4 0 0 4 5 0 0 0 0 0
100 100 100 100 100 100 94 89 5 5 5 100 68 99 100 100 93 100 100 100 100 100 100 100 100 100 100 100 17 6 66 13 5 39 18 5 0 0 0 1 4 5 0 0 0 0 4
100 100 100 100 100 100 100 24 5 2 100 100 100 72 100 100 92 100 100 100 100 100 100 100 91 100 91 48 96 16 86 93 11 100 11 35 5 0 8 0 4 90 2 0 0 5 5
100 100 100 100 100 100 100 100 5 30 100 100 100 100 92 100 56 100 100 100 100 100 100 100 100 100 15 78 57 100 100 64 46 100 100 5 6 0 25 0 13 5 2 5 4 10 1
100 100 100 100 100 100 100 58 43 100 100 100 100 100 100 100 100 52 65 100 100 100 100 100 100 96 96 100 100 100 86 76 100 100 100 6 10 38 2 2 68 4 11 5 4 0 2
100 100 100 100 100 100 40 14 99 100 100 100 100 100 100 83 100 30 24 80 100 100 100 100 100 100 100 100 100 100 100 100 100 100 100 11 6 44 0 5 35 5 5 5 5 5 5

GFSGBSN_prec_cloud_036.txt.gz
Cloud_Cover
100 100 100 100 100 100 100 100 100 100 100 100 100 100 100 100 100 98 100 100 100 100 100 100 100 100 100 100 52 1 0 0 0 0 0 0 0 1 0 1 31 98 100 100 100 100 100
100 100 100 100 100 99 100 100 100 100 100 100 100 100 100 100 100 100 100 100 100 100 100 100 100 100 100 86 1 0 0 0 0 0 0 0 0 2 4 1 100 6 100 98 100 100 100
100 100 100 100 100 100 100 100 100 100 100 100 100 100 100 100 100 100 100 100 100 100 100 100 100 100 100 35 5 0 0 0 0 0 0 0 0 0 26 5 4 53 100 100 100 100 100
100 100 100 100 100 100 100 100 97 69 100 100 100 100 100 100 100 100 100 100 100 100 100 100 100 100 82 56 18 0 0 0 0 0 0 0 0 0 5 32 52 99 100 99 100 100 100
100 100 100 100 100 100 100 100 85 100 97 100 100 100 100 100 100 100 100 100 100 100 100 100 100 99 96 100 5 0 0 0 0 0 0 0 0 0 8 9 73 100 26 89 100 100 100
100 100 100 100 100 100 100 100 100 99 100 100 100 100 100 100 100 100 100 100 100 100 100 100 100 100 98 91 5 0 0 0 0 0 0 0 0 0 1 100 100 77 99 85 91 100 100
82 100 100 100 100 100 100 100 100 100 100 100 99 100 100 100 100 100 100 100 100 100 100 99 100 42 71 93 5 1 0 0 0 0 0 0 0 0 1 91 100 99 56 5 86 94 100
100 75 82 100 100 100 100 100 100 100 100 100 100 100 100 100 100 100 100 100 100 100 100 93 100 27 97 100 33 5 1 0 0 0 0 0 0 0 5 5 84 100 100 94 100 94 100
32 36 100 100 100 100 100 100 100 100 100 100 100 94 97 100 100 100 100 100 100 100 100 99 100 67 98 100 61 5 0 0 0 0 0 0 0 1 14 5 25 43 97 100 99 100 100
64 5 5 3 95 100 100 100 100 100 100 100 100 100 100 100 100 100 100 100 100 100 95 100 100 14 99 100 100 68 5 0 0 0 0 0 0 2 1 1 31 94 12 100 100 100 100
100 51 5 5 5 99 100 100 100 100 100 100 100 100 100 100 81 100 100 100 100 100 100 100 63 92 76 100 100 69 5 0 0 0 0 3 0 0 1 0 1 74 12 45 100 100 76
52 98 6 5 5 2 75 100 100 100 100 100 100 100 100 100 100 24 100 100 100 100 100 100 94 40 95 100 100 31 5 0 0 0 1 5 5 1 5 1 2 5 63 29 100 99 100
52 100 100 78 5 2 19 100 100 100 100 100 100 22 98 100 100 75 100 100 100 100 100 100 100 100 100 100 89 56 5 2 0 0 0 5 3 0 0 3 5 5 16 55 70 9 100
100 100 88 100 82 5 0 70 100 100 100 100 100 57 56 100 100 40 100 97 100 100 100 100 100 100 100 99 79 100 8 5 0 0 5 5 1 2 0 0 4 93 35 5 5 5 7
97 100 100 99 100 80 4 1 100 100 100 100 100 94 68 98 100 100 100 100 100 100 100 100 100 96 81 54 46 31 64 5 5 0 4 3 5 5 5 5 0 4 6 17 31 16 13
99 83 100 100 100 100 15 2 93 100 100 100 99 100 9 90 100 100 100 54 100 100 100 97 97 14 5 5 42 8 98 5 5 0 0 5 3 5 5 65 19 1 5 33 11 5 31
100 98 100 100 100 100 64 4 4 100 100 100 85 100 5 63 100 100 83 60 100 100 100 95 12 96 11 5 5 5 38 32 5 2 4 4 0 5 5 5 25 20 1 23 25 55 66
100 100 100 100 100 100 86 9 3 100 100 100 100 95 98 100 100 100 100 99 100 100 37 95 92 95 9 0 5 5 5 10 5 5 0 0 0 1 3 72 4 0 56 5 5 58 100
100 100 100 100 100 100 100 87 8 100 100 61 100 98 100 100 99 99 96 100 100 100 87 100 92 93 8 5 5 5 15 5 100 86 1 0 0 0 0 0 0 0 3 2 5 5 5
10 100 100 100 100 100 100 100 100 100 100 80 100 100 100 100 47 5 54 88 84 100 100 100 100 100 26 6 5 5 23 11 100 99 5 5 0 0 0 1 4 0 1 2 2 5 3
1 99 100 100 100 100 100 100 100 100 100 98 100 100 35 100 82 15 18 5 38 93 96 100 100 100 100 100 14 26 7 27 100 84 4 3 0 0 0 78 2 0 8 5 5 5 16
66 23 100 100 100 100 100 100 100 100 100 100 100 97 71 7 94 95 100 100 100 100 70 60 99 100 100 100 83 100 56 100 97 32 5 5 0 0 1 4 4 0 0 5 56 57 71
92 68 100 100 100 100 100 100 100 100 100 100 69 81 44 22 53 85 60 100 100 100 100 100 100 100 100 100 100 100 100 53 100 100 5 2 0 0 4 5 5 0 0 0 0 4 5
82 88 100 100 100 100 100 100 100 100 59 5 30 77 91 50 95 18 100 100 100 100 100 100 100 100 100 100 100 100 81 96 94 99 5 20 15 6 41 97 15 0 0 0 0 0 0
100 100 100 100 100 100 100 100 100 100 19 5 30 96 100 100 47 56 100 100 100 100 100 100 100 100 100 100 100 100 100 86 100 40 5 5 63 96 84 5 2 0 0 0 0 1 0
100 90 97 100 100 100 100 100 100 99 100 16 25 100 100 100 34 80 100 100 100 100 100 100 100 100 100 99 100 87 60 13 71 96 59 19 90 98 13 3 0 1 0 0 0 7 0
67 83 100 100 100 100 100 100 100 100 100 97 4 100 100 100 90 31 5 5 100 100 100 100 100 100 100 100 99 90 83 100 68 79 100 100 63 9 15 5 5 0 0 0 4 3 0
100 100 100 100 100 100 100 100 100 100 88 66 4 100 96 100 99 98 13 5 100 100 100 100 100 100 100 26 30 91 100 94 100 100 100 100 94 10 52 2 5 2 0 0 0 0 0
100 100 100 100 100 100 100 100 100 100 76 98 8 76 86 100 95 100 98 89 89 100 100 100 100 100 100 100 90 69 100 79 100 100 100 100 100 94 26 5 4 98 5 0 0 4 5

GFSGBSN_prec_cloud_039.txt.gz
Cloud_Cover
100 100 100 71 44 100 100 53 100 100 100 100 100 100 100 100 100 100 100 100 100 100 100 100 30 67 98 99 100 30 7 5 0 0 0 0 0 0 0 1 12 39 52 58 100 100 99
100 100 100 100 92 43 68 100 38 57 100 100 100 100 100 100 100 100 100 100 100 100 100 79 81 97 86 76 100 5 5 5 0 0 0 0 0 0 0 3 2 61 57 57 100 100 100
100 100 100 100 80 100 96 43 100 100 22 100 100 100 100 100 100 100 100 100 100 100 100 25 100 96 100 100 100 12 12 17 0 0 0 0 0 0 0 0 6 5 58 80 97 100 100
94 100 100 100 100 100 100 100 99 100 80 92 100 100 100 100 100 100 100 100 100 100 100 100 100 100 69 67 100 100 37 5 2 0 0 0 0 0 0 0 5 42 93 100 100 100 95
99 73 100 100 100 100 100 100 100 97 100 33 88 64 100 99 100 100 99 100 100 100 100 100 100 100 72 65 100 55 5 5 0 0 0 0 0 0 0 0 1 75 97 100 81 100 100
100 100 100 100 100 100 100 100 100 100 100 92 100 84 60 76 100 100 100 100 100 100 100 100 100 100 94 65 99 96 10 5 0 0 0 0 0 0 0 1 3 5 53 48 87 98 100
100 100 100 100 100 100 100 100 100 100 100 100 100 100 100 100 99 100 100 100 100 100 100 100 100 100 100 78 90 100 85 28 4 1 0 0 0 0 0 1 4 5 30 63 47 6 96
98 76 94 100 100 100 100 100 100 100 100 100 100 100 100 100 100 100 100 100 100 100 100 100 100 100 100 89 20 100 100 100 8 5 0 0 0 0 0 0 3 5 6 98 73 96 99
98 100 100 58 100 100 100 100 100 100 100 100 100 100 80 87 99 100 88 100 100 100 100 100 100 100 100 98 31 100 93 100 84 2 0 0 0 0 0 0 1 5 33 86 100 100 100
86 10 5 50 99 75 42 79 100 100 100 100 100 100 35 100 100 100 93 100 99 100 94 100 100 100 100 98 54 80 93 100 31 0 0 0 0 0 3 1 5 5 7 6 34 99 100
100 100 100 10 14 5 13 4 92 100 100 100 100 100 97 100 57 100 92 99 100 100 99 100 100 100 100 52 13 100 100 100 82 0 0 0 0 0 0 4 5 36 12 99 100 95 100
100 100 100 100 28 21 7 5 3 100 100 100 100 100 15 56 100 99 51 87 51 69 99 100 100 100 99 66 36 90 100 100 54 4 3 0 0 0 0 4 5 5 5 7 80 97 88
100 100 100 100 100 100 90 14 5 25 100 100 100 100 89 10 51 14 88 100 92 100 100 100 100 100 100 29 100 100 100 100 7 5 5 0 0 0 0 3 2 3 0 5 18 92 100
100 100 100 99 100 100 100 99 5 0 79 100 100 100 99 10 100 1 33 100 92 100 100 100 100 100 100 93 18 100 100 100 79 5 3 0 0 0 0 0 1 0 0 3 13 100 100
100 100 100 93 100 100 100 100 97 4 1 99 100 100 100 0 100 100 91 100 29 100 100 100 100 100 100 97 65 100 100 98 65 5 5 0 0 0 0 0 2 2 1 0 5 48 100
100 98 100 99 89 100 100 100 100 26 0 51 100 100 100 12 100 100 100 82 6 100 100 100 94 100 100 100 73 100 100 49 27 5 5 0 0 5 5 82 21 9 5 3 2 5 58
100 100 100 100 100 86 100 100 100 58 2 94 100 100 100 17 98 100 97 52 5 100 100 100 98 100 100 86 100 96 100 43 5 8 2 0 3 5 5 32 100 72 6 8 5 1 92
100 100 100 100 100 100 100 100 100 97 5 69 100 100 76 5 100 100 100 39 6 87 100 100 100 100 100 100 65 98 100 29 5 59 3 0 1 5 0 8 78 5 5 5 5 1 6
8 98 100 100 100 100 100 100 100 100 72 100 100 80 100 4 99 75 16 82 5 52 100 98 100 100 100 100 88 72 100 51 85 5 3 5 15 2 2 5 4 5 0 0 0 0 5
51 6 61 100 100 100 100 100 100 100 100 98 100 100 100 91 3 1 56 60 99 38 100 100 100 100 100 100 100 91 100 100 100 8 5 5 5 5 2 0 2 2 0 0 0 0 1
98 100 12 66 98 100 100 100 100 100 100 100 100 100 31 100 99 5 2 2 6 86 60 46 100 100 100 100 100 100 100 100 100 72 5 20 88 5 5 0 2 0 0 0 1 5 2
100 100 44 100 100 100 100 100 100 100 100 100 100 75 4 99 36 96 96 5 5 100 18 2 100 100 100 100 100 100 100 100 98 16 5 100 100 10 5 2 1 0 0 5 1 0 5
100 100 85 100 100 100 100 100 100 100 100 100 98 15 4 5 98 100 22 12 5 100 100 11 100 100 100 100 100 100 100 100 100 36 80 98 91 7 5 1 1 0 0 0 0 0 0
100 100 93 100 74 99 100 100 100 100 60 99 73 5 12 15 98 62 44 96 72 100 100 100 100 100 100 100 100 100 100 100 76 79 12 76 89 9 7 0 51 0 0 0 0 0 0
100 100 56 100 25 100 100 100 100 100 100 100 14 5 7 90 9 15 98 7 100 100 100 100 100 100 100 100 100 100 100 54 55 45 12 100 100 14 3 1 33 8 0 0 4 29 0
100 99 100 100 10 100 100 100 100 100 100 100 100 54 7 30 47 5 9 82 18 100 100 100 100 100 100 100 100 97 84 98 100 100 100 99 20 5 20 12 81 68 5 0 3 11 0
100 97 99 19 100 100 100 100 100 100 100 100 100 57 90 99 96 45 13 64 60 100 100 100 81 100 100 100 100 100 100 92 100 100 100 100 98 62 5 78 100 100 31 0 0 4 3
100 100 61 77 100 100 100 100 100 100 100 100 68 92 46 100 44 100 91 77 6 100 100 100 100 100 100 54 47 5 60 88 76 100 100 100 100 97 60 100 100 95 5 2 0 0 5
100 100 100 100 100 100 100 100 100 100 100 100 100 66 6 43 100 100 100 23 85 99 100 100 100 100 100 100 100 87 65 100 72 100 100 100 100 100 96 5 48 100 28 5 1 0 0

GFSGBSN_prec_cloud_042.txt.gz
Cloud_Cover
100 100 100 100 100 100 97 92 100 13 0 0 2 76 100 100 100 99 100 100 100 100 100 100 100 100 100 19 14 7 81 11 5 0 0 0 0 0 0 0 0 3 1 3 78 100 92
100 100 100 100 100 100 100 100 100 100 89 6 2 6 78 100 100 100 100 100 100 100 100 100 100 100 12 6 8 80 44 5 5 5 0 0 0 0 0 0 0 0 93 50 96 69 100
100 100 90 100 100 100 100 100 100 100 100 100 44 26 6 100 100 100 100 100 100 100 100 100 100 99 68 65 100 96 27 5 5 2 0 0 0 0 0 0 0 2 44 93 100 100 89
100 100 94 100 100 100 100 100 98 100 100 100 100 22 5 5 100 97 100 100 100 100 100 100 86 75 28 48 100 76 66 5 5 2 0 0 0 0 0 0 0 1 10 98 100 99 33
100 100 100 100 100 100 100 100 100 98 100 100 100 98 9 20 100 97 58 70 100 100 100 100 100 100 81 100 26 5 5 5 5 5 5 0 0 0 0 0 0 5 100 82 84 94 90
100 100 100 100 100 100 100 100 100 100 100 100 81 97 96 21 92 98 58 89 74 41 99 100 98 77 92 100 79 91 5 7 92 87 5 5 0 0 0 0 17 100 91 76 62 99 100
80 100 100 100 100 100 51 100 100 100 100 100 100 59 100 38 21 93 100 100 100 90 78 100 100 100 100 100 100 100 38 4 48 100 45 5 0 0 0 0 0 1 54 100 99 66 100
90 90 73 19 98 100 100 100 100 100 100 100 100 100 100 28 96 96 100 100 100 100 100 98 100 100 90 100 100 100 10 4 8 100 100 5 0 0 0 0 0 0 4 7 19 28 33
100 98 100 100 100 98 88 100 100 100 100 100 100 100 100 99 96 100 100 100 100 100 100 100 100 100 100 100 100 100 19 5 8 100 100 19 0 0 0 0 0 1 7 26 79 100 79
100 100 100 100 100 100 89 100 73 64 100 100 100 100 100 100 100 100 100 100 100 100 100 99 81 100 100 100 100 100 78 5 9 100 100 64 0 0 0 0 0 66 6 5 46 82 100
5 5 56 98 100 100 100 100 100 100 94 100 100 100 100 100 100 100 100 100 8 27 92 100 27 100 100 100 100 100 89 0 10 100 100 62 2 0 0 0 0 60 13 60 5 57 100
5 6 43 98 100 100 100 88 5 5 64 33 100 100 100 100 100 100 100 100 100 86 16 100 66 71 82 100 100 100 6 5 6 100 100 62 5 0 0 1 5 5 32 70 5 30 89
46 5 6 81 100 99 99 100 63 8 5 2 64 100 100 100 100 100 100 100 39 46 33 87 97 31 50 100 100 100 91 12 5 98 100 62 5 4 0 0 4 5 11 97 99 86 56
100 80 91 11 88 98 100 100 100 98 17 5 26 100 100 98 94 89 98 71 0 9 97 5 68 77 100 100 100 100 100 5 91 100 100 62 5 5 0 0 10 1 21 100 95 65 94
100 100 100 100 33 56 91 100 100 100 100 63 7 100 99 100 90 98 100 68 0 2 29 32 84 100 100 100 100 100 100 57 18 100 100 63 5 5 0 0 2 15 6 38 7 5 5
78 100 100 100 100 100 94 100 100 100 100 100 5 96 98 88 64 100 100 4 0 2 5 5 60 38 100 100 100 100 100 36 93 93 100 59 17 5 0 0 1 12 26 37 30 92 33
100 87 100 100 100 100 100 90 100 100 100 100 54 100 100 62 47 100 99 2 0 2 5 5 100 18 100 100 100 100 100 96 54 89 18 5 5 36 0 1 26 4 5 6 29 30 100
6 53 92 100 100 100 100 100 100 100 100 100 45 100 92 100 98 100 100 0 0 2 4 7 100 32 100 100 100 100 100 100 92 86 6 0 5 6 2 11 7 10 88 6 5 57 2
28 11 68 91 100 100 100 100 100 100 100 100 90 100 100 100 89 100 11 7 4 5 2 5 100 39 94 100 100 100 100 100 100 55 63 3 5 38 5 3 5 5 0 3 5 4 0
100 98 93 100 100 84 100 100 100 100 100 100 99 100 100 100 9 1 4 67 23 5 0 5 13 97 93 100 100 100 100 100 100 99 100 5 5 5 4 4 15 5 0 5 5 0 0
75 99 100 100 49 50 26 100 100 100 100 100 100 100 97 99 76 0 4 5 48 76 5 5 5 28 29 98 100 100 100 100 100 100 88 6 100 11 3 21 9 5 3 1 1 0 1
100 100 98 100 100 65 89 100 100 100 100 100 100 66 90 5 5 6 0 5 18 82 5 0 5 71 100 100 100 100 100 100 100 100 100 100 100 25 5 25 5 60 1 4 3 1 0
100 100 85 99 82 67 99 100 100 100 100 100 100 53 91 15 16 30 65 2 11 100 22 2 96 100 100 100 100 100 100 100 100 100 100 100 100 85 60 5 5 100 4 0 0 5 0
100 100 100 100 100 100 100 100 100 100 100 100 99 33 100 86 66 10 10 5 5 49 100 90 58 100 100 100 100 100 100 100 100 100 98 100 100 60 17 6 54 49 40 2 5 0 4
5 25 95 100 100 100 100 100 100 100 100 100 89 37 72 100 21 29 67 58 15 44 100 100 100 100 100 100 100 100 100 100 100 100 100 100 100 90 48 88 100 99 55 4 5 1 5
100 95 89 100 100 100 100 5 92 100 100 100 98 100 100 98 30 94 92 100 94 6 61 83 100 100 98 100 100 100 100 98 100 100 100 100 100 69 82 100 100 100 18 5 3 6 0
100 100 100 100 100 100 95 22 100 100 100 100 100 100 100 99 100 90 44 47 100 94 5 100 100 100 100 100 100 100 100 100 100 100 100 100 100 100 100 100 100 100 100 27 5 1 0
68 87 100 100 100 100 32 100 100 100 100 100 100 100 100 100 100 23 20 100 100 100 37 14 100 99 100 100 100 99 100 100 100 100 100 100 100 100 100 100 100 100 95 61 10 0 5
100 97 100 100 100 100 100 100 100 100 100 100 100 100 100 100 91 72 94 97 100 84 6 26 19 100 100 100 100 37 74 100 100 100 100 100 100 100 100 100 100 100 100 100 5 5 5

GFSGBSN_prec_cloud_048.txt.gz
Cloud_Cover
100 100 100 100 98 97 99 61 62 76 95 22 100 84 55 90 11 5 5 5 0 0 2 100 100 100 21 35 18 99 41 100 100 28 88 100 44 0 0 96 9 40 12 3 10 0 0
100 100 100 100 100 100 100 100 100 100 99 100 100 100 100 6 80 64 31 4 4 0 8 32 100 85 76 13 60 100 82 100 97 28 99 14 0 1 49 4 3 65 6 2 28 24 74
100 100 100 100 100 100 100 100 100 100 100 100 100 100 98 97 79 9 7 12 5 4 11 85 100 100 49 94 82 100 69 14 15 5 3 3 0 60 90 6 62 5 0 3 79 4 100
100 100 100 100 100 100 100 100 100 100 100 100 100 100 100 100 100 93 5 90 95 2 32 36 100 100 100 100 100 77 96 16 82 41 19 5 0 0 5 100 0 0 2 11 92 16 100
100 100 100 100 100 100 100 100 100 100 100 100 100 100 100 100 100 100 46 89 51 26 82 7 90 100 100 100 36 99 100 100 100 100 100 58 0 0 22 77 3 7 1 14 10 4 44
100 100 100 100 100 100 100 100 100 100 100 100 100 100 100 100 100 100 50 49 17 43 11 5 29 92 100 77 67 59 100 100 100 100 100 8 3 0 20 100 26 100 100 96 16 62 6
100 100 100 100 100 100 100 100 100 100 100 100 100 100 100 100 100 100 100 8 32 100 12 5 30 8 61 72 16 100 100 100 100 100 69 5 0 0 19 100 24 95 37 92 100 24 6
100 100 100 100 100 100 100 100 100 100 100 100 100 100 100 100 100 100 99 83 11 61 55 16 60 41 59 34 26 57 100 100 70 100 100 100 6 3 22 100 30 3 2 74 100 92 5
100 100 100 100 100 100 100 100 100 100 100 100 100 100 100 100 100 100 100 94 34 78 95 55 84 14 20 100 100 100 100 100 100 100 100 75 58 98 41 99 46 2 2 88 6 41 0
100 100 100 100 100 100 100 100 100 100 100 100 99 100 100 100 100 100 100 100 91 19 21 100 8 65 24 100 100 100 100 94 91 100 100 100 50 86 5 31 100 46 44 90 32 19 23
100 100 100 100 100 100 100 100 100 100 100 100 100 100 100 100 99 100 100 100 100 90 6 6 8 100 14 81 100 100 100 95 74 70 89 100 48 5 5 8 100 9 74 66 13 2 29
100 84 100 100 100 100 100 100 100 100 100 100 100 100 100 100 100 100 100 100 100 100 11 80 45 100 43 100 100 100 100 100 100 88 14 100 73 75 30 5 62 100 10 5 3 2 3
39 87 22 26 100 100 100 100 100 100 100 100 100 98 49 100 100 100 100 100 100 53 5 96 76 100 100 100 100 100 100 100 100 56 86 100 15 85 66 5 41 76 5 12 91 50 0
100 100 100 96 22 8 92 73 100 100 100 100 100 100 95 100 100 100 100 100 52 12 70 31 69 100 100 100 100 100 100 100 100 100 100 100 90 100 18 42 48 79 11 40 89 84 97
100 100 100 95 100 67 5 11 28 100 100 100 100 100 100 100 100 100 100 100 0 7 99 100 100 80 100 100 100 100 100 100 100 100 100 100 100 76 100 100 63 98 42 12 100 41 90
100 100 100 100 100 98 22 5 37 100 100 100 98 100 96 92 98 100 100 100 57 48 90 100 100 92 100 98 100 100 100 100 100 100 100 99 100 90 100 100 100 100 79 23 78 58 33
100 100 100 100 100 100 100 100 92 100 100 100 100 100 83 95 71 100 100 100 100 100 100 100 100 100 100 100 100 100 100 100 100 100 100 100 100 100 100 100 100 100 47 5 46 28 10
100 100 100 100 100 100 100 100 100 100 100 100 100 100 78 92 99 100 74 3 80 85 45 7 9 100 99 100 100 100 100 100 100 100 100 100 100 100 100 100 92 54 71 19 6 47 95
100 100 100 100 100 100 100 85 95 100 100 100 100 100 100 100 89 100 43 3 3 0 0 0 1 1 67 100 100 100 100 100 100 100 100 100 100 100 99 100 100 100 98 6 5 5 5
100 82 98 100 100 73 71 27 100 100 100 100 100 100 100 100 16 37 8 1 0 2 1 0 0 0 20 98 100 100 100 100 100 100 100 100 100 76 100 100 100 98 100 98 59 92 62
93 100 100 100 94 84 100 99 100 100 100 100 100 99 51 100 90 5 88 2 5 5 6 0 5 0 10 25 100 100 100 100 100 100 100 100 75 100 100 100 100 100 100 100 100 65 24
100 100 84 11 100 100 100 100 100 100 100 100 100 74 63 59 98 81 84 5 10 5 4 0 0 0 3 96 100 100 100 100 97 100 100 100 68 100 100 100 100 100 100 100 100 6 61
100 99 100 98 76 100 100 100 100 100 100 100 100 83 100 16 92 82 22 1 5 16 57 0 0 4 10 1 6 96 73 98 100 99 100 89 10 99 92 100 100 100 100 100 100 100 100
6 23 5 5 23 83 100 100 100 100 100 100 100 84 100 99 35 42 4 5 7 100 30 8 88 1 3 0 90 80 100 88 86 100 83 66 80 100 98 100 100 100 100 96 88 35 100
91 100 99 71 91 91 100 98 75 100 100 100 100 100 100 100 27 32 35 58 73 73 96 12 87 0 0 95 74 100 100 100 100 100 98 100 100 51 100 100 100 100 100 100 92 100 100
86 99 100 100 100 96 100 100 16 5 100 100 100 100 100 100 91 44 100 100 88 100 100 0 4 59 82 82 100 100 100 100 100 92 100 100 93 85 100 100 100 100 100 100 100 100 100
32 20 39 94 100 100 100 100 78 58 87 100 100 100 100 100 100 100 100 100 100 100 53 38 5 97 84 48 99 100 100 100 98 80 100 100 100 85 100 100 100 100 100 100 100 100 100
5 5 5 5 78 100 100 100 100 82 100 100 100 100 100 100 100 87 100 100 98 100 27 33 100 64 100 100 69 100 100 93 96 86 28 100 100 100 99 100 98 100 100 100 100 100 97
93 100 29 73 85 100 100 100 100 100 100 100 100 100 100 100 100 56 99 100 100 100 100 100 72 24 63 100 89 100 100 72 35 74 65 99 100 93 100 25 70 100 100 100 100 100 86

GFSGBSN_prec_cloud_051.txt.gz
Cloud_Cover
100 100 100 100 100 100 98 100 100 100 100 100 100 100 99 8 20 5 21 20 6 5 5 5 55 11 12 100 5 81 5 99 67 87 100 95 3 0 0 3 0 7 41 5 5 0 46
100 100 100 100 100 100 100 100 100 100 100 100 100 100 100 100 100 74 62 8 5 5 5 1 84 35 4 85 38 43 5 100 96 94 6 1 0 0 0 0 18 14 5 2 17 22 95
100 100 100 100 100 100 100 100 100 100 100 100 100 100 100 100 100 92 95 48 25 61 94 4 100 73 20 5 97 100 100 8 88 8 2 5 4 5 0 0 18 52 0 0 1 97 10
89 100 100 100 100 100 100 100 100 100 100 100 100 100 100 100 100 100 83 96 100 100 100 95 98 47 28 5 100 100 52 59 78 62 89 39 94 60 0 0 67 100 0 0 3 46 17
100 100 100 100 100 100 100 100 100 100 100 100 100 100 100 100 100 100 100 100 100 100 100 100 60 7 5 1 88 100 100 18 100 78 85 24 100 0 0 0 80 92 1 5 81 78 79
100 100 100 100 100 100 100 100 100 100 100 100 100 100 100 100 100 100 100 100 100 100 100 100 62 47 6 0 4 100 100 97 71 100 100 62 95 71 65 0 91 61 43 80 85 100 95
100 100 100 100 100 100 100 100 100 100 100 100 100 100 100 100 100 100 100 93 100 100 100 100 100 5 5 5 0 95 100 95 68 100 89 100 93 90 5 1 98 99 46 86 97 100 100
100 100 100 100 100 100 100 100 100 100 100 100 100 100 100 100 100 100 100 100 99 100 100 87 39 92 5 5 4 5 52 34 18 95 100 100 58 72 89 1 54 98 94 8 97 41 42
100 100 100 100 100 100 100 100 100 100 100 100 100 100 100 100 100 100 100 100 63 100 100 86 80 50 8 8 57 5 40 60 100 100 100 52 95 93 58 4 31 5 7 59 50 71 100
100 100 100 100 100 100 100 100 100 100 100 100 100 100 100 100 100 100 100 100 100 100 100 100 67 17 5 5 53 30 92 81 100 100 100 94 28 83 100 61 6 5 6 29 6 3 55
94 97 100 100 100 100 100 100 100 100 100 100 100 100 100 100 100 100 100 100 100 100 99 100 35 56 6 23 96 5 4 35 100 100 100 100 42 96 100 54 9 8 12 86 5 5 0
5 27 100 100 100 100 100 100 100 100 100 100 100 100 100 100 100 100 100 100 100 100 100 100 100 100 100 84 99 7 3 32 100 100 100 100 54 62 81 41 6 48 75 22 5 8 5
42 65 92 100 100 100 100 100 100 100 100 100 100 100 100 100 100 100 100 69 89 97 100 100 100 100 100 99 99 60 7 48 100 100 100 100 100 100 100 100 42 53 97 23 5 6 5
79 25 76 100 100 100 100 100 100 100 100 100 100 100 100 100 100 100 100 100 96 54 76 73 100 100 100 100 100 98 100 49 100 100 100 100 100 100 99 100 84 99 100 89 5 16 5
9 66 63 100 100 100 100 100 100 100 100 100 100 100 100 100 100 100 100 100 97 63 100 63 54 100 100 100 100 100 35 96 100 100 100 100 100 100 95 100 100 97 95 38 40 44 10
100 100 100 100 100 100 100 100 100 100 100 100 100 100 100 100 100 100 100 100 100 100 100 100 72 68 100 100 100 100 24 45 100 100 100 100 100 100 100 88 99 100 100 100 100 99 52
100 100 100 100 100 100 100 100 100 100 100 100 100 100 100 100 100 100 100 100 100 100 100 100 100 73 100 100 100 100 100 27 29 100 100 100 95 100 100 100 100 100 100 100 89 100 59
100 100 100 100 100 100 100 100 100 100 100 100 100 100 59 100 100 100 100 90 98 100 100 100 100 35 100 100 100 100 100 100 95 56 90 100 100 100 100 100 100 100 100 100 100 20 96
100 100 100 100 100 100 100 100 100 100 100 100 100 100 100 95 98 100 50 37 41 47 86 99 20 92 100 90 90 100 100 100 100 100 100 100 90 87 99 100 100 100 100 100 100 55 96
100 100 100 100 100 100 100 100 100 100 100 100 100 100 100 100 7 5 95 67 52 24 0 4 90 98 80 98 20 18 88 100 100 100 100 100 100 100 100 100 100 100 100 100 100 77 100
100 100 100 100 100 100 100 100 100 100 100 100 100 100 65 98 100 92 42 5 19 58 6 1 0 86 61 97 100 74 97 100 90 100 100 100 100 100 100 100 100 100 100 100 100 76 100
100 100 100 100 96 100 100 100 100 100 100 100 100 100 91 6 100 100 98 15 5 0 1 0 0 0 5 0 33 100 100 100 100 96 100 100 100 100 100 100 100 100 100 99 100 100 100
100 100 100 100 100 100 100 100 100 100 100 100 100 97 100 100 100 100 71 5 5 9 0 64 2 0 0 0 0 3 36 99 100 100 82 100 100 100 100 100 100 62 87 100 100 100 100
100 99 89 100 100 100 100 100 100 100 100 100 100 100 100 100 34 34 13 68 5 22 3 1 9 0 0 2 4 5 55 5 92 100 100 94 94 100 100 100 84 27 97 100 100 100 100
100 80 77 60 86 100 100 100 100 100 100 100 100 100 100 87 48 6 5 5 5 5 17 5 0 0 0 3 88 5 3 91 64 100 100 100 92 100 93 100 93 43 99 100 100 100 100
100 100 100 100 100 86 99 7 50 100 100 100 100 100 100 100 81 40 77 5 36 9 5 0 0 1 3 0 42 4 14 8 100 91 98 100 100 99 77 71 20 100 100 100 100 100 100
99 100 100 100 100 94 100 100 66 30 70 100 100 100 100 100 100 82 26 5 100 8 5 0 0 5 51 43 14 45 5 34 100 100 100 87 100 100 92 31 44 55 100 100 100 99 100
93 71 54 8 56 100 100 100 100 99 62 100 100 100 100 100 100 100 71 64 13 65 5 13 92 67 25 0 4 10 12 2 91 100 100 100 100 100 100 79 39 5 96 98 92 100 100
18 11 5 5 33 6 19 100 100 100 100 100 100 100 100 100 100 100 100 100 93 100 99 62 25 99 38 2 42 5 7 5 29 100 100 100 100 100 66 6 11 98 95 100 100 100 100

GFSGBSN_prec_cloud_054.txt.gz
Cloud_Cover
30 12 17 46 73 99 100 100 100 100 99 99 100 100 100 100 100 100 87 53 97 5 12 2 30 100 24 21 0 3 0 0 0 1 46 100 51 7 4 0 0 0 66 8 96 2 2
1 4 4 9 5 32 91 100 100 100 100 100 100 100 100 100 100 100 84 60 100 5 20 5 12 100 27 32 2 1 0 4 2 5 23 70 1 3 5 5 0 0 100 0 0 2 4
0 22 5 5 5 5 100 100 100 100 100 100 100 100 100 100 100 100 100 100 100 87 13 10 7 100 100 3 23 0 0 4 5 5 31 5 1 42 100 7 0 8 91 0 5 2 5
15 18 22 26 93 25 8 100 100 100 100 100 100 100 100 100 100 100 100 100 100 100 98 46 22 100 100 34 91 1 0 9 75 5 18 6 52 97 85 4 0 60 9 5 65 5 5
73 100 100 99 100 100 100 98 100 100 100 100 100 100 100 100 100 100 100 100 64 100 100 100 98 98 100 100 100 36 5 5 100 85 40 80 100 79 100 40 0 4 5 3 4 4 2
100 100 100 92 100 100 100 100 100 100 100 100 100 100 100 100 100 100 100 100 97 100 91 100 100 97 100 100 100 100 5 5 11 100 72 91 100 53 100 6 0 5 1 5 3 17 6
100 100 100 100 100 100 100 100 100 100 100 100 100 100 100 100 100 100 100 100 92 99 100 100 100 100 100 100 100 100 46 13 39 70 97 97 97 100 83 1 1 0 0 0 3 73 8
100 100 90 100 100 100 100 100 100 100 100 100 100 100 100 100 100 100 100 100 7 51 100 100 100 100 100 100 100 100 7 12 56 16 100 76 100 91 44 5 4 0 5 4 7 92 91
100 100 100 96 100 100 100 100 100 100 100 100 100 100 100 100 100 100 100 100 39 85 98 100 100 100 100 62 100 16 3 5 19 76 83 93 93 92 5 88 100 1 5 4 10 76 96
100 98 49 70 94 100 100 100 100 100 100 100 100 100 100 100 100 100 100 100 100 94 94 100 93 100 100 100 97 62 5 4 5 52 91 100 100 100 83 54 93 32 5 5 5 51 79
100 73 6 65 71 47 100 100 100 100 100 100 100 100 100 100 100 100 98 100 100 100 100 100 100 48 96 100 100 100 38 3 5 3 100 100 100 100 100 78 29 52 7 37 5 27 9
12 5 5 72 100 100 100 100 100 100 100 100 100 100 100 100 100 55 100 100 100 100 100 100 100 100 100 100 100 79 49 4 5 2 61 100 100 100 100 92 76 63 99 88 5 5 5
6 5 5 24 100 92 100 100 100 100 100 100 100 100 100 100 100 100 100 100 100 100 100 100 100 100 100 100 100 100 16 28 5 6 5 90 100 87 100 100 82 99 100 94 56 99 8
5 10 98 12 15 100 100 100 79 100 100 100 100 100 100 100 100 100 100 100 100 100 100 100 100 100 100 100 100 100 100 95 57 43 5 5 46 100 100 87 93 100 31 100 23 100 5
5 6 34 5 62 100 99 100 100 22 100 100 100 100 100 100 100 100 100 100 100 100 94 100 100 100 100 100 100 100 100 100 86 19 73 11 62 99 98 100 100 100 75 66 13 100 100
5 5 54 5 100 100 100 100 100 58 100 100 100 100 100 100 100 100 100 100 100 100 94 100 85 100 100 100 100 100 100 100 100 65 92 98 7 66 100 100 100 100 46 5 96 100 78
5 9 5 28 100 100 100 100 100 100 100 100 100 100 100 100 100 100 100 100 100 100 100 100 100 98 24 89 100 100 100 100 100 100 96 100 73 100 100 96 90 100 100 98 82 100 100
87 27 100 100 100 100 100 100 100 100 100 100 100 100 67 96 100 100 100 100 100 100 100 100 100 100 100 100 83 93 100 100 100 100 100 100 100 100 100 100 94 56 56 32 7 98 100
16 100 100 100 100 100 100 100 100 100 100 100 100 100 100 84 100 100 100 100 100 100 100 100 100 100 100 100 100 100 71 100 96 100 100 100 60 100 100 100 100 100 100 100 99 9 35
100 100 100 100 100 100 100 100 100 100 100 100 100 100 100 100 26 46 100 84 100 100 100 100 100 93 100 100 100 81 67 92 100 100 100 100 100 62 100 100 100 100 100 100 71 6 77
100 100 100 100 100 100 100 100 100 100 100 100 100 100 72 100 100 98 51 38 61 100 61 90 100 100 100 100 100 100 100 92 100 100 100 100 100 99 100 100 100 100 100 100 99 65 45
100 100 100 100 100 100 100 100 100 100 100 100 100 100 100 67 100 100 100 54 62 99 81 5 3 72 100 100 27 98 100 100 100 100 100 100 100 100 100 100 100 100 100 100 100 100 100
100 100 100 100 100 100 100 100 100 100 100 100 100 100 100 99 98 99 97 100 100 98 72 3 0 0 0 8 100 87 69 100 100 100 100 100 100 100 100 100 100 100 100 100 100 100 100
100 100 100 100 100 100 100 100 100 100 100 100 100 100 100 100 29 83 87 100 97 37 46 0 3 2 2 0 0 1 5 12 13 91 100 100 100 100 100 100 100 96 100 100 100 100 100
100 100 100 100 100 100 100 100 100 100 100 100 100 100 100 100 56 39 52 22 100 50 5 5 3 6 20 3 3 0 2 0 0 3 5 100 100 100 99 96 100 100 100 100 100 100 100
95 96 67 24 99 100 100 100 100 100 100 100 100 100 100 100 26 88 23 47 44 26 5 5 18 94 66 5 5 1 5 0 0 0 0 8 100 100 100 100 42 100 100 100 100 100 100
70 71 58 83 98 95 100 100 100 100 100 100 100 100 100 100 10 88 70 41 37 96 100 100 100 21 5 5 5 4 0 0 0 9 55 66 100 100 100 100 66 31 100 100 100 98 100
100 100 100 100 100 100 100 100 100 100 100 100 100 100 100 100 100 98 99 80 72 7 12 88 100 17 6 5 5 1 1 0 0 0 2 23 97 100 100 100 100 89 99 100 92 97 100
28 100 92 99 85 47 61 95 100 100 100 100 100 100 100 100 100 100 82 100 100 100 100 100 100 100 18 5 4 0 0 0 0 0 0 4 63 100 100 100 100 100 100 100 85 60 100

GFSGBSN_prec_cloud_057.txt.gz
Cloud_Cover
62 92 97 100 100 98 33 3 2 5 5 96 85 100 100 100 100 100 100 99 18 46 100 5 5 5 66 98 29 4 5 0 0 0 2 4 28 100 13 4 5 3 0 44 0 0 0
100 98 10 0 0 3 27 19 32 0 0 6 100 100 100 100 100 100 100 100 84 5 18 13 5 37 77 93 0 10 5 1 0 0 4 17 8 36 3 1 11 0 14 22 0 0 0
100 97 0 0 0 0 0 0 0 0 0 0 18 100 100 100 100 100 100 100 98 55 68 5 5 71 67 44 0 89 2 5 0 0 5 5 10 5 5 90 52 1 0 0 3 2 0
100 100 100 57 32 0 1 2 5 0 1 0 5 100 100 100 100 100 100 100 97 24 13 5 5 78 100 22 3 5 9 5 0 0 3 5 87 13 98 58 97 4 0 0 3 5 2
100 100 100 100 12 9 23 12 6 71 71 90 5 100 100 100 100 100 100 100 100 81 83 5 91 100 100 100 5 98 14 4 99 8 1 5 94 38 32 11 34 12 2 1 5 5 1
100 100 100 100 100 7 39 94 95 95 100 100 58 92 100 100 100 100 100 100 93 39 70 55 77 100 100 100 22 40 6 4 100 100 0 5 100 37 100 92 13 5 2 0 1 1 0
100 100 100 100 100 5 87 78 92 100 100 100 100 100 100 100 100 100 100 100 80 6 35 75 100 100 100 100 96 5 16 5 100 100 77 84 96 53 100 90 7 5 0 5 5 0 0
100 100 100 100 100 57 5 99 100 100 100 100 100 100 100 100 100 100 100 100 100 93 95 100 99 100 100 97 96 100 100 100 100 100 100 6 6 90 100 71 38 5 5 5 29 16 0
100 100 100 100 100 5 5 5 73 96 100 100 100 100 100 100 100 100 100 100 100 100 100 100 97 100 100 100 100 100 100 100 100 100 55 5 11 99 81 13 58 6 5 18 5 50 5
100 100 100 89 53 100 22 4 12 98 100 100 100 100 100 100 100 100 100 100 100 100 100 100 63 100 100 100 100 100 100 100 100 100 3 38 5 98 25 93 77 11 5 5 5 5 5
100 99 100 100 96 32 5 5 5 5 92 100 100 100 100 100 100 100 100 100 100 100 100 100 93 63 100 96 100 100 84 97 100 88 4 92 2 49 100 100 100 96 100 7 5 5 9
100 100 55 20 5 5 9 5 45 5 5 70 100 100 100 100 100 100 100 100 100 100 100 98 93 80 98 100 100 100 100 72 72 12 3 77 6 40 99 100 100 66 100 93 5 5 34
100 100 5 24 5 17 95 5 5 5 5 5 88 100 100 100 100 100 100 100 100 100 100 100 99 100 100 100 100 100 100 100 100 100 100 100 7 5 5 98 99 100 100 100 7 98 74
100 92 5 5 5 5 20 78 94 100 5 5 10 100 100 100 100 100 100 100 100 100 99 100 100 100 100 100 100 100 100 100 100 52 88 96 93 18 50 25 100 90 99 100 40 98 84
100 100 61 5 3 5 9 91 76 100 27 5 58 100 100 100 100 100 100 100 100 58 76 52 99 100 100 100 100 100 28 100 100 100 100 100 100 98 7 71 92 83 88 58 8 99 89
100 100 38 5 5 5 5 92 95 85 75 26 82 100 100 100 100 100 100 100 100 100 100 100 100 100 100 100 100 100 100 100 100 100 100 100 100 99 100 51 11 36 100 31 67 100 100
99 28 5 4 47 6 66 65 79 78 100 18 100 100 100 100 100 100 100 100 100 100 100 100 100 85 100 100 100 100 100 100 100 100 88 98 28 100 98 9 24 33 100 100 100 99 100
5 31 34 48 5 7 23 100 70 100 100 98 100 100 100 100 100 100 100 100 100 100 100 100 100 98 100 93 100 100 100 100 100 100 100 100 100 100 98 97 50 88 74 100 100 100 94
4 7 29 24 36 85 100 100 100 100 100 100 100 100 100 96 100 100 100 100 100 100 100 100 100 100 100 98 56 99 100 100 100 100 100 100 100 98 100 97 73 47 96 100 100 100 100
37 11 12 63 100 100 100 100 100 100 100 100 100 100 100 100 70 94 100 100 100 100 100 100 100 100 100 100 93 99 100 100 100 100 100 100 80 100 100 100 100 100 100 100 100 100 100
56 97 99 100 100 100 100 100 100 100 100 100 100 100 93 100 100 100 93 98 100 100 100 100 100 100 100 100 100 100 100 100 100 100 100 81 97 97 100 100 100 100 100 100 15 67 49
100 100 100 100 100 100 100 100 100 100 100 100 100 100 100 72 100 100 100 94 100 37 100 100 100 100 100 100 100 100 100 100 100 100 100 100 85 26 100 100 100 100 53 100 100 100 100
100 100 100 100 100 100 100 100 100 100 100 100 100 98 100 100 91 100 100 100 94 91 40 86 100 76 99 100 100 100 100 100 100 100 100 100 100 100 69 100 100 100 54 91 100 100 100
100 100 100 100 100 100 100 100 100 100 100 100 100 100 100 100 99 99 100 78 50 98 83 100 18 5 62 96 62 61 100 100 100 60 100 100 100 100 100 100 92 100 100 87 16 100 100
100 100 100 100 100 100 100 100 100 100 100 100 100 100 100 100 100 100 100 100 97 98 100 100 42 84 86 50 79 5 11 100 100 100 91 75 100 100 100 100 45 73 100 100 100 100 100
100 100 100 100 100 100 100 100 100 100 100 100 100 100 100 100 100 100 100 100 100 100 100 53 100 100 26 63 99 99 4 0 1 1 4 42 99 90 100 100 100 100 74 100 100 98 100
72 87 100 100 100 100 100 100 100 100 100 100 100 100 100 100 100 100 100 100 100 100 67 100 100 45 14 26 94 98 72 4 2 4 78 100 100 100 100 100 76 100 100 100 100 100 100
100 100 100 100 100 100 100 100 100 100 100 100 100 100 100 100 100 100 100 100 100 94 72 100 48 5 82 5 80 93 31 4 0 0 0 26 47 28 64 88 58 96 100 100 100 100 100
100 100 65 63 100 100 99 66 100 100 100 100 100 100 100 100 100 100 98 100 100 100 100 92 28 31 92 28 10 31 5 18 0 1 0 0 1 14 2 2 1 11 78 99 100 100 100

GFSGBSN_prec_cloud_060.txt.gz
Cloud_Cover
100 100 100 100 86 96 72 100 33 99 58 2 2 0 1 5 5 5 48 96 98 100 88 14 41 76 28 48 93 0 4 4 4 1 0 0 3 0 0 2 5 0 0 0 0 0 0
100 100 100 100 100 100 100 89 77 22 24 0 1 1 0 0 5 63 68 98 100 100 100 64 100 100 62 98 95 0 5 0 0 0 0 0 1 0 1 5 0 0 5 3 0 0 0
100 100 100 100 100 52 38 2 0 0 0 0 0 0 0 0 0 5 20 100 100 100 100 100 100 100 97 100 14 5 19 0 3 5 0 5 0 0 5 5 5 5 5 4 0 0 0
100 100 100 100 100 36 2 0 23 56 3 0 0 0 0 0 2 2 24 100 100 100 100 100 100 100 100 100 18 100 5 5 0 0 2 5 5 5 7 30 16 21 10 5 0 0 0
100 100 100 100 100 100 47 0 0 0 1 0 0 0 2 0 100 43 35 100 100 100 100 100 100 100 100 100 73 93 24 5 5 4 2 17 10 9 32 86 16 81 6 5 5 0 0
100 100 100 100 100 100 82 4 4 0 0 0 0 1 7 19 100 98 36 86 100 100 100 100 100 100 100 100 100 100 100 5 2 5 5 100 20 69 26 67 87 88 6 9 13 0 0
100 100 100 18 65 100 100 5 3 10 5 5 5 5 5 100 84 100 68 100 100 100 100 100 100 100 100 100 100 95 100 100 5 5 38 5 98 64 100 31 8 26 5 7 31 5 2
16 85 100 100 100 99 18 26 5 5 5 5 5 10 14 100 100 100 100 100 100 100 100 100 100 100 100 100 100 100 94 100 32 12 47 3 100 87 100 100 51 13 26 31 5 5 5
100 100 100 89 100 100 100 99 84 5 5 5 5 5 94 92 100 100 100 100 100 100 100 100 100 100 100 100 100 100 100 100 89 5 86 8 100 58 90 40 96 61 94 45 5 58 5
100 100 100 90 100 100 5 26 17 5 5 5 5 5 6 99 100 100 100 100 100 100 100 100 100 100 100 100 100 100 100 100 100 100 100 69 100 96 31 5 5 8 99 68 7 22 88
100 100 100 100 99 71 9 5 4 4 5 5 5 5 5 100 90 44 100 100 100 100 100 100 100 100 100 100 100 100 100 99 100 100 73 100 100 18 5 8 33 98 44 74 7 79 51
100 100 100 94 27 42 12 31 6 9 5 5 5 5 16 45 100 14 99 100 100 100 72 100 100 100 100 100 100 100 100 97 100 100 19 100 100 8 100 74 91 89 79 77 5 75 100
91 100 100 100 66 53 98 90 23 5 5 5 5 14 59 84 99 100 100 100 100 100 100 100 100 100 99 100 100 100 100 100 97 75 100 100 100 100 18 5 38 6 56 12 5 98 100
79 100 100 100 64 100 90 20 0 5 5 5 10 18 15 79 100 86 100 100 100 100 100 100 100 100 100 100 100 100 100 100 100 28 100 100 94 98 87 5 5 92 64 98 99 91 100
100 100 100 100 100 97 13 0 0 5 17 5 44 7 61 98 100 100 100 100 99 100 100 100 100 100 100 100 100 100 100 100 100 100 100 100 100 100 100 100 37 38 67 94 19 71 100
100 100 100 100 81 20 5 5 4 5 5 5 32 18 5 65 100 100 100 100 100 100 100 100 100 100 100 100 100 100 100 100 100 100 100 100 100 100 100 98 61 88 95 100 38 59 100
94 100 100 100 79 5 1 2 5 5 2 46 96 100 12 92 99 100 100 100 100 100 100 100 100 100 100 100 100 100 100 100 100 100 100 100 100 100 94 50 99 96 58 96 22 13 38
6 73 84 22 31 5 5 5 5 2 89 78 100 100 15 98 100 100 100 100 100 100 100 100 100 100 100 100 100 100 100 86 100 100 99 100 100 100 100 100 99 96 65 100 100 18 54
35 98 96 5 5 5 5 5 2 54 41 66 100 100 42 100 100 100 100 49 100 100 100 100 100 100 100 100 100 100 98 85 100 100 100 100 100 100 100 100 10 92 83 66 31 95 99
22 80 65 5 5 5 5 13 5 41 92 100 100 100 100 100 97 90 90 31 100 100 100 100 100 100 100 100 100 100 100 100 100 100 100 93 100 100 100 100 77 19 70 98 56 12 54
38 70 4 15 5 3 74 92 38 100 100 100 100 100 29 100 100 94 73 59 84 100 100 100 100 100 100 100 100 100 100 100 100 100 100 100 100 100 100 100 39 5 100 64 5 33 5
5 5 27 87 5 5 37 99 100 100 100 100 100 100 100 100 53 100 100 98 70 100 100 100 100 100 100 100 100 100 100 100 100 85 100 100 100 100 100 100 100 100 100 100 100 57 49
48 92 43 5 18 97 100 100 100 100 100 100 100 100 100 100 91 100 78 55 98 100 100 100 100 100 100 100 100 100 99 100 100 100 89 92 100 99 100 100 100 100 100 100 84 98 100
78 61 71 100 100 100 100 100 100 100 100 100 100 100 100 100 100 87 71 100 100 100 100 100 100 100 100 100 100 100 100 100 100 100 100 100 82 94 100 100 95 100 100 100 99 100 55
100 100 100 100 100 100 100 100 100 100 100 100 100 100 100 100 100 98 100 100 100 100 100 100 100 100 63 100 100 100 100 100 100 100 100 100 100 100 100 100 48 99 100 100 100 100 55
100 100 100 100 100 100 100 100 100 100 100 100 100 100 100 100 100 100 100 100 100 100 100 100 100 100 100 98 99 100 100 100 100 100 100 100 100 100 100 83 20 99 100 100 100 52 100
100 100 100 100 100 100 100 100 100 100 100 100 100 100 100 100 100 100 100 100 100 100 100 100 100 44 65 100 100 100 94 69 92 99 100 100 100 100 100 100 100 100 100 100 100 100 100
100 100 100 100 100 100 100 100 100 100 100 100 100 100 100 100 100 100 100 100 100 100 100 100 100 70 74 64 53 94 94 13 5 13 25 39 73 98 100 97 89 100 100 100 100 100 100
100 100 100 100 100 100 100 100 100 100 100 100 100 100 100 100 100 100 100 100 100 100 100 100 100 100 84 5 10 4 5 30 5 4 0 0 1 12 2 6 0 4 70 100 100 100 98

GFSGBSN_prec_cloud_063.txt.gz
Cloud_Cover
100 100 100 100 100 100 100 100 100 86 100 100 100 100 91 14 8 2 2 1 4 5 5 5 5 59 52 10 100 76 100 19 96 26 0 4 0 0 0 0 0 0 0 0 0 3 0
100 100 100 100 100 100 99 77 100 100 100 100 98 37 33 0 0 0 0 0 0 2 5 6 63 93 100 70 100 5 100 100 96 84 5 4 0 0 4 0 0 0 0 0 2 0 0
100 100 100 100 100 100 100 100 100 99 100 91 5 31 0 0 0 0 0 0 0 0 2 5 18 66 100 100 100 89 100 100 66 7 5 0 5 0 5 2 4 0 1 0 5 3 0
100 100 100 100 100 100 100 100 88 22 9 4 0 0 0 0 0 0 0 0 0 0 0 7 84 21 100 100 100 100 64 100 96 6 5 1 3 5 5 5 5 5 5 5 5 5 0
100 81 100 98 100 100 100 100 26 42 18 3 0 0 0 0 0 0 0 0 4 94 94 6 30 5 100 100 100 100 100 100 98 82 5 4 5 6 5 5 5 25 76 5 5 26 3
100 5 100 100 100 86 100 100 83 5 6 5 2 2 0 0 0 0 0 1 6 100 23 34 12 100 100 100 100 100 100 100 97 97 28 5 5 35 5 5 21 69 12 5 35 8 46
100 100 25 100 100 100 100 100 83 96 5 5 5 0 0 0 0 0 2 23 30 100 95 8 51 100 100 100 100 100 100 100 100 66 39 27 5 72 5 33 16 4 6 20 68 34 72
100 100 100 100 100 100 100 100 100 70 5 5 5 2 0 0 4 4 0 5 98 100 100 78 100 100 100 100 100 100 100 100 98 73 100 6 85 63 5 87 25 5 5 16 62 54 26
100 100 100 100 100 98 100 100 100 60 9 5 4 0 1 5 5 2 2 5 100 100 100 100 100 100 100 100 100 100 100 100 100 99 100 100 100 8 22 91 86 33 87 64 43 91 68
100 100 100 100 100 100 100 88 87 97 5 5 5 4 0 5 2 5 5 43 100 100 100 100 100 100 100 100 100 100 100 100 100 100 100 100 100 32 5 96 100 0 20 64 97 82 41
100 100 100 100 100 100 95 66 27 18 5 5 5 0 4 5 100 100 19 5 100 100 100 100 100 100 100 100 100 100 100 100 100 100 95 100 100 100 5 86 91 23 99 44 59 74 80
100 100 100 95 100 100 100 6 100 59 5 5 5 0 5 5 76 26 7 5 25 100 100 100 100 100 100 100 100 100 100 100 100 100 100 100 100 90 42 13 96 97 34 67 5 63 99
95 100 90 86 100 100 100 54 97 6 22 44 5 5 5 42 75 96 84 11 20 98 100 100 100 100 100 100 100 100 100 100 100 100 100 100 100 100 100 23 100 97 5 10 5 67 99
58 100 96 34 100 100 100 100 100 6 48 100 5 48 5 5 20 100 100 78 94 54 100 100 100 100 100 100 100 100 100 100 100 100 100 100 100 100 100 100 100 98 5 5 5 86 100
100 88 98 100 100 94 94 96 56 51 9 21 56 5 6 5 22 95 100 100 19 5 100 100 100 100 100 100 100 100 100 100 100 100 100 100 100 100 100 100 100 55 4 8 8 5 15
100 100 98 68 80 82 96 92 26 5 2 5 21 19 6 2 8 86 100 96 23 25 97 100 100 100 100 100 100 100 100 100 100 100 100 100 100 100 100 100 70 100 93 53 40 71 100
100 100 99 65 94 100 78 83 5 0 3 6 60 68 5 0 67 99 100 100 46 29 100 100 100 100 100 100 100 100 100 100 100 100 100 100 100 100 91 28 80 100 100 84 13 94 90
100 100 100 54 5 100 8 5 3 1 4 9 15 96 88 62 100 100 100 100 26 2 100 100 100 100 100 100 100 100 100 100 100 100 100 100 100 100 100 98 100 99 85 96 82 58 93
100 100 100 97 80 100 82 2 5 5 36 22 100 94 60 54 97 89 100 29 89 4 60 100 100 100 100 100 98 100 100 100 100 100 100 100 100 100 100 100 100 100 99 100 96 84 94
100 88 100 48 66 100 91 4 5 5 7 98 100 99 100 100 100 62 97 53 92 5 54 100 100 100 100 100 100 93 100 100 100 100 100 95 100 100 100 100 100 100 100 100 76 75 45
99 70 94 35 96 100 91 5 5 5 13 94 100 97 59 100 100 100 100 8 5 5 79 100 100 100 100 100 100 95 100 100 100 100 100 100 100 100 100 100 100 47 100 100 86 46 5
100 100 94 100 100 85 15 5 5 5 10 100 100 98 99 98 100 79 94 87 5 10 82 100 100 100 100 100 100 100 100 99 100 100 100 100 100 100 100 100 100 100 100 100 100 83 70
5 5 5 2 1 8 5 5 5 5 85 100 100 98 92 18 39 100 100 64 5 53 100 100 100 100 100 100 69 100 100 86 100 100 100 100 100 99 100 100 100 100 100 100 100 100 100
97 78 66 8 5 5 5 5 5 35 100 100 100 100 100 77 45 51 100 5 5 99 100 100 100 100 100 79 81 100 100 100 100 100 100 100 100 100 100 100 100 100 100 100 100 100 86
100 100 100 100 100 80 60 99 100 100 100 100 100 100 81 100 6 60 32 5 98 100 100 100 100 100 100 100 94 100 100 100 100 100 100 100 79 100 100 100 96 100 100 100 100 100 100
100 100 100 100 100 100 100 100 100 100 100 100 100 100 100 85 11 5 91 55 100 100 100 100 100 100 100 97 100 100 100 77 99 100 100 100 99 86 100 98 92 100 100 100 100 100 100
100 100 100 100 100 100 100 100 100 100 100 100 100 100 100 100 16 46 12 100 100 100 100 100 100 100 100 98 100 100 100 100 95 89 100 100 100 100 100 90 60 99 100 100 100 65 37
100 100 100 100 100 100 100 100 100 100 100 100 100 100 100 100 83 94 100 100 100 100 100 100 100 97 99 93 98 100 100 100 100 100 100 100 100 100 100 100 96 100 100 88 91 48 5
100 100 100 100 100 100 100 100 100 100 100 100 100 100 100 100 100 100 100 100 100 100 100 100 100 100 100 85 60 58 42 17 62 14 57 100 100 100 100 96 88 100 100 100 100 100 89

GFSGBSN_prec_cloud_066.txt.gz
Cloud_Cover
100 100 74 90 100 100 100 97 100 100 100 100 100 100 100 100 100 100 100 74 4 2 4 5 1 0 5 5 28 72 5 2 5 5 5 0 0 3 5 5 5 5 0 0 0 0 0
100 100 100 100 77 100 100 100 100 100 100 100 100 100 94 100 95 74 10 5 4 0 0 0 0 0 0 4 96 100 5 6 83 55 69 4 4 5 4 5 7 13 1 0 0 0 0
100 100 100 100 100 100 100 100 100 100 100 96 16 56 45 35 24 24 1 0 0 0 0 0 0 0 0 0 31 90 99 71 75 100 100 5 5 6 5 5 5 48 5 5 5 0 0
100 100 100 100 100 100 100 100 100 100 100 100 100 87 5 5 5 3 0 0 0 0 0 0 0 42 1 0 5 98 100 27 96 100 86 5 24 16 100 5 17 11 5 5 9 3 0
100 100 100 100 100 100 100 100 100 100 100 71 75 5 5 4 3 1 0 0 0 0 0 4 15 4 1 74 0 98 100 100 86 100 78 5 97 54 33 5 8 28 17 20 11 5 1
100 100 98 88 49 71 100 31 94 100 100 6 12 5 0 0 0 0 0 0 0 1 21 7 5 61 6 52 5 97 100 100 97 100 100 85 99 62 84 17 5 61 99 5 11 15 5
100 100 100 100 100 99 100 55 90 100 100 94 13 17 5 0 0 0 0 0 0 8 0 3 59 5 22 5 5 79 100 100 100 100 86 100 78 58 100 2 79 100 19 8 19 5 5
100 59 100 100 100 100 100 79 100 100 61 100 40 5 1 0 0 0 0 14 42 63 69 12 72 39 81 2 23 99 100 100 100 100 100 100 19 100 74 19 32 96 19 90 60 5 19
100 91 100 95 100 100 100 100 100 100 66 92 53 5 1 0 0 7 3 7 27 55 30 98 16 3 100 2 95 100 100 100 100 100 90 100 100 100 56 99 62 99 40 8 66 95 74
100 100 100 100 100 100 100 100 100 72 99 100 5 5 0 0 39 20 34 11 17 5 42 59 100 8 100 66 100 100 100 100 100 100 100 100 100 100 64 80 99 100 70 5 12 99 100
100 96 100 100 100 100 100 100 100 75 93 14 19 8 5 8 30 48 26 5 0 49 4 31 100 42 100 100 100 100 100 100 100 100 100 45 100 100 93 88 98 100 100 22 14 99 100
100 100 100 100 100 98 100 99 100 94 100 99 100 78 5 7 40 8 5 5 7 44 0 6 100 41 100 100 100 100 100 100 100 100 92 68 100 100 100 100 96 100 100 91 14 6 68
100 100 100 48 84 84 100 100 100 100 100 100 100 7 5 52 58 66 15 33 22 0 0 16 100 100 100 100 100 100 100 100 100 100 100 100 100 100 100 76 66 100 98 98 34 5 99
100 100 90 82 100 100 100 100 100 100 100 100 82 5 9 17 37 19 33 23 22 0 0 57 100 100 100 100 100 100 100 100 100 100 100 100 100 100 100 97 100 100 100 94 63 16 31
100 100 100 100 91 100 100 100 100 100 100 95 7 18 22 29 5 21 100 68 0 1 5 13 100 100 84 100 100 100 100 100 100 100 100 100 100 100 100 100 100 100 100 96 27 12 47
100 100 69 99 43 46 82 100 100 100 100 99 52 68 63 6 5 84 100 78 18 4 6 7 100 100 43 100 100 100 100 100 100 100 100 100 100 100 100 100 93 98 100 64 22 95 99
100 100 100 100 100 100 92 100 100 100 100 38 41 94 24 5 4 98 100 64 100 5 2 7 100 100 100 99 100 100 100 100 100 100 100 100 98 100 100 100 86 100 100 99 89 97 100
94 100 100 100 100 90 100 72 100 9 19 12 70 99 40 26 85 74 95 71 69 29 3 6 100 100 69 100 70 100 100 100 100 100 100 100 100 100 100 100 100 100 100 100 100 98 41
61 100 97 100 100 100 26 12 100 3 13 47 100 87 13 58 91 71 43 80 12 53 97 29 49 100 94 100 72 100 100 100 100 100 100 100 99 99 100 100 100 100 99 99 100 100 100
82 100 100 100 100 100 100 25 100 32 4 23 85 86 76 70 54 68 100 75 94 5 58 100 78 100 98 89 100 100 100 100 100 100 100 100 100 100 100 100 100 94 100 100 100 100 100
63 100 100 55 51 95 89 50 100 22 24 54 100 85 67 93 73 72 82 94 93 100 29 49 85 42 87 100 100 100 100 100 100 100 100 100 100 100 100 100 100 100 100 100 100 100 100
100 100 100 96 100 73 100 100 100 34 44 96 100 85 12 76 98 97 100 99 75 100 92 31 87 99 100 92 100 100 100 100 100 100 100 100 100 100 100 100 100 100 100 100 100 100 100
100 93 60 8 27 100 99 99 96 33 59 100 99 22 96 34 54 97 99 58 12 100 94 51 86 100 97 81 100 100 100 100 100 100 100 100 100 100 100 100 100 100 100 100 100 100 99
100 100 95 16 5 6 5 5 45 52 5 26 100 69 93 50 100 98 99 96 100 100 91 37 93 100 100 100 66 100 100 100 100 100 100 100 100 100 100 100 100 100 100 100 100 100 100
100 100 100 100 100 97 6 5 1 0 5 13 93 67 73 83 74 98 100 100 100 100 100 96 100 100 100 100 100 100 100 100 100 100 100 100 100 100 100 100 100 100 100 99 100 100 99
100 100 100 100 100 100 100 100 23 3 57 100 100 100 98 99 45 99 100 98 91 100 72 100 100 100 100 100 100 99 100 100 100 100 100 100 100 98 100 100 100 100 100 100 100 100 100
100 100 100 100 100 100 100 100 100 98 100 100 100 100 100 100 58 90 95 78 50 90 100 100 100 100 100 100 100 100 100 100 100 100 100 100 100 100 100 100 100 100 100 100 100 89 97
100 100 100 100 100 100 100 100 100 100 100 100 100 100 100 100 43 58 75 93 74 100 100 100 100 100 100 100 100 100 95 100 100 100 100 100 97 99 100 100 97 100 100 100 60 61 93
100 100 100 100 100 100 100 100 100 100 100 100 100 100 100 100 96 100 100 98 100 100 100 100 100 100 100 100 90 100 100 100 100 100 100 100 100 100 75 87 69 100 100 100 100 96 68

GFSGBSN_prec_cloud_069.txt.gz
Cloud_Cover
100 100 91 100 100 100 100 100 84 99 100 96 100 100 100 100 100 100 100 100 100 100 100 100 100 13 1 0 0 0 0 0 5 5 5 0 0 0 0 0 0 3 1 0 3 3 1
39 72 100 100 100 100 100 96 63 100 100 100 100 100 100 100 100 100 100 100 100 100 100 90 19 1 0 0 0 0 0 6 18 71 4 0 0 3 1 0 0 82 0 0 5 1 5
100 68 48 100 100 100 100 100 100 100 100 100 100 100 100 100 100 98 59 100 8 94 5 0 9 0 0 0 0 0 0 4 34 91 100 5 5 5 10 7 5 98 2 3 2 1 4
100 98 21 100 100 99 99 100 100 100 100 100 100 100 100 100 100 100 99 79 99 12 6 4 3 0 0 0 0 0 0 2 5 96 100 7 15 25 100 97 100 100 5 2 5 5 4
100 100 100 96 70 55 90 100 96 100 100 100 100 100 100 100 100 100 100 100 90 2 3 0 8 0 0 0 0 0 0 2 5 58 100 96 100 87 100 100 100 100 84 5 5 6 5
49 100 100 100 100 100 92 57 40 57 98 98 100 88 100 100 100 100 71 8 33 2 0 0 0 1 0 0 0 0 4 1 96 93 100 95 100 100 100 100 100 100 98 11 98 100 5
100 100 100 100 100 100 100 96 100 100 100 19 24 22 5 9 57 100 19 73 60 5 0 0 0 0 0 0 0 33 0 6 99 100 100 100 79 5 100 100 100 97 54 96 100 100 14
100 90 65 99 98 95 100 100 100 100 100 100 100 98 72 100 100 47 100 77 6 2 55 0 0 0 0 0 4 9 20 3 59 100 100 100 5 96 100 100 100 100 13 100 98 82 38
100 83 96 54 72 100 100 100 100 100 100 100 100 100 100 100 97 98 82 57 7 67 6 0 0 0 0 0 1 70 27 15 58 100 100 100 49 100 100 100 100 63 68 100 100 100 71
100 100 100 96 88 100 96 98 100 100 100 100 100 100 100 100 90 44 32 12 19 91 10 0 0 0 0 0 0 56 49 54 100 100 100 100 100 100 100 100 100 53 100 100 100 75 83
100 100 100 100 100 100 100 100 100 100 100 100 100 100 32 100 100 15 32 5 39 96 4 0 0 0 0 0 4 100 100 58 100 100 100 100 100 100 100 100 100 100 100 100 100 70 100
100 100 100 100 100 100 100 98 100 85 100 96 100 100 100 100 97 41 68 70 76 81 0 0 0 0 3 2 17 100 100 100 100 100 100 100 100 100 100 100 100 100 100 100 65 99 100
92 98 61 55 92 87 100 100 100 100 100 84 92 90 100 94 99 100 79 39 30 4 0 1 1 0 0 0 48 100 100 100 100 100 100 100 100 100 100 100 100 94 100 100 97 100 100
5 5 47 100 98 92 80 95 100 100 98 71 98 100 74 93 100 100 100 65 25 5 4 4 6 0 0 3 98 100 100 100 100 100 100 100 100 100 100 100 100 100 100 100 100 100 100
5 71 5 15 100 100 100 100 100 100 99 67 76 80 70 100 100 100 85 84 10 9 26 5 99 5 0 47 64 100 100 100 100 100 100 100 100 100 100 100 100 100 68 100 100 100 100
5 5 5 27 98 26 79 88 100 100 100 100 96 98 99 100 100 100 96 23 100 100 5 62 32 4 0 64 94 100 100 100 100 100 100 100 100 100 100 100 100 100 100 100 97 100 100
5 5 5 5 5 79 100 96 41 100 100 100 93 100 100 100 100 100 87 76 92 56 10 5 11 19 6 64 100 100 100 100 100 100 100 100 100 100 100 94 100 100 100 100 100 100 100
5 5 5 5 5 98 100 100 100 100 100 92 75 100 100 100 100 90 100 97 87 68 13 5 5 6 59 100 100 100 100 100 100 100 100 100 100 100 100 100 100 100 100 100 100 100 100
10 31 86 5 5 85 100 100 87 100 100 90 91 90 43 83 100 97 98 100 98 96 21 100 95 5 51 100 100 100 100 100 100 100 100 100 95 100 100 100 100 100 100 100 100 100 100
43 21 23 70 5 100 100 87 9 26 100 69 99 96 90 22 74 86 99 99 100 100 80 100 89 100 100 100 86 100 100 100 100 100 100 100 100 100 100 100 100 100 100 100 100 100 100
5 5 44 100 96 100 100 100 100 45 100 88 75 62 89 94 90 99 100 99 100 100 100 97 98 100 87 65 53 100 100 100 100 100 100 100 100 100 100 100 100 100 100 100 100 100 100
12 5 75 100 100 99 100 8 37 66 100 98 91 84 29 86 100 100 98 97 99 100 100 100 100 100 100 100 100 100 100 100 100 100 100 100 100 100 100 100 100 100 100 100 100 100 100
100 83 68 100 100 36 90 86 9 5 100 100 63 71 67 84 96 97 89 97 100 100 93 78 100 100 100 100 90 77 100 100 100 100 100 100 100 100 100 100 100 100 100 100 100 100 100
96 100 100 100 85 5 5 53 39 5 100 97 76 62 100 57 100 100 100 100 95 75 93 19 100 99 90 14 36 82 100 100 100 100 100 100 100 100 100 100 100 100 100 100 100 100 100
98 100 100 100 86 96 5 5 20 43 92 100 78 100 100 94 99 100 100 100 63 50 7 98 94 78 48 100 90 98 100 100 100 100 100 100 100 100 100 100 100 100 100 100 100 100 100
100 93 100 100 100 100 55 73 7 5 14 10 75 83 100 100 29 100 100 100 100 72 40 12 100 84 100 100 100 100 100 100 100 100 100 100 100 100 100 100 100 100 100 100 100 100 100
100 96 99 92 99 100 100 100 100 27 3 4 13 84 100 100 59 86 98 100 100 100 83 100 76 100 100 74 100 100 99 100 100 100 100 100 100 100 100 100 100 100 100 100 100 100 100
100 100 100 100 100 99 100 100 100 100 65 100 100 100 100 100 98 100 82 48 68 98 100 98 100 100 100 100 100 100 100 100 100 100 100 100 100 100 100 100 100 100 100 100 100 100 55
69 100 100 100 100 100 100 100 100 100 100 100 97 100 100 100 100 52 5 75 78 38 100 100 100 100 99 100 89 100 100 100 100 100 100 100 100 100 100 100 100 100 100 100 100 100 100

GFSGBSN_prec_cloud_072.txt.gz
Cloud_Cover
100 45 73 94 61 54 95 100 100 100 100 100 100 100 100 100 100 100 100 100 100 100 100 100 100 100 100 100 100 14 18 5 21 26 4 1 2 3 0 0 0 0 0 0 2 0 0
100 100 91 100 100 93 53 44 100 100 100 100 100 98 100 100 100 100 100 100 100 100 100 100 100 100 100 100 94 25 78 100 5 0 0 0 4 31 43 10 1 0 0 4 5 0 3
100 100 100 48 100 44 65 92 56 21 100 100 100 100 100 100 98 100 100 100 100 100 100 100 26 100 97 96 56 43 2 0 0 0 0 0 5 96 65 14 54 44 1 29 49 67 5
100 100 100 100 92 100 100 89 97 16 88 76 100 100 100 100 100 18 82 100 100 100 100 100 100 100 100 91 65 34 2 0 0 0 0 2 55 25 6 5 62 6 56 96 100 100 77
100 100 100 100 100 100 100 100 100 100 75 58 100 100 100 100 100 100 100 100 97 100 96 73 28 100 66 44 5 4 0 0 0 0 0 2 84 84 100 93 100 100 99 100 100 98 90
100 100 100 100 60 100 100 100 100 100 100 100 100 94 100 100 96 100 100 100 93 88 100 61 88 52 63 12 3 3 0 0 0 0 0 4 89 99 100 77 16 100 100 100 100 100 90
100 100 74 100 100 99 88 100 100 100 100 100 68 62 99 12 100 100 100 31 62 60 22 5 61 55 8 5 2 0 0 0 0 0 0 2 5 5 100 100 100 100 100 100 100 100 100
100 100 100 88 41 100 100 95 82 100 96 100 99 100 100 100 100 100 100 93 31 6 91 43 100 49 6 3 0 0 0 0 1 3 82 14 2 98 100 100 100 100 100 100 100 100 100
100 100 70 82 39 35 92 100 58 72 100 100 94 100 100 100 100 100 100 92 41 68 31 100 100 40 5 1 3 0 0 0 2 33 68 95 52 100 100 100 100 86 100 100 100 100 100
100 100 98 91 88 56 24 62 93 67 54 5 65 100 100 100 100 99 95 100 90 100 76 40 100 94 3 0 0 0 0 1 5 4 65 72 95 100 100 100 100 100 100 100 100 100 100
100 100 100 100 34 97 97 99 100 100 100 100 100 100 100 100 100 100 100 100 100 100 100 100 100 100 25 0 0 0 0 2 24 81 11 43 100 100 99 100 99 100 100 100 100 100 100
100 100 88 12 100 74 59 97 88 89 6 74 100 100 100 100 100 100 100 100 100 100 100 55 42 10 4 1 0 0 0 0 10 77 94 100 100 100 100 100 100 100 100 100 100 100 100
5 5 5 5 5 5 38 28 5 16 22 39 93 44 49 28 100 100 100 100 100 98 76 100 74 95 5 1 0 25 0 0 57 99 100 100 100 100 100 100 100 100 100 100 96 100 100
5 5 5 5 5 5 27 49 87 5 100 100 100 91 99 80 100 100 100 93 65 60 100 81 3 12 5 5 0 84 5 3 98 100 100 100 100 100 100 100 100 100 100 100 99 100 100
5 9 5 5 5 3 41 8 87 68 100 100 95 18 14 38 76 100 100 100 11 100 98 38 5 87 5 10 0 2 23 95 100 99 100 100 100 100 100 100 100 100 100 100 100 100 100
5 5 5 5 5 4 5 40 5 32 94 100 99 80 45 88 93 100 100 88 100 100 83 63 96 5 5 100 59 95 84 38 100 100 100 100 100 100 100 100 100 100 100 100 100 100 100
5 14 13 5 5 5 4 5 5 5 65 100 90 98 2 69 26 97 100 88 95 100 93 57 95 100 46 32 19 87 36 100 100 100 100 100 100 100 100 100 100 100 100 100 100 100 100
5 5 5 5 5 5 3 5 5 100 95 99 100 97 4 78 98 100 100 98 100 100 62 100 100 100 99 100 93 24 99 14 100 100 100 100 100 96 100 100 100 100 100 100 100 100 100
22 27 5 5 5 5 4 3 6 61 100 96 100 43 90 100 92 78 100 100 100 100 100 100 100 78 74 56 34 36 28 73 100 100 100 99 100 100 100 100 100 100 100 100 100 100 100
5 7 12 75 5 5 23 20 6 69 77 100 98 57 8 94 34 96 76 100 100 100 100 100 91 78 88 46 44 3 93 25 100 100 100 100 100 100 100 100 100 100 100 100 100 100 100
62 14 100 100 15 5 77 98 62 100 100 100 100 37 99 58 72 82 100 100 100 100 100 100 76 22 99 69 100 80 84 100 100 97 100 100 100 100 100 100 100 100 100 100 100 100 100
28 100 100 100 96 15 100 100 100 100 100 100 100 75 100 100 100 97 32 64 100 100 98 100 83 64 46 100 100 100 84 73 100 100 75 100 100 100 100 100 100 100 100 100 100 100 100
30 100 100 94 100 50 100 100 100 100 100 100 92 18 98 30 61 100 97 43 31 69 88 58 100 86 76 98 11 54 100 21 100 100 96 100 100 100 100 100 100 100 100 100 100 100 100
94 100 100 96 95 100 100 57 5 5 7 78 76 100 100 31 100 90 85 100 85 91 58 85 95 68 56 95 5 77 3 3 60 99 100 100 100 100 100 100 99 100 100 100 100 100 100
100 100 100 100 100 100 100 54 4 5 5 54 81 100 98 86 100 100 100 100 100 14 7 31 12 51 69 100 5 2 5 41 56 100 100 100 100 100 100 100 100 100 100 100 100 100 100
100 98 100 84 97 100 100 100 11 5 5 11 10 32 100 97 36 84 100 100 100 100 97 6 15 13 89 12 93 94 55 10 42 100 97 100 100 100 100 100 100 100 100 100 100 100 100
100 68 100 88 74 77 100 100 87 5 5 5 10 28 100 100 71 100 97 98 81 94 97 96 99 90 99 28 60 100 90 100 100 100 100 100 100 100 100 100 100 100 100 100 100 100 100
100 99 98 100 50 96 91 100 92 97 5 10 5 11 41 87 97 61 76 99 86 98 89 65 82 88 94 100 87 93 100 100 100 100 100 100 100 100 100 100 100 100 100 100 100 100 100
99 94 93 100 100 95 100 100 100 100 84 44 18 74 98 91 84 59 8 21 100 100 100 99 100 90 100 99 38 100 99 100 100 100 100 100 100 100 100 100 100 100 100 100 100 100 100

GFSGBSN_prec_cloud_075.txt.gz
Cloud_Cover
100 100 100 100 100 100 100 100 89 69 83 100 100 100 100 100 100 100 100 100 100 100 100 100 94 100 100 100 100 100 100 100 100 90 100 100 100 5 28 20 25 5 4 0 0 0 0
100 100 100 100 100 100 100 100 100 100 99 87 100 100 100 100 100 100 100 100 100 100 100 100 100 100 100 100 100 100 100 100 100 100 100 100 92 12 1 0 0 0 0 0 0 2 2
100 100 100 100 100 100 100 100 100 100 99 100 100 99 100 100 96 100 100 100 100 100 100 100 82 94 100 99 100 100 100 84 100 82 86 20 2 0 0 0 0 2 5 4 0 5 4
100 100 100 100 100 100 100 100 100 100 100 95 100 100 100 100 100 99 100 100 100 100 100 100 96 100 100 100 100 100 100 100 100 92 53 2 0 0 0 0 0 0 0 5 47 31 100
100 100 100 100 100 100 100 100 100 100 100 100 100 100 100 100 100 100 100 100 60 85 100 100 94 69 87 79 92 98 67 13 14 30 8 1 0 0 0 0 26 42 1 4 72 100 100
100 100 100 100 100 100 100 92 88 100 100 100 100 100 100 100 100 100 100 100 100 90 100 100 94 100 70 41 85 97 28 80 95 20 1 0 0 0 0 4 0 5 45 56 85 100 100
100 100 100 100 100 100 100 100 100 100 100 100 100 100 100 100 100 100 100 100 95 87 91 25 96 100 100 27 23 90 100 64 88 7 5 0 0 0 0 1 82 98 99 45 100 100 38
100 97 100 100 100 100 100 100 100 98 100 100 95 100 100 100 100 100 100 100 97 78 63 70 100 90 100 13 11 34 24 60 100 94 5 8 2 0 0 1 95 12 23 27 100 100 100
100 100 100 100 100 47 22 48 69 99 55 96 35 21 62 100 100 100 94 66 99 100 6 100 84 100 100 100 83 89 100 100 99 85 15 6 12 80 4 5 53 64 100 100 96 100 100
100 100 100 100 100 100 100 100 89 86 70 100 90 16 100 98 100 100 100 84 100 99 65 40 100 100 100 52 60 95 93 65 89 93 5 28 4 1 5 5 29 88 69 100 100 100 91
82 100 100 100 100 100 100 100 100 100 100 100 100 99 18 100 100 100 100 100 100 97 82 66 8 100 100 100 70 100 100 100 100 100 4 0 0 5 34 6 100 90 100 85 91 64 7
90 92 59 69 75 67 42 5 5 11 5 5 5 63 100 100 100 100 100 100 100 100 91 99 40 96 100 100 100 100 100 100 88 2 5 4 0 3 1 98 93 100 100 98 100 100 12
5 5 5 6 5 5 5 3 5 63 5 5 5 85 77 5 4 76 100 100 100 99 99 93 83 15 100 100 100 100 91 78 4 2 2 3 0 4 8 99 91 100 100 100 100 100 93
5 14 5 5 5 5 5 2 4 5 5 5 5 99 8 5 1 57 100 91 100 100 100 100 100 100 100 100 100 88 0 76 2 0 4 5 4 5 76 95 100 100 100 99 100 100 100
8 6 5 5 5 5 5 3 0 7 63 54 12 77 9 5 0 31 100 100 0 5 100 100 100 90 100 100 100 76 1 1 79 37 11 8 5 8 92 100 100 100 100 100 100 100 100
62 20 11 5 5 20 5 5 0 25 33 24 23 99 34 0 1 64 100 88 2 56 92 95 88 16 62 62 74 68 43 6 100 28 87 32 9 65 100 100 100 100 100 100 100 100 100
62 5 5 5 5 5 5 5 4 3 5 5 95 100 2 3 39 74 91 44 11 95 100 100 100 95 100 100 86 94 100 44 5 7 100 82 65 100 100 100 100 100 100 100 100 100 100
5 5 5 5 5 5 5 5 5 0 6 32 100 97 4 100 87 85 36 36 5 100 100 67 75 92 49 100 100 98 88 5 5 5 28 100 100 93 100 100 100 100 100 100 100 100 100
11 5 5 5 5 5 5 5 5 4 13 98 100 72 2 85 100 73 60 20 32 100 100 100 100 100 100 100 99 93 92 26 5 5 14 17 98 100 100 100 100 100 100 100 100 100 100
52 5 5 34 23 5 35 82 5 5 21 98 100 72 67 20 100 97 44 17 8 100 100 100 100 100 100 100 100 100 100 97 75 5 5 42 100 100 100 100 100 100 100 100 100 100 100
8 5 5 54 53 98 64 36 5 36 96 100 100 100 100 79 100 100 100 78 78 100 100 100 100 100 100 100 100 98 100 98 77 29 30 100 100 100 100 100 100 100 100 100 100 100 100
5 16 5 16 100 100 99 5 7 100 100 100 100 100 100 92 100 100 88 100 100 100 100 100 100 100 100 100 89 50 76 42 85 68 98 100 100 100 100 100 100 100 100 100 100 100 100
42 29 96 98 100 100 99 5 5 53 85 100 100 100 100 100 100 100 83 82 97 100 100 100 100 100 100 99 88 83 50 5 0 4 90 100 100 100 100 100 100 100 100 100 100 100 100
5 5 69 96 100 100 98 40 5 4 7 98 82 92 74 100 100 100 100 100 88 5 65 94 100 100 100 100 38 29 5 6 15 1 53 100 100 100 100 100 100 100 100 100 100 100 100
27 100 100 100 100 100 100 100 8 6 1 39 5 52 72 16 5 100 69 100 94 100 81 6 62 20 12 8 5 65 91 1 0 0 49 100 100 100 100 100 100 100 100 100 100 100 100
100 100 98 100 100 100 100 100 97 31 2 27 5 6 35 100 9 16 58 47 67 100 93 6 5 1 0 8 27 5 6 5 2 2 2 100 100 100 100 100 100 100 100 100 100 100 100
100 100 84 79 100 98 99 97 100 100 6 21 27 15 95 100 58 74 46 94 95 91 37 100 76 38 6 97 69 27 5 2 9 12 39 99 100 100 100 100 100 100 100 100 100 100 100
100 99 80 92 99 84 62 31 56 100 26 31 53 6 54 100 70 14 70 79 54 97 100 89 97 99 66 15 10 5 57 67 100 100 95 92 100 100 100 97 100 100 100 100 100 100 100
100 100 100 98 100 100 78 50 19 97 76 58 78 5 39 92 14 48 41 5 5 71 96 100 100 100 82 83 13 96 100 100 100 100 100 87 100 100 100 100 100 100 100 100 100 100 100

GFSGBSN_prec_cloud_078.txt.gz
Cloud_Cover
6 22 5 30 49 100 100 100 100 100 100 100 100 100 100 33 99 83 100 100 100 100 100 100 100 100 100 100 100 100 100 92 91 86 100 96 91 88 65 57 80 4 5 0 0 0 0
5 5 22 24 35 100 100 100 100 100 100 100 100 100 100 100 100 100 100 100 100 100 100 100 100 100 100 100 100 100 100 100 100 100 100 100 80 66 70 6 20 4 1 0 0 0 0
6 5 5 5 88 100 100 100 100 100 100 100 100 100 100 100 100 100 100 98 98 70 100 100 100 100 100 100 100 100 100 100 100 100 100 100 100 66 10 6 4 0 0 0 0 0 0
10 83 44 98 100 100 100 100 100 100 100 100 100 100 100 100 100 100 100 100 100 100 100 100 100 100 100 92 100 100 100 81 94 38 66 12 75 96 99 59 5 1 0 0 0 0 0
5 45 87 100 100 100 100 100 100 100 100 100 100 100 100 100 100 100 100 100 100 100 99 100 100 100 100 100 100 100 100 100 100 100 99 91 20 14 5 3 0 0 0 0 0 0 0
100 100 100 100 100 100 100 100 100 100 100 100 100 100 100 100 100 100 100 100 100 100 96 100 100 85 100 100 94 100 100 100 100 100 76 37 22 21 5 5 0 0 0 0 0 2 90
76 35 100 92 100 100 100 100 100 100 100 100 100 100 100 100 100 100 100 100 100 100 100 100 100 100 100 100 100 100 100 100 100 100 100 5 22 76 5 0 0 0 0 0 0 2 57
94 100 100 96 100 100 100 61 22 64 92 100 100 100 100 100 100 99 100 100 100 100 100 100 100 100 100 92 100 100 70 100 100 100 100 90 8 70 79 19 5 5 0 0 0 5 68
99 100 100 99 100 83 100 100 100 49 100 86 26 93 19 6 100 100 100 100 100 100 40 100 100 100 100 100 100 100 99 100 100 98 100 58 99 88 100 100 13 0 0 5 0 50 69
100 99 100 100 100 45 7 66 100 100 100 100 100 100 96 64 98 39 54 100 100 94 49 100 100 76 100 100 87 98 98 99 100 90 79 66 99 100 92 58 4 0 0 2 5 100 37
100 99 100 100 26 76 87 29 5 38 5 9 13 99 100 100 50 85 6 24 100 89 5 30 8 100 100 92 100 100 96 57 99 94 5 4 6 78 23 45 5 3 5 6 87 72 46
100 100 100 100 25 5 5 5 3 1 4 5 4 6 5 4 30 67 99 86 42 39 47 5 23 40 100 100 100 100 100 100 5 88 34 53 67 94 87 8 2 14 5 13 99 96 21
100 100 93 5 5 5 5 5 5 2 5 5 3 7 5 28 1 0 2 27 100 99 84 100 100 100 100 100 100 100 100 100 32 8 22 11 22 86 5 4 5 78 84 91 100 85 35
100 82 45 5 5 5 5 5 5 0 0 5 5 24 5 5 5 3 32 64 86 4 100 100 100 100 100 100 100 100 100 100 85 5 100 100 100 7 0 5 59 81 86 100 76 70 52
80 99 16 29 12 83 5 5 5 4 0 5 23 6 5 0 6 5 93 100 0 0 2 60 100 100 100 100 100 100 100 99 100 100 100 100 97 10 2 4 54 100 100 100 100 100 100
100 93 30 5 5 5 5 5 5 5 0 1 100 95 37 0 57 16 100 42 1 0 2 100 100 100 100 100 100 96 32 83 99 100 100 88 29 4 4 13 100 99 100 100 100 100 100
93 5 5 48 5 5 5 3 5 3 0 5 9 63 0 5 31 93 100 30 0 0 96 100 100 100 100 100 100 66 100 99 100 100 100 97 50 8 16 70 86 100 100 100 100 99 100
6 5 5 7 5 5 5 5 5 3 19 41 50 92 18 64 90 88 100 8 2 1 100 100 100 100 100 94 100 100 6 100 100 88 78 5 79 95 3 3 17 100 100 100 100 90 100
5 5 55 35 21 5 5 5 3 69 43 12 100 86 5 94 100 77 60 50 44 1 100 100 100 100 100 100 100 100 97 42 5 5 5 4 72 62 0 3 98 100 100 100 100 94 100
5 9 76 5 36 5 5 5 68 100 82 54 100 85 8 47 16 26 100 27 20 1 100 63 100 100 100 100 100 100 54 94 27 5 5 5 5 5 5 9 100 100 100 100 100 100 100
100 19 9 5 5 5 5 62 100 95 41 75 100 56 61 99 96 100 100 84 84 54 83 68 100 100 100 100 100 100 100 97 5 15 5 90 52 5 5 86 100 100 100 100 100 100 100
7 5 5 5 39 13 67 100 100 49 83 98 100 100 99 100 100 100 100 100 100 100 68 100 100 100 100 100 94 84 100 51 100 87 84 46 38 5 5 100 100 100 100 100 100 98 100
16 85 20 32 20 90 100 100 100 63 74 99 98 93 100 100 100 100 100 100 100 100 100 100 100 100 100 100 100 100 100 100 99 99 92 100 100 79 72 100 100 100 100 100 100 82 100
23 5 5 5 62 100 100 100 88 58 36 10 100 95 94 100 100 100 100 100 100 100 100 100 100 100 100 100 100 100 100 100 100 100 42 47 39 83 100 100 100 100 100 100 100 100 100
5 18 5 93 95 100 100 89 100 100 75 94 100 88 100 100 100 100 98 100 100 100 100 100 100 100 100 100 100 100 100 100 99 27 5 0 2 13 100 100 100 100 100 100 100 100 100
5 22 74 32 100 100 100 41 97 100 33 78 82 79 100 100 98 55 63 98 100 95 71 98 100 100 100 100 100 100 100 74 9 5 0 0 0 5 100 100 100 100 100 100 100 100 100
5 6 80 97 86 100 100 70 100 100 61 100 100 8 80 98 6 21 34 100 32 98 100 98 66 92 83 84 62 32 7 1 2 0 7 27 33 36 100 100 100 100 100 100 100 100 100
5 43 97 92 86 100 89 79 88 35 50 92 97 5 21 99 33 5 76 5 5 5 69 100 100 100 96 68 34 5 10 4 11 90 99 63 100 97 100 100 100 100 100 100 100 100 100
100 98 94 100 16 49 92 98 70 42 100 87 100 27 5 84 8 42 27 3 1 14 32 100 100 100 100 84 12 91 76 95 100 100 100 100 82 100 100 100 100 100 100 100 100 100 100

GFSGBSN_prec_cloud_081.txt.gz
Cloud_Cover
100 99 87 96 49 52 25 16 84 100 100 74 75 98 98 60 100 100 100 100 94 100 91 100 100 100 100 100 100 100 100 100 100 100 100 100 100 74 45 88 88 6 97 5 2 2 4
100 100 100 85 100 100 100 96 74 100 90 100 100 95 96 99 94 100 100 100 100 100 100 100 100 100 100 100 100 100 100 100 100 100 99 90 97 93 100 100 99 34 4 5 1 3 0
100 98 66 68 100 53 98 80 54 48 14 43 20 76 100 100 100 100 100 100 100 100 93 100 100 100 100 100 100 100 100 100 100 100 96 83 100 96 100 100 93 98 78 99 34 20 0
39 75 5 5 13 51 75 92 95 27 10 89 6 100 100 100 100 100 100 100 100 100 100 100 100 100 100 100 100 100 100 100 100 100 100 100 99 98 100 100 100 93 18 3 39 2 1
16 19 18 71 100 60 47 59 57 78 73 100 100 100 100 100 100 100 100 100 100 100 100 100 100 100 100 100 100 100 100 100 100 100 100 100 100 92 96 79 8 5 1 0 4 2 0
87 100 85 100 60 83 100 81 58 14 72 100 100 100 100 100 100 100 100 100 100 100 100 100 100 100 100 100 100 100 100 100 100 100 100 100 100 100 90 74 16 5 0 0 0 2 0
15 46 11 5 5 6 99 5 81 94 15 100 5 100 8 33 100 100 100 100 98 93 100 100 100 100 100 100 100 100 100 100 100 100 100 81 64 100 100 96 86 20 0 0 5 3 0
100 70 16 8 88 23 5 34 41 82 5 5 5 26 83 91 18 3 94 100 100 89 100 100 100 92 100 100 100 100 100 100 100 100 100 100 100 100 76 55 12 6 1 1 0 3 0
84 69 100 87 100 25 65 93 88 6 5 5 10 68 100 88 28 9 3 28 100 100 69 100 96 100 100 100 100 100 100 100 100 100 100 13 62 96 100 88 14 10 5 5 5 0 0
100 100 100 100 100 100 100 100 9 19 25 34 5 4 1 3 1 4 5 5 98 100 98 100 100 100 100 100 100 100 100 100 100 100 100 100 91 94 89 16 10 7 55 5 3 0 1
100 100 100 100 100 100 78 5 50 60 5 4 5 0 0 5 8 0 0 2 6 39 2 2 30 100 100 100 100 100 100 100 100 100 100 100 100 65 35 98 69 5 1 4 5 5 2
100 100 100 100 100 49 5 6 5 16 13 4 5 2 5 5 0 3 0 0 34 56 33 1 33 49 100 100 100 100 100 100 100 100 100 100 100 100 83 47 5 5 3 54 68 27 15
100 100 100 100 59 20 9 88 58 24 1 0 6 39 5 4 0 4 0 1 24 97 0 44 6 82 87 100 100 100 88 96 100 100 100 100 96 100 99 20 5 23 75 77 80 97 35
100 100 100 22 32 10 48 6 9 2 5 0 16 13 5 0 0 5 1 28 85 0 0 0 87 100 67 99 100 100 30 5 6 29 23 44 62 89 100 30 6 96 82 62 15 9 5
60 58 59 5 5 8 5 5 0 4 5 7 1 3 0 0 0 5 43 100 0 0 0 0 100 94 99 91 100 100 84 100 99 7 40 54 54 98 100 13 26 100 100 11 98 98 100
98 100 30 6 5 7 5 5 4 4 5 16 4 5 0 0 1 8 90 79 86 2 3 1 100 83 99 91 100 100 98 58 100 100 100 100 100 100 100 85 63 97 100 100 97 100 94
100 98 5 24 26 5 2 5 5 5 26 31 5 5 5 4 5 99 98 97 40 5 4 4 72 100 100 100 100 94 100 98 100 100 100 100 100 100 100 100 100 60 100 100 100 90 100
99 94 41 24 5 5 5 5 3 5 30 54 11 70 5 5 61 77 86 98 29 1 0 2 12 100 100 100 100 100 27 100 100 100 100 100 100 100 100 97 57 6 53 93 100 100 100
100 65 5 5 65 5 5 5 5 5 73 16 82 77 15 5 93 100 95 64 87 5 0 0 7 100 100 100 100 100 97 74 100 100 100 100 100 100 100 88 33 77 99 99 100 100 96
74 25 5 58 82 5 4 0 5 10 100 75 97 93 5 31 7 8 94 23 94 5 26 5 27 100 100 100 100 100 100 100 97 6 97 98 100 83 89 10 50 9 100 100 100 100 100
98 75 60 6 12 5 4 0 6 100 100 81 94 48 9 46 85 98 100 31 19 5 39 5 43 100 100 100 100 100 100 39 83 100 100 32 7 5 5 4 4 5 59 100 58 65 97
32 99 27 5 5 5 5 5 91 100 96 100 77 81 61 94 100 100 100 100 100 100 96 6 46 100 100 100 100 100 100 58 97 98 100 95 5 5 5 3 4 2 3 100 99 46 100
25 38 75 92 5 5 5 50 100 100 100 95 100 99 100 83 100 100 100 100 100 100 72 53 67 100 100 100 5 43 6 16 16 100 100 100 67 25 6 3 2 5 22 60 100 100 100
23 5 5 5 5 5 76 99 100 100 95 49 35 97 100 85 100 100 100 100 100 100 100 100 81 95 100 100 100 100 95 95 21 100 100 64 100 49 83 4 17 1 95 86 100 100 100
39 5 5 5 5 20 100 100 100 88 100 100 71 36 100 100 100 100 100 100 100 100 100 100 100 100 100 100 100 100 100 100 99 100 100 100 100 27 50 40 4 90 100 100 100 100 100
64 5 5 5 5 84 100 100 100 53 100 100 81 28 83 86 97 100 100 100 100 100 100 100 100 100 100 100 100 100 100 100 100 100 100 99 13 13 73 31 28 100 100 100 100 100 100
9 5 5 5 13 97 96 89 60 57 98 100 100 18 74 99 8 74 50 80 100 100 93 100 97 97 100 100 100 100 100 100 100 100 76 36 66 71 98 95 100 100 100 100 100 100 100
5 5 5 54 97 100 92 58 27 57 65 100 100 83 62 48 6 70 31 62 100 66 100 100 100 100 100 100 100 100 100 100 100 100 40 5 75 98 84 96 100 100 100 100 100 100 100
5 8 87 100 100 100 80 58 26 93 85 91 100 100 39 62 51 51 11 5 5 5 16 100 100 100 100 100 100 100 88 87 25 22 22 73 66 97 82 59 100 100 100 100 100 100 100

GFSGBSN_prec_cloud_084.txt.gz
Cloud_Cover
93 80 91 98 82 100 100 100 89 100 100 100 91 100 100 98 71 80 16 9 35 100 6 100 100 100 97 91 100 100 100 99 100 100 100 100 100 94 100 100 100 100 100 100 98 100 78
26 67 59 68 84 67 57 77 99 100 100 100 96 92 57 74 30 72 41 16 79 33 92 100 100 100 100 100 100 35 100 100 100 94 99 100 100 100 100 100 100 98 100 98 77 100 67
20 90 16 19 19 5 5 56 99 61 92 88 99 83 78 55 11 12 5 93 86 13 93 95 100 100 100 100 100 100 100 100 100 100 100 97 100 100 99 100 83 95 40 40 87 45 44
70 5 8 5 5 5 5 16 32 9 5 12 5 5 6 7 5 5 92 100 99 66 100 100 100 100 100 100 100 100 100 100 100 100 100 64 92 74 100 100 100 100 100 38 98 100 100
46 34 61 100 96 16 5 5 5 5 5 0 0 3 5 0 0 3 56 100 100 100 100 100 100 100 100 100 100 100 100 100 100 100 100 100 100 100 99 86 100 100 100 100 100 100 89
100 100 100 100 100 22 40 88 35 5 5 1 5 5 0 0 0 0 0 2 90 100 100 100 100 100 100 100 100 100 100 100 100 100 100 100 100 100 100 100 100 100 100 100 100 100 68
100 100 100 100 100 100 80 21 5 5 5 22 88 4 0 0 0 0 0 0 39 4 20 100 100 100 100 100 100 100 100 100 100 100 100 100 100 100 100 100 100 100 100 100 100 100 57
100 100 100 100 100 100 100 48 15 5 41 10 93 2 0 0 4 10 7 3 23 72 96 25 98 77 100 100 100 100 100 100 100 100 100 100 98 100 100 100 100 93 89 100 94 78 3
100 100 100 100 100 100 100 69 58 20 12 5 5 1 0 5 92 75 8 1 9 32 95 10 97 84 100 100 100 100 100 100 100 100 100 100 100 96 100 97 99 100 27 5 5 19 3
100 100 100 100 100 100 100 100 62 5 5 4 5 0 1 40 24 54 18 0 5 8 100 2 4 98 34 100 100 100 100 100 100 100 100 100 100 100 100 81 100 100 68 6 5 5 4
100 100 100 100 100 100 100 100 98 80 5 5 2 5 5 5 5 0 0 0 3 5 42 0 0 5 99 22 98 100 100 100 100 100 100 95 96 100 100 100 95 100 96 16 5 5 58
100 100 100 100 100 100 100 97 55 5 5 1 0 5 14 2 0 0 0 0 2 49 25 0 0 6 98 94 72 100 100 100 100 100 100 78 100 100 100 100 100 100 100 100 18 26 57
100 100 100 100 100 100 100 100 18 5 3 5 5 5 0 2 0 0 0 1 20 89 0 0 0 0 90 88 74 100 100 100 100 100 100 100 100 100 100 100 100 100 100 92 35 93 32
100 100 100 100 100 100 100 7 5 4 4 5 0 0 0 0 0 0 4 15 72 0 0 0 0 59 99 97 26 100 100 97 71 99 100 100 100 100 100 100 93 100 100 99 33 44 19
100 100 100 100 100 100 80 5 5 5 4 4 0 0 0 0 0 0 5 88 1 26 98 6 0 6 100 84 100 42 96 94 99 100 100 100 100 100 100 100 100 100 100 10 61 88 92
100 100 100 100 100 100 29 5 13 5 4 5 2 8 0 1 1 5 58 62 5 5 58 48 16 24 93 100 100 78 23 84 96 100 100 98 96 100 100 99 82 49 78 100 100 75 39
100 100 100 100 100 100 87 7 11 5 5 2 5 16 0 5 5 96 95 5 3 0 12 28 11 29 71 57 100 100 82 70 100 100 100 100 96 89 100 95 25 46 65 100 93 99 94
100 100 100 82 70 6 5 5 5 5 5 2 5 61 7 7 55 88 91 9 9 4 3 5 5 0 32 100 100 100 100 100 100 100 100 100 100 100 100 89 9 52 87 79 99 100 96
100 100 95 95 79 8 7 5 4 5 5 5 68 26 4 5 78 87 42 90 81 39 69 42 8 66 96 100 92 100 100 100 100 100 100 100 100 100 100 100 44 98 100 100 100 100 100
100 91 100 44 54 13 5 5 3 7 73 59 34 71 5 99 30 36 84 5 96 96 12 6 5 2 98 100 100 100 100 100 100 100 100 100 100 100 100 100 100 100 57 88 77 100 71
100 100 93 71 69 5 5 5 3 16 94 26 67 45 7 86 12 19 64 64 37 94 18 35 11 2 100 100 100 100 100 100 100 100 100 100 100 100 100 100 100 100 100 51 5 49 86
100 98 77 78 6 5 5 5 43 76 98 65 61 97 99 69 5 22 87 100 100 100 100 77 80 3 100 100 100 100 100 100 100 100 100 100 100 6 70 82 5 60 15 5 0 64 5
100 100 95 33 37 46 5 5 67 99 97 99 93 94 99 11 5 39 100 100 100 100 100 70 85 89 100 100 100 100 100 100 100 100 100 82 100 42 40 4 5 5 3 5 32 5 100
100 100 98 59 22 5 5 29 61 100 100 96 75 93 99 45 15 90 100 100 100 100 100 100 54 93 100 100 100 100 34 83 99 49 13 90 100 38 100 5 7 1 3 2 41 3 83
100 100 37 37 5 5 5 84 86 100 100 100 88 89 90 83 46 80 100 100 100 100 100 100 100 99 92 100 100 100 49 11 13 34 3 71 100 38 39 34 0 5 4 12 41 53 70
100 100 100 100 6 5 16 5 100 100 90 100 100 93 97 86 34 99 100 100 100 100 100 100 100 100 100 96 100 100 65 6 3 5 64 100 100 61 69 41 23 100 5 4 14 90 100
100 100 100 100 5 5 5 6 5 5 61 96 100 100 97 98 26 96 93 90 100 100 98 100 100 100 100 100 100 100 83 32 16 99 100 100 100 100 100 96 100 100 6 16 100 100 100
100 100 100 41 5 5 7 20 5 5 48 100 100 100 100 82 13 5 20 49 80 90 85 100 100 100 100 100 92 46 64 99 100 98 100 100 90 93 100 100 100 100 85 87 100 100 100
100 100 96 10 5 72 45 80 9 5 46 100 100 100 100 100 5 6 56 74 5 36 100 100 100 100 100 100 100 100 100 100 100 100 100 100 100 99 92 87 100 100 100 100 100 100 100

GFSGBSN_prec_cloud_087.txt.gz
Cloud_Cover
51 87 89 100 100 100 100 100 85 40 8 5 58 97 90 100 100 100 100 35 60 93 100 92 100 100 7 44 100 45 42 100 48 91 100 100 100 100 100 100 100 100 100 100 100 100 100
16 5 68 64 76 100 100 100 51 63 95 82 94 87 94 76 100 100 64 49 6 75 39 84 41 100 54 64 100 100 76 97 100 92 89 100 100 100 100 99 100 100 100 100 100 100 100
100 88 61 58 100 32 31 32 12 50 8 15 15 26 6 6 10 19 5 0 3 11 24 5 40 100 81 64 96 100 100 100 100 100 100 100 100 100 100 100 100 100 100 100 100 100 100
100 100 87 34 6 5 5 5 48 97 61 5 21 69 5 5 5 1 3 0 0 0 0 0 45 97 30 96 100 70 100 100 100 100 100 100 100 100 100 100 100 100 100 100 100 100 100
100 100 100 100 94 92 95 70 100 5 5 5 5 9 5 4 2 0 0 0 0 0 0 0 18 47 18 8 100 100 100 100 100 100 100 100 100 100 100 100 100 100 100 100 100 100 92
100 100 100 100 100 100 100 100 27 6 6 21 5 11 87 4 0 0 0 0 0 0 0 2 20 49 0 5 100 100 100 100 100 100 100 100 100 100 100 100 100 100 100 100 100 100 100
100 100 100 100 100 100 100 96 100 96 5 5 5 5 94 100 1 0 0 0 0 0 0 1 3 0 4 5 100 100 100 100 100 100 100 100 100 100 100 100 100 100 100 100 100 100 100
100 100 100 100 100 100 100 100 18 84 22 5 41 12 94 5 0 0 0 0 5 44 88 94 60 5 0 4 6 100 100 100 100 100 100 100 100 100 100 100 100 100 100 100 100 100 100
100 100 100 100 100 100 85 100 100 99 67 97 100 100 6 3 0 3 0 0 4 5 100 4 0 0 0 0 1 95 100 100 100 100 100 100 100 100 100 100 100 100 100 100 100 100 100
100 100 100 100 100 100 100 81 100 81 95 41 100 100 100 4 4 2 0 0 0 5 20 0 0 0 0 5 0 0 100 31 100 100 100 100 100 100 100 100 100 100 100 100 100 61 41
100 100 100 100 100 100 100 100 100 100 98 100 100 5 5 1 0 5 0 0 0 3 0 0 0 0 0 49 38 39 3 6 95 100 100 100 100 100 100 100 97 93 100 100 100 52 18
100 100 100 100 100 100 100 100 100 100 100 76 7 9 5 4 0 0 0 0 1 1 0 0 0 0 0 2 95 49 4 5 10 100 100 100 100 100 100 100 100 100 100 100 95 27 58
100 100 100 100 100 100 100 100 100 100 95 100 9 5 5 0 0 1 0 0 2 0 0 0 0 0 0 5 94 100 94 3 5 92 100 100 100 100 100 100 100 100 99 94 75 93 37
100 100 100 100 100 100 100 100 100 100 100 25 5 0 0 0 0 0 0 3 0 0 0 0 0 0 0 8 6 100 96 33 29 99 100 100 100 100 100 100 100 92 100 100 80 52 21
100 100 100 100 100 100 100 100 100 100 26 15 7 3 0 0 0 0 4 5 0 24 95 11 2 0 5 36 81 100 100 99 68 100 100 100 100 100 100 100 100 100 100 78 49 21 49
100 100 100 100 100 100 100 100 100 38 8 15 5 0 1 5 0 5 34 4 0 5 93 46 5 5 97 29 0 100 100 100 73 92 100 100 100 100 100 100 100 100 100 97 88 57 82
100 100 100 100 100 100 100 100 100 22 5 5 4 5 5 5 40 94 90 5 5 3 3 8 5 20 4 1 8 100 99 100 100 100 100 100 100 100 100 100 100 100 100 75 100 100 100
100 100 100 100 100 100 100 100 50 16 5 4 2 5 63 4 13 88 80 72 7 5 91 40 5 5 2 4 97 100 100 100 100 100 99 100 100 100 100 100 100 100 100 58 77 96 100
100 100 100 100 100 100 100 10 14 5 1 2 31 5 4 5 5 36 4 5 5 5 68 5 5 5 8 92 96 100 100 100 100 100 99 100 100 100 100 100 100 100 100 100 99 90 56
100 100 100 100 100 100 74 5 5 3 5 5 11 5 4 84 42 92 76 12 31 5 20 54 5 3 3 7 94 100 100 100 100 100 100 100 100 100 100 100 100 100 62 5 5 62 80
100 100 100 100 100 99 42 6 5 5 5 5 53 39 9 18 5 35 45 33 22 95 21 99 45 5 5 91 100 100 100 100 100 100 100 100 100 100 100 100 100 100 67 5 5 37 17
100 100 100 100 100 59 53 5 58 5 6 54 86 64 70 96 20 84 29 70 94 100 100 100 100 6 92 84 100 100 100 100 100 100 100 100 100 100 100 42 17 100 38 96 5 5 19
100 100 100 100 100 16 31 34 62 46 10 79 80 92 97 6 5 17 12 61 100 100 100 100 100 100 98 100 100 100 100 100 100 100 100 100 100 100 100 45 54 94 14 36 99 37 23
100 100 100 100 66 60 28 5 12 77 94 27 12 56 94 60 30 9 12 100 100 100 100 100 100 100 100 100 100 100 100 98 100 100 100 100 100 72 89 25 41 41 37 15 78 54 22
100 100 100 100 100 98 100 58 79 88 87 94 60 82 100 98 64 4 46 100 100 100 100 100 100 100 100 100 100 100 100 100 34 92 91 78 100 100 57 71 6 8 80 5 52 30 100
100 100 100 100 100 100 100 44 75 100 99 100 100 100 99 75 2 8 9 100 100 100 100 100 100 100 100 98 100 100 100 100 100 51 100 99 100 89 86 8 31 99 22 4 42 99 100
100 100 100 100 100 100 100 35 16 93 92 97 100 88 100 75 6 5 92 100 83 100 100 100 100 100 92 100 98 91 64 100 100 80 100 67 95 91 100 85 99 100 94 3 71 100 100
100 100 100 100 100 100 100 19 25 99 60 94 100 100 100 62 6 5 12 100 97 82 96 100 100 100 100 95 100 100 100 100 82 8 35 71 83 91 100 97 100 100 99 74 100 100 100
100 100 100 100 100 100 88 62 100 100 79 94 100 100 100 98 5 5 3 99 27 14 98 100 100 100 100 100 100 100 100 52 86 83 94 100 100 100 100 100 100 100 100 100 100 100 100

GFSGBSN_prec_cloud_090.txt.gz
Cloud_Cover
100 15 9 81 100 100 100 100 16 61 94 100 100 100 98 100 100 80 24 14 48 80 99 92 98 100 63 82 77 6 29 5 2 5 100 99 98 58 42 95 100 100 100 100 100 100 100
100 100 100 100 100 99 100 100 100 85 100 100 54 80 96 83 100 79 62 12 5 6 93 98 87 98 58 39 33 9 1 3 3 4 80 99 100 100 27 19 100 94 100 100 100 100 100
100 100 100 100 100 100 100 100 100 100 98 89 7 5 26 6 5 5 5 2 0 0 6 5 12 5 4 5 3 0 0 7 10 5 72 100 100 100 100 39 90 100 100 100 100 100 100
100 100 98 98 100 100 100 100 100 100 78 22 100 5 5 53 5 5 2 2 4 2 0 0 29 0 0 0 0 0 0 0 34 40 96 100 99 100 100 100 100 100 100 100 100 100 100
100 100 100 100 100 100 100 100 100 100 100 100 100 66 27 7 5 5 5 5 5 0 3 0 10 0 0 0 0 0 0 0 0 69 75 100 100 100 100 100 100 100 100 100 100 100 100
100 100 100 100 100 100 100 100 100 100 100 100 100 5 30 28 1 2 5 2 5 0 0 0 1 0 0 0 0 0 3 3 0 44 100 99 100 98 100 100 100 100 100 100 100 100 100
100 100 100 100 100 100 100 100 100 100 100 100 74 100 100 5 5 26 94 5 0 4 5 0 0 0 0 0 0 0 5 5 0 3 100 100 100 97 100 100 100 100 100 100 100 100 100
100 100 100 100 100 100 100 100 100 100 100 100 98 34 31 99 60 90 10 5 7 5 36 14 0 0 0 0 0 0 4 5 5 2 100 100 100 100 100 100 100 100 100 100 100 100 100
100 100 100 100 100 100 100 100 100 97 100 100 100 100 100 69 12 6 0 5 1 6 60 0 0 0 0 0 0 0 0 0 1 0 87 100 100 100 100 100 100 100 100 100 100 100 100
100 100 100 100 100 100 100 100 100 100 100 98 100 100 100 53 43 8 5 6 5 2 3 0 0 1 0 0 0 0 0 1 0 0 8 10 100 100 100 100 100 100 100 100 100 100 100
100 100 100 100 100 100 100 100 100 100 100 100 98 100 100 17 9 43 9 5 0 74 0 0 0 0 0 0 0 0 3 0 5 0 27 7 100 100 100 100 100 100 100 100 100 100 100
100 100 100 100 100 100 100 100 100 100 100 100 100 92 95 76 75 61 19 2 1 2 0 0 0 0 0 0 0 0 0 45 5 4 5 42 94 100 100 100 100 100 100 100 100 100 50
100 100 100 100 100 100 100 100 100 100 100 100 100 100 100 100 100 69 5 0 2 0 0 0 0 0 0 0 0 5 4 65 99 35 5 91 88 100 100 100 100 100 100 100 100 100 100
100 100 100 100 100 100 100 100 100 100 100 100 92 19 32 89 68 6 5 2 0 0 0 3 4 0 0 26 3 20 42 97 99 100 98 100 100 100 100 100 100 100 100 100 100 100 80
100 100 100 100 100 100 100 100 100 100 100 100 64 31 77 33 6 5 5 0 0 3 52 39 0 0 64 95 46 5 2 100 96 100 100 100 93 100 100 100 100 100 100 100 99 100 100
100 100 100 100 100 100 100 100 100 100 100 100 88 11 98 12 5 7 10 0 1 5 5 5 5 78 100 100 43 5 3 73 100 100 100 99 91 100 100 100 100 100 100 100 100 96 89
100 100 100 100 100 100 100 100 100 100 91 57 10 39 8 5 8 42 35 5 5 5 58 23 82 83 77 5 5 3 76 100 100 100 100 72 91 100 100 100 100 100 100 100 100 100 100
100 100 100 100 100 100 100 100 100 100 75 53 84 10 4 4 66 32 67 6 6 5 68 94 21 8 91 97 99 99 100 100 100 100 64 100 100 100 100 100 100 100 100 100 100 100 100
100 100 100 100 62 100 100 100 96 100 73 95 12 8 5 32 48 46 80 68 68 41 100 100 99 88 99 100 90 99 100 100 100 100 100 50 99 100 100 100 100 100 100 100 100 100 100
100 100 100 100 100 100 100 99 100 99 26 7 9 54 5 5 32 54 79 37 99 100 38 100 100 98 96 100 100 100 100 99 98 100 100 99 98 100 100 100 100 100 100 100 100 100 94
100 100 100 100 100 100 96 100 100 100 84 10 11 25 13 61 95 80 84 81 95 100 99 100 91 100 98 86 84 100 100 100 100 100 100 100 100 63 49 100 100 100 100 100 100 91 40
100 100 100 100 100 72 90 100 100 78 5 15 55 52 77 87 91 92 63 91 100 100 100 100 100 100 98 97 100 100 100 100 100 100 100 100 100 100 100 100 100 99 100 100 98 25 17
100 100 100 100 100 100 100 100 100 5 7 66 41 41 72 34 64 84 52 96 90 100 95 100 100 100 92 35 100 100 100 100 100 100 100 100 100 100 100 100 87 100 76 88 15 15 88
100 100 100 100 100 100 100 80 78 10 9 58 52 84 99 54 42 12 5 32 94 100 100 100 100 100 95 99 100 100 100 100 100 100 100 100 100 100 100 82 99 90 95 59 29 73 100
100 100 100 100 100 100 99 100 30 21 44 79 27 73 96 99 88 16 5 8 100 100 100 100 96 100 92 100 100 100 100 100 100 100 100 100 100 100 100 100 99 100 96 95 100 100 100
100 100 100 100 100 51 62 14 5 16 98 82 86 88 95 94 81 2 6 99 87 100 100 100 100 100 100 100 100 100 100 100 100 100 100 100 100 100 100 100 93 49 30 67 66 100 100
100 100 100 100 100 100 45 5 5 24 68 86 100 100 100 100 64 5 66 43 66 66 100 100 100 82 99 100 100 100 100 100 100 100 100 100 100 97 87 100 100 91 37 12 92 100 100
100 100 100 100 100 83 20 49 5 5 66 76 100 97 100 97 80 42 5 32 93 97 82 77 100 100 71 100 100 100 100 100 100 100 90 100 98 100 98 100 99 80 34 67 100 100 100
100 100 100 100 100 73 72 12 5 5 75 53 98 94 100 100 99 57 5 5 5 70 88 96 80 100 100 100 100 100 98 100 100 100 99 97 96 100 100 100 100 100 100 100 100 100 100

GFSGBSN_prec_cloud_096.txt.gz
Cloud_Cover
100 100 100 100 100 100 100 100 100 100 94 100 100 100 100 100 100 100 100 100 100 100 100 100 100 74 76 47 20 10 30 5 28 5 5 5 5 3 5 5 5 5 80 51 96 64 5
100 100 100 100 100 100 100 100 100 100 100 71 99 100 100 100 100 100 100 100 100 76 100 100 100 100 98 40 8 98 19 36 5 5 5 5 4 4 1 19 7 4 5 5 5 29 30
100 100 100 100 100 100 100 100 100 100 100 100 5 92 99 100 100 100 100 100 100 100 100 100 100 96 99 51 77 5 64 93 3 0 0 0 0 5 5 4 1 3 1 2 0 4 5
100 100 100 100 100 100 100 100 100 100 77 100 22 70 99 82 31 100 100 100 99 48 93 100 94 26 53 93 5 6 87 2 0 2 0 0 0 0 0 0 0 0 0 0 0 27 37
100 100 100 100 100 100 100 100 100 100 100 100 73 100 100 100 100 100 100 100 100 100 57 43 44 96 83 32 21 100 100 2 5 0 0 0 0 0 0 0 0 0 0 0 0 18 99
100 100 100 100 100 100 100 100 100 100 100 100 100 100 100 100 100 100 100 100 100 68 28 9 97 100 84 98 100 9 1 1 0 0 0 0 0 0 0 0 0 0 0 0 0 0 100
100 100 100 100 100 100 100 100 100 100 100 100 100 100 100 100 100 100 100 100 100 100 48 64 56 100 100 68 3 5 0 0 0 0 0 0 0 0 0 0 0 0 0 0 0 0 100
100 100 100 100 100 100 100 100 100 100 100 100 100 100 100 100 100 100 100 100 100 100 100 100 100 59 12 5 2 0 0 0 0 0 0 0 0 0 0 0 0 2 1 0 0 2 100
100 100 100 100 100 100 100 100 100 100 100 100 100 100 100 100 100 100 100 100 100 100 96 100 99 32 5 0 0 0 0 0 0 0 0 0 0 3 8 1 0 4 5 17 3 98 100
100 100 100 100 100 100 100 100 100 100 100 100 100 100 100 100 100 100 100 100 100 100 19 5 4 0 2 5 0 0 0 0 0 3 29 11 4 0 4 87 65 1 50 90 63 100 100
100 100 100 100 100 100 100 100 100 100 100 100 100 100 100 100 100 100 100 100 100 100 74 0 0 0 0 0 0 0 0 0 0 0 26 0 5 11 1 6 100 77 20 68 99 100 99
100 100 100 100 100 100 100 100 100 100 100 100 100 100 100 100 100 100 100 98 30 86 61 62 3 1 0 0 0 0 0 0 0 53 100 12 0 54 100 14 86 47 100 32 100 100 76
100 100 100 100 94 100 100 97 100 100 100 100 100 100 100 100 100 100 100 98 99 94 19 49 34 0 0 0 0 0 0 0 9 97 99 98 90 93 89 2 27 100 60 100 100 100 83
100 100 100 100 100 100 100 100 100 100 100 100 100 100 100 100 100 100 100 100 90 97 96 70 5 1 0 0 4 4 1 5 61 100 5 58 1 65 100 15 77 84 81 18 100 100 100
100 100 100 100 100 100 100 100 100 100 100 100 100 100 100 100 100 100 100 100 100 95 11 5 5 0 0 13 45 62 75 17 63 62 96 95 12 99 100 28 95 34 85 66 100 100 100
100 100 100 100 100 100 100 100 100 100 100 100 100 100 100 100 100 100 100 100 99 6 5 0 5 24 83 92 62 81 83 79 58 5 52 19 98 51 93 100 100 86 54 98 100 100 100
100 100 100 100 100 100 100 100 100 100 100 100 100 100 100 100 100 100 89 58 23 10 2 1 81 100 100 100 99 100 100 58 35 20 5 98 77 100 100 94 58 47 62 100 100 100 100
100 100 100 100 100 100 100 100 100 100 100 100 100 100 100 100 100 82 75 8 3 5 5 7 12 100 100 100 100 100 100 100 93 67 49 100 100 100 100 87 94 100 94 100 100 100 100
100 100 100 100 100 100 100 100 100 100 100 100 100 100 100 100 100 93 70 27 3 43 6 100 100 83 100 100 77 90 43 40 46 5 95 100 94 100 100 52 27 62 100 100 100 100 100
100 100 100 100 100 100 100 100 100 100 100 100 100 100 100 100 24 15 8 20 5 12 95 100 79 92 100 100 100 100 64 90 93 48 100 100 100 99 100 92 65 88 100 100 100 100 100
100 100 100 100 100 100 100 100 100 100 100 100 100 100 100 100 94 61 10 5 55 98 56 96 99 100 100 90 95 57 89 100 100 99 100 100 100 100 98 100 100 100 100 100 100 100 100
100 100 100 100 100 100 100 100 100 100 100 100 100 100 100 85 84 16 56 83 98 98 88 98 99 100 100 97 100 100 98 100 100 100 100 100 100 100 100 100 100 100 100 100 100 100 100
100 100 100 100 100 100 100 100 100 100 100 100 100 100 100 100 77 57 45 30 63 70 30 97 99 94 92 92 100 100 100 100 100 100 100 100 100 100 100 100 100 100 100 100 100 100 100
100 100 100 100 100 100 100 100 100 100 100 100 100 100 100 70 66 50 24 86 49 73 62 20 97 85 42 99 100 100 100 99 100 100 100 100 100 100 100 100 100 100 100 100 100 100 100
100 100 100 100 100 100 100 100 100 100 100 100 100 100 71 41 100 70 27 30 100 85 5 71 49 98 99 100 100 100 100 100 100 100 100 100 100 100 100 100 98 27 100 100 100 100 100
100 100 100 100 100 100 100 100 100 100 100 100 100 100 100 94 100 97 5 100 97 78 95 100 85 90 100 100 100 100 100 100 100 85 99 100 76 56 13 10 96 91 64 100 100 100 100
100 100 100 100 100 100 100 100 100 100 100 97 75 36 70 94 99 77 61 47 99 96 96 100 30 100 100 100 100 100 100 100 100 100 100 100 98 100 95 100 100 100 100 100 100 100 100
100 100 100 100 100 100 100 100 100 100 100 76 96 57 84 96 5 38 28 75 63 78 98 6 54 98 100 100 100 100 100 100 100 100 100 100 100 100 100 100 100 100 95 89 100 100 100
100 100 100 100 100 100 100 100 100 100 100 100 89 83 86 30 10 2 0 5 5 6 56 13 100 99 100 100 100 94 100 100 100 100 100 100 100 100 100 100 100 100 100 100 100 100 100

GFSGBSN_prec_cloud_099.txt.gz
Cloud_Cover
86 99 98 99 100 100 100 100 100 100 98 100 100 98 100 100 100 100 100 26 69 100 100 100 100 100 100 64 96 100 11 37 95 100 40 31 0 0 0 5 0 0 0 0 0 5 4
100 100 100 100 100 100 100 100 100 100 100 100 100 100 100 100 100 100 100 27 74 100 100 100 99 100 100 100 96 100 100 98 100 100 5 3 6 5 84 4 4 0 0 0 0 0 6
100 100 100 100 100 100 100 100 100 100 100 100 100 100 100 100 100 89 17 5 5 14 93 100 81 99 100 100 100 100 100 95 71 100 26 16 90 94 56 1 0 0 0 0 0 0 0
100 100 100 100 100 100 100 100 100 100 100 100 100 100 100 100 100 100 12 47 5 5 49 100 90 100 100 97 100 64 100 99 87 100 46 100 100 10 0 0 0 0 0 0 0 0 4
100 100 100 100 100 100 100 100 100 100 100 100 100 100 100 100 100 100 99 98 100 100 100 100 67 100 71 83 68 72 93 61 6 56 100 100 43 5 0 0 0 0 0 0 0 0 0
100 100 100 100 100 100 100 100 100 100 100 100 100 100 100 100 67 72 52 100 67 99 100 99 89 68 90 100 100 100 100 100 100 100 100 42 2 0 0 0 0 0 0 0 0 0 0
100 100 100 100 100 100 100 100 100 100 100 100 100 100 100 100 86 80 69 90 100 100 100 100 100 99 100 100 100 100 100 100 98 6 25 0 0 0 0 0 0 0 0 0 0 0 0
100 100 100 100 100 100 100 100 100 100 100 100 100 100 100 100 100 99 70 93 100 100 100 100 99 54 84 100 100 100 100 34 0 0 0 0 0 0 0 0 0 0 0 0 0 0 0
100 100 100 100 100 100 100 100 100 100 100 100 100 100 100 100 100 100 100 100 100 100 95 100 80 100 93 100 100 82 5 0 0 0 0 0 0 0 0 0 35 34 7 0 0 0 47
100 100 100 100 100 100 100 100 100 100 100 100 100 100 100 100 100 100 100 100 100 100 100 100 89 79 58 100 56 44 2 0 0 0 0 0 0 3 0 2 7 100 65 39 2 3 81
100 100 100 100 100 100 100 100 96 100 100 100 100 100 100 100 100 100 100 100 100 100 100 100 100 100 100 100 99 25 5 0 3 0 0 0 0 0 0 1 4 7 90 94 100 100 100
100 100 100 100 100 100 100 100 100 100 100 100 100 100 100 100 100 100 100 100 100 100 100 74 98 99 97 99 78 6 37 2 0 0 0 0 0 16 0 0 93 9 100 100 100 75 62
100 100 100 100 100 100 100 100 98 100 100 100 100 96 100 97 91 100 100 100 100 100 42 60 75 97 23 5 2 4 3 0 0 3 0 0 0 0 43 98 19 97 82 83 100 41 35
100 100 100 100 100 100 100 100 100 100 100 100 100 100 100 92 100 97 99 100 100 100 100 100 100 100 72 5 2 1 4 5 0 9 74 5 4 9 100 99 93 12 18 67 15 4 4
100 100 100 100 100 100 100 100 100 100 100 100 100 100 100 100 100 100 100 100 95 84 100 100 100 79 67 25 0 0 0 4 20 69 5 5 0 97 81 27 61 96 6 100 100 100 100
100 100 100 100 100 100 100 100 100 100 100 100 100 100 100 100 100 100 100 100 100 100 100 98 37 29 5 2 0 4 0 0 5 29 41 18 41 2 89 75 84 39 100 100 100 100 91
100 100 100 100 100 100 100 100 100 100 100 100 100 100 100 100 100 100 100 100 100 100 100 94 73 28 5 0 1 5 18 73 99 70 86 29 18 95 19 100 98 63 100 71 100 98 100
100 100 100 100 100 100 100 100 100 100 100 100 100 100 100 100 100 100 100 100 100 100 100 100 21 5 5 3 5 5 3 12 46 81 5 24 80 88 99 100 100 100 100 100 99 100 100
100 100 100 100 100 100 100 100 100 100 100 100 100 100 100 100 100 100 100 100 100 100 95 5 5 5 8 4 41 71 98 89 30 68 41 100 47 100 100 100 100 100 100 86 98 100 100
100 100 100 100 100 100 100 100 100 100 100 100 100 100 100 100 100 100 100 100 100 100 18 5 4 4 28 19 46 55 26 49 93 40 91 100 99 100 100 99 100 75 100 100 100 100 100
100 100 100 100 100 100 100 100 100 100 100 100 100 100 100 100 100 100 100 100 25 49 8 3 2 21 54 44 5 2 2 98 74 100 100 100 100 100 100 84 61 14 98 100 100 100 100
100 100 100 100 100 100 100 100 100 100 100 100 100 100 100 100 100 100 100 100 100 95 13 4 5 8 74 39 98 97 100 100 100 100 100 100 100 100 100 100 100 100 100 100 100 100 100
100 100 100 100 100 100 100 100 100 100 100 100 100 100 100 100 100 100 100 100 100 27 48 99 92 100 98 20 14 78 100 100 100 100 100 100 100 100 100 100 100 100 100 100 100 100 100
100 100 100 100 100 100 100 100 100 100 100 100 100 100 100 100 100 100 100 69 81 97 66 100 98 86 54 86 83 100 100 100 100 100 100 100 100 100 100 100 100 100 100 100 100 100 100
100 100 100 100 100 100 100 100 100 100 100 100 100 100 100 100 100 89 5 6 42 100 65 17 6 69 93 100 100 96 91 100 100 100 100 100 100 100 100 100 100 100 100 100 100 100 100
100 100 100 100 100 100 100 100 100 100 100 100 100 100 100 99 20 32 5 54 8 5 5 62 98 97 86 100 100 100 100 100 100 100 100 100 100 100 100 100 100 100 100 100 100 100 100
100 100 100 100 100 100 100 100 100 100 100 100 100 100 100 28 7 5 4 3 5 6 5 19 99 100 100 100 88 81 100 100 100 100 100 100 100 100 100 100 100 100 100 100 100 100 100
100 100 100 100 100 100 100 100 100 100 100 100 100 100 97 76 6 2 1 2 0 3 5 3 67 100 100 94 41 100 100 100 100 100 100 100 100 100 100 100 100 100 86 48 100 100 100
100 100 100 100 100 100 100 100 100 100 100 100 100 100 98 6 4 2 2 0 0 0 5 83 100 100 100 85 70 100 100 100 100 100 100 100 100 100 100 100 100 100 100 100 63 61 100

GFSGBSN_prec_cloud_102.txt.gz
Cloud_Cover
75 100 100 100 100 98 31 48 100 100 100 100 88 98 100 100 100 100 100 97 100 100 99 100 100 100 100 100 7 96 100 100 94 47 27 100 73 100 93 20 4 0 29 63 100 30 2
94 99 95 100 100 100 96 100 100 100 100 100 100 100 100 100 100 95 100 100 100 99 100 100 100 100 83 15 6 98 98 100 100 100 99 100 100 100 28 100 82 76 100 100 100 35 5
100 100 100 100 100 100 100 100 100 100 100 100 100 100 100 100 99 100 100 64 100 100 75 100 100 73 13 16 5 28 43 100 96 76 62 29 90 99 85 80 99 99 68 100 99 24 1
97 100 100 100 100 100 100 100 100 100 100 100 80 95 100 100 100 74 24 87 99 75 79 100 85 38 93 9 5 77 92 100 59 5 44 74 84 100 100 100 100 100 100 97 100 100 18
100 100 100 100 100 100 100 100 100 91 48 100 100 99 71 98 95 90 95 87 71 59 92 100 100 100 100 100 93 31 76 95 7 96 51 100 70 100 100 100 100 63 1 0 2 4 0
100 100 100 100 100 100 100 100 100 99 100 100 100 99 37 95 97 34 74 56 98 85 72 54 74 95 85 95 100 100 99 29 28 7 8 49 57 92 100 100 10 1 0 0 0 25 0
100 100 100 100 100 100 100 100 100 100 100 100 100 100 100 100 74 88 80 88 91 70 68 70 96 9 99 79 93 100 94 43 57 6 74 14 67 100 100 90 4 0 0 0 0 0 0
100 100 100 100 100 100 100 100 100 100 100 100 100 100 100 100 97 46 78 80 56 97 99 93 27 39 100 99 86 100 100 86 87 36 100 100 100 100 85 18 4 5 16 4 0 0 0
100 100 100 100 100 100 100 100 100 100 100 100 100 100 100 100 100 100 100 100 94 58 47 100 100 98 100 100 100 100 92 100 100 77 100 88 92 100 91 2 4 10 60 0 2 1 0
100 100 100 100 100 100 87 100 100 100 100 93 91 100 100 100 100 100 100 100 100 100 100 100 100 100 100 99 100 100 19 5 9 100 100 95 81 10 5 8 6 4 0 4 21 44 55
100 100 100 100 100 100 100 100 100 100 100 95 100 100 77 99 100 100 100 100 100 100 100 100 100 100 100 100 100 100 100 100 100 84 6 34 5 5 4 0 0 0 0 10 34 100 37
99 100 100 100 100 100 100 100 100 100 100 100 100 100 74 86 100 100 100 100 100 100 100 100 100 100 100 100 95 91 83 55 63 100 45 1 6 0 0 0 0 0 0 23 100 75 75
100 100 100 100 100 100 100 100 100 100 100 100 100 98 100 88 85 71 100 100 100 95 100 73 100 100 100 99 84 99 98 98 58 11 5 5 3 0 0 0 0 0 72 57 48 23 20
100 100 100 100 100 100 100 91 100 100 100 100 100 99 90 100 97 99 98 100 94 8 92 100 100 100 73 19 5 7 4 10 6 5 5 6 0 0 4 14 9 0 11 94 60 6 21
100 100 100 100 100 100 100 100 100 100 100 100 100 96 100 100 100 100 100 98 71 99 100 100 99 100 100 97 6 5 5 5 4 8 21 5 6 0 0 1 36 2 3 12 5 40 94
100 100 100 100 100 100 100 100 100 100 100 100 100 100 100 100 100 100 94 100 100 100 100 100 100 81 100 100 78 28 46 44 5 42 52 26 35 0 5 1 2 8 93 72 66 100 100
100 100 100 100 100 100 100 100 100 100 100 100 100 100 100 100 100 100 100 100 100 100 100 100 100 100 100 100 100 71 8 2 13 26 50 28 10 4 0 70 72 61 48 100 94 83 100
100 100 100 100 100 100 100 100 100 100 100 100 100 100 100 100 100 100 100 100 100 100 100 100 100 100 96 91 12 5 0 64 3 5 5 7 55 59 92 100 100 100 100 99 98 100 100
100 100 100 100 100 100 100 100 100 100 100 100 100 100 100 100 100 100 100 100 100 100 100 100 100 100 86 42 28 5 4 17 92 48 76 87 72 64 78 83 96 100 100 100 100 100 100
100 100 100 100 100 100 100 100 100 100 100 100 100 100 100 100 100 100 100 100 100 100 100 100 100 100 100 19 20 15 1 1 3 4 60 78 100 99 100 100 100 100 100 100 100 100 100
100 100 100 100 100 100 100 100 100 100 100 100 100 100 100 100 100 100 100 100 100 100 100 100 98 87 18 19 5 4 5 7 4 5 78 100 100 100 77 100 100 99 97 100 100 100 100
100 100 100 100 100 100 100 100 100 100 100 100 100 100 100 100 100 100 100 100 100 100 100 66 54 5 13 6 5 51 8 57 98 100 100 100 100 100 100 100 100 100 100 100 100 100 100
100 100 100 100 100 100 100 100 100 100 100 100 100 100 100 100 100 100 100 100 100 100 100 86 45 58 97 31 84 100 89 96 100 100 100 100 100 100 100 100 100 83 100 100 100 100 100
100 100 100 100 100 100 100 100 100 100 100 100 100 100 100 100 100 100 100 100 100 100 6 14 68 100 89 100 93 27 91 100 100 100 100 100 100 100 100 100 100 100 100 100 100 100 100
100 100 100 100 100 100 100 100 100 100 100 100 100 100 100 100 100 100 100 100 48 5 5 5 5 87 100 99 92 100 100 100 100 100 100 100 100 100 100 100 100 100 100 100 100 100 100
100 100 100 100 100 100 100 100 100 100 100 100 100 100 100 100 100 100 100 67 28 5 1 0 20 84 10 100 100 100 100 100 100 100 100 100 100 100 100 100 100 100 100 100 100 100 100
100 100 100 100 100 100 100 100 98 98 100 94 100 100 100 100 100 100 92 10 5 0 2 4 13 92 99 100 100 100 100 100 100 100 100 100 100 100 100 100 100 100 100 100 100 100 100
100 100 100 100 100 100 100 100 100 100 100 100 100 100 100 100 94 21 5 5 1 1 5 4 45 98 100 91 100 100 100 100 100 100 100 100 100 100 100 100 100 100 100 100 100 100 100
100 100 100 100 100 100 100 100 100 100 100 100 99 97 100 83 7 5 5 0 0 0 3 7 56 98 100 13 100 100 96 100 100 100 100 100 100 100 100 100 100 100 100 100 94 100 100

GFSGBSN_prec_cloud_105.txt.gz
Cloud_Cover
100 100 100 100 100 100 100 100 100 48 79 71 100 100 67 5 5 5 7 5 6 5 6 99 100 100 99 100 68 100 100 100 100 100 46 53 5 5 5 5 20 41 100 100 100 100 100
100 100 100 100 100 98 99 100 100 70 100 16 92 100 76 35 52 22 100 5 5 5 5 83 99 97 100 100 100 100 100 100 100 100 17 5 5 5 5 98 100 89 90 5 12 100 100
100 100 100 100 100 100 100 100 99 100 36 100 38 37 5 5 5 5 5 5 5 35 16 92 100 100 85 95 97 100 100 100 18 15 12 20 6 4 4 7 5 5 5 100 100 100 100
100 100 100 100 94 100 100 100 100 100 89 100 6 85 12 91 27 5 5 5 5 5 63 100 87 100 100 98 100 47 31 92 70 98 5 5 5 6 3 5 5 4 4 61 100 100 100
100 100 100 100 100 100 98 100 100 100 70 100 79 39 77 5 51 23 5 5 5 5 59 100 11 33 95 88 85 40 45 99 43 5 5 82 6 4 50 33 6 9 3 4 12 99 100
100 100 100 100 100 100 100 100 100 100 100 100 97 68 66 89 86 56 78 5 5 12 5 12 63 8 29 6 7 5 40 58 14 22 95 100 29 5 91 99 85 79 7 3 64 92 100
74 100 95 100 100 100 100 100 100 100 100 100 100 100 71 100 91 98 58 100 6 39 6 5 10 5 65 48 89 41 49 45 68 7 66 12 57 98 100 100 88 13 1 5 99 100 100
23 43 92 100 100 100 100 100 100 100 100 100 100 100 100 100 32 72 80 68 87 96 28 15 87 38 69 8 51 100 13 16 26 5 8 69 44 99 100 100 100 97 86 86 100 100 40
87 25 100 100 100 100 100 100 100 100 100 100 100 100 100 100 14 96 91 78 71 43 99 100 99 72 66 88 86 97 100 100 100 79 24 98 100 46 53 29 5 6 100 100 100 100 5
100 100 100 100 100 100 100 100 100 100 100 100 100 100 100 100 100 83 84 30 83 80 34 100 100 100 99 100 100 100 100 100 100 100 96 77 88 75 14 96 100 11 95 40 26 12 4
100 100 100 100 100 100 100 100 100 100 100 100 100 100 100 100 100 100 100 48 81 11 51 5 57 100 100 100 100 100 100 100 100 100 100 100 100 100 100 80 100 83 100 100 46 0 0
100 93 100 99 100 100 100 100 100 100 100 100 100 100 100 100 100 100 100 98 78 57 6 5 5 100 99 100 76 93 100 100 100 98 100 72 58 87 100 100 42 5 5 1 3 4 2
100 92 26 99 100 100 100 100 100 100 100 100 100 100 100 100 100 100 100 100 90 35 9 0 5 86 100 100 99 100 100 100 72 42 76 88 70 33 5 6 26 40 5 4 8 1 2
100 15 100 100 100 100 100 100 100 100 100 100 100 100 100 100 100 100 100 100 34 2 5 6 61 96 100 100 92 100 100 100 100 100 96 100 62 100 100 82 13 1 22 88 8 4 4
31 28 100 100 100 100 100 100 100 100 100 100 100 100 100 85 100 99 64 100 58 6 58 97 97 95 58 100 100 100 100 100 100 98 44 5 3 4 2 0 3 0 0 9 78 6 17
72 97 100 100 100 100 100 100 100 100 100 100 100 100 97 100 100 100 100 97 89 100 100 100 100 99 99 100 89 99 98 100 98 89 80 48 43 0 0 0 2 1 51 28 91 44 98
100 100 100 100 100 100 100 100 100 100 100 100 100 100 100 100 100 100 100 100 100 100 100 100 100 100 100 100 100 81 98 100 100 96 5 2 4 2 0 0 8 67 69 91 89 78 100
100 100 100 100 100 100 100 100 100 100 100 100 100 100 100 100 100 100 100 100 100 100 100 100 100 100 100 99 100 85 100 84 48 5 3 2 66 74 29 94 75 94 100 100 100 100 100
100 100 100 100 100 100 100 100 100 100 100 100 100 100 100 100 100 100 100 100 100 100 100 100 100 100 100 100 100 100 90 10 0 0 5 6 77 78 100 100 96 99 100 100 100 100 100
100 100 100 100 100 100 100 100 100 100 100 100 100 100 100 100 100 100 100 100 100 100 100 100 100 100 100 97 49 13 5 2 2 2 1 21 97 85 25 96 100 100 100 100 100 100 100
100 100 100 100 100 100 100 100 100 100 100 100 100 100 100 100 100 95 100 100 100 100 100 97 100 100 100 69 74 13 3 4 1 2 62 98 100 100 100 100 100 100 100 100 100 100 100
100 100 100 100 100 100 100 100 100 100 100 100 100 100 100 100 100 100 100 100 100 100 100 72 100 100 100 100 49 7 100 64 69 34 100 100 100 100 100 100 100 100 100 100 100 100 100
100 100 100 100 100 100 100 100 100 100 100 100 100 100 100 100 100 100 100 100 100 100 100 100 100 100 99 71 100 83 92 93 99 100 100 100 100 100 100 100 100 100 100 100 100 100 100
100 100 100 100 100 100 100 100 100 100 100 100 100 100 100 100 100 100 100 100 100 100 100 100 100 74 61 76 18 5 7 91 100 100 100 100 100 100 100 100 100 100 100 100 100 100 100
100 100 100 100 100 100 100 100 100 100 100 100 100 100 100 100 100 100 100 100 100 100 100 100 18 6 50 6 92 18 94 99 100 100 100 100 100 100 100 100 100 100 100 100 100 100 100
100 100 100 100 100 100 100 100 100 100 100 100 100 100 100 100 100 100 100 100 100 100 100 26 5 5 6 31 57 68 100 100 100 100 100 100 100 100 100 100 100 100 100 100 100 100 100
100 100 100 100 100 100 100 100 100 100 100 100 100 100 100 100 100 100 100 100 100 87 15 5 1 48 15 61 52 100 100 100 99 99 100 100 100 100 100 100 100 100 100 100 100 100 100
100 100 100 100 100 100 100 100 100 100 100 100 100 100 100 100 100 100 100 34 5 5 5 4 5 49 87 95 79 15 100 100 100 100 100 100 100 100 100 100 100 100 100 100 100 100 100
100 100 100 100 100 100 100 100 100 100 100 100 100 100 100 100 100 100 14 5 5 4 2 45 4 5 92 98 100 81 100 100 100 100 100 100 100 100 100 100 100 100 100 100 100 100 100

GFSGBSN_prec_cloud_108.txt.gz
Cloud_Cover
100 100 100 100 100 100 100 100 100 100 100 100 100 100 15 5 5 4 2 0 5 5 7 2 5 5 5 44 50 43 93 100 96 98 93 100 100 97 100 100 100 8 46 63 13 96 99
100 100 100 100 100 100 100 100 100 100 100 100 100 100 100 35 5 5 4 5 5 47 8 5 5 5 5 54 5 11 65 89 79 100 100 100 100 96 20 60 31 48 52 5 17 94 4
100 100 100 100 100 100 100 100 100 100 100 100 100 100 100 98 5 5 5 3 5 5 5 67 95 28 13 7 5 54 47 100 100 100 100 100 100 99 23 78 90 91 45 9 31 5 5
100 100 100 100 100 100 100 100 100 100 100 100 100 100 94 79 44 5 5 5 5 5 5 83 20 65 40 6 40 18 100 76 96 100 100 100 88 11 36 92 6 1 1 5 5 5 4
100 100 100 100 100 100 100 100 100 100 100 100 100 100 99 64 45 76 5 5 17 9 5 10 37 34 27 21 23 15 86 92 81 98 100 85 77 100 100 29 5 5 4 4 4 2 5
100 100 100 100 100 100 100 100 100 100 100 100 100 100 100 100 19 94 5 5 5 7 5 5 32 11 20 79 60 96 54 38 31 5 31 57 28 88 52 37 1 5 0 0 0 5 19
100 100 100 100 100 100 100 100 100 100 100 100 100 100 100 100 100 97 23 6 5 24 100 50 11 29 28 22 42 36 35 35 10 6 74 26 5 22 95 26 4 1 1 1 5 5 5
100 100 100 100 100 100 100 100 100 100 100 100 100 100 100 100 100 100 90 94 81 19 29 98 92 100 91 6 5 7 5 5 5 5 5 11 7 99 56 7 5 10 15 44 0 30 5
100 100 100 100 100 100 100 100 100 100 100 100 100 100 100 100 100 98 76 100 100 82 6 5 78 100 60 98 14 63 54 93 24 85 87 86 33 40 57 84 78 100 98 72 10 64 98
100 100 100 100 100 100 100 100 100 100 100 100 100 100 100 100 100 100 100 100 100 100 74 71 98 51 99 100 99 26 41 33 100 100 100 100 100 100 100 100 100 100 100 97 20 51 48
100 100 100 100 100 100 100 100 100 100 100 100 100 100 100 100 100 100 100 100 100 100 100 98 86 100 100 82 77 100 100 100 100 100 100 96 69 100 100 100 100 100 100 100 100 84 53
100 100 100 100 100 100 100 100 100 100 100 100 100 100 100 100 100 100 100 100 100 100 100 91 99 68 86 99 58 92 87 100 100 96 97 100 100 100 100 100 100 100 100 100 99 100 43
99 100 100 100 100 100 100 100 100 100 100 100 100 100 100 100 100 100 100 100 100 100 99 97 94 100 100 92 69 5 69 80 65 22 94 100 100 100 100 100 100 95 44 96 79 79 4
5 85 100 100 100 100 100 100 100 100 100 100 100 100 100 100 100 96 100 100 100 100 100 100 100 63 100 100 84 98 100 93 100 65 98 100 100 100 100 100 46 12 17 62 6 4 5
4 1 1 100 98 100 100 100 100 100 100 100 100 100 100 100 94 100 100 100 98 88 100 90 99 96 100 86 72 78 100 92 98 65 97 79 92 98 100 97 79 89 100 100 66 0 5
0 7 50 100 88 100 100 100 100 100 100 100 100 100 97 98 95 94 86 100 56 86 99 100 95 100 100 100 99 100 100 93 100 100 100 90 51 100 100 58 64 91 74 62 96 87 69
80 89 84 100 100 100 100 100 100 100 100 100 100 100 100 76 100 100 40 84 91 98 100 100 100 100 100 99 99 100 100 100 100 100 100 100 100 92 22 7 2 4 36 83 70 47 73
100 100 100 100 100 100 100 100 100 100 100 100 100 100 87 100 97 94 98 99 100 100 100 100 100 100 100 100 100 100 100 100 100 100 100 85 57 82 0 88 61 10 48 69 100 100 100
100 97 100 100 100 100 100 100 100 100 100 100 100 88 100 100 100 100 100 100 100 100 100 100 100 100 99 100 100 100 100 100 100 73 3 56 34 40 43 100 100 100 98 100 100 100 100
100 100 100 100 100 100 100 100 100 100 100 100 100 94 100 100 100 100 100 100 100 100 100 100 100 100 100 100 100 100 100 76 5 1 2 5 47 14 100 92 99 100 100 100 100 100 100
100 100 100 100 100 100 100 100 100 100 100 100 100 96 100 100 100 100 100 100 100 100 100 100 100 100 100 100 100 100 86 5 0 4 4 34 98 94 100 100 100 100 100 100 100 100 100
100 100 100 100 100 100 100 100 100 100 100 100 100 100 100 100 100 100 100 100 100 100 100 100 100 100 100 100 100 100 75 74 5 6 79 100 100 96 100 100 100 100 100 100 100 100 100
100 100 100 100 100 100 100 100 100 100 100 100 100 100 100 100 100 100 100 100 100 100 100 100 100 100 100 100 99 81 97 93 46 100 100 100 100 100 100 100 100 100 100 100 100 100 100
100 100 100 100 100 100 100 100 100 100 100 100 100 100 100 100 97 100 100 100 100 100 100 100 100 100 100 100 38 12 8 13 100 100 100 100 100 100 100 100 100 100 100 100 100 100 100
100 100 100 100 100 100 100 100 100 100 100 100 100 100 100 100 97 100 100 100 100 100 100 100 100 100 100 96 94 20 79 99 100 100 100 100 100 100 100 100 100 100 100 100 100 100 100
100 100 100 100 100 100 100 100 100 100 100 100 100 100 97 90 100 100 100 100 100 100 100 100 100 98 9 18 97 75 80 100 100 100 100 100 100 100 100 100 100 100 100 100 100 100 100
100 100 100 100 100 100 100 100 100 100 100 100 98 100 100 100 100 100 100 100 100 100 100 100 50 5 4 6 36 62 69 100 100 100 100 100 100 100 100 100 100 100 100 100 100 100 100
100 100 100 100 100 100 100 100 100 99 100 100 93 98 100 100 100 100 100 100 100 100 26 5 5 5 76 22 5 70 100 100 100 100 100 100 100 100 100 100 100 100 100 100 100 100 100
100 100 100 100 100 100 100 100 100 100 100 100 100 100 100 100 100 99 100 100 21 6 5 15 5 5 5 99 88 83 100 100 100 100 100 100 100 100 100 100 100 100 100 100 100 100 100

GFSGBSN_prec_cloud_114.txt.gz
Cloud_Cover
100 100 100 100 100 100 100 100 100 100 100 100 100 100 100 100 100 100 100 100 100 82 100 100 100 100 100 100 100 100 91 80 18 5 4 5 13 85 9 36 5 55 99 100 100 100 100
100 100 100 100 100 100 100 100 100 100 100 100 100 100 99 100 100 100 100 100 71 100 99 100 100 100 100 100 100 100 100 100 100 9 5 5 5 5 26 6 47 12 50 100 100 100 100
100 100 100 100 100 100 100 100 100 100 100 100 100 100 100 100 100 100 100 100 100 100 100 100 100 100 100 100 100 100 100 100 100 64 12 2 0 2 5 6 7 5 19 100 100 100 100
100 100 100 100 100 100 100 100 100 100 100 100 100 100 100 100 100 100 100 100 100 100 100 100 100 93 100 100 100 100 100 100 100 68 5 6 2 0 5 17 5 5 5 44 58 100 100
100 100 100 100 100 100 100 100 100 100 100 100 100 100 100 100 100 100 100 100 100 99 100 100 74 85 99 100 100 100 100 100 100 57 46 33 33 0 3 5 5 5 4 12 95 100 100
100 95 100 100 100 100 100 100 100 100 100 100 100 100 100 100 100 100 100 100 100 100 94 100 98 29 74 100 100 100 98 48 69 81 71 7 5 0 12 21 12 16 5 5 5 64 100
100 100 10 99 100 100 100 100 100 100 100 100 100 100 100 100 100 100 100 99 99 52 100 100 93 48 45 5 99 73 12 24 6 84 43 16 5 7 0 5 4 23 50 5 6 16 7
92 100 93 25 100 100 100 100 100 100 100 100 100 100 100 100 100 100 100 96 100 100 94 100 100 100 23 97 31 19 16 5 66 20 4 4 5 1 3 5 4 5 5 66 36 5 5
65 72 100 100 100 100 100 100 100 100 100 100 100 100 100 100 100 100 100 100 95 93 73 80 100 100 42 93 26 10 49 12 21 6 24 5 9 4 5 43 82 17 5 5 9 5 6
100 100 100 100 100 100 100 100 100 100 100 100 100 100 100 100 100 100 100 100 100 100 100 100 66 9 99 100 24 42 34 79 45 31 98 66 73 96 100 96 100 100 91 96 100 36 6
100 100 100 100 100 100 100 100 100 100 100 100 100 100 100 100 100 100 100 99 100 100 100 6 3 1 5 5 5 5 5 5 60 6 22 76 5 5 5 7 29 100 100 100 100 99 40
100 100 100 100 100 100 100 100 100 100 100 100 100 100 100 100 100 100 100 100 100 100 88 5 5 10 5 22 17 47 91 4 5 6 93 100 86 5 99 100 100 100 100 100 100 100 93
5 26 95 100 100 100 100 100 100 100 100 100 100 100 100 100 100 100 100 100 100 100 12 18 91 100 100 22 91 60 80 90 70 74 94 25 20 21 100 100 100 100 100 100 100 62 5
5 5 5 13 20 100 100 100 100 100 100 100 100 100 100 100 100 100 100 100 100 11 29 98 38 49 81 47 50 99 100 100 100 100 100 74 100 38 100 100 100 100 100 100 75 73 97
5 4 2 0 5 31 46 100 100 100 100 100 100 100 100 100 100 100 100 100 86 16 36 41 19 84 45 8 67 98 90 100 100 100 100 93 99 100 100 100 100 99 100 100 100 65 36
5 5 3 4 2 13 1 5 31 87 100 100 100 100 100 100 100 100 66 76 33 85 29 49 49 6 5 15 69 99 94 100 100 100 84 90 99 98 87 100 100 100 80 100 99 98 100
7 5 2 1 5 10 3 0 2 100 100 100 100 100 100 100 100 100 94 51 23 46 94 78 88 76 20 98 94 88 100 97 24 83 100 100 100 100 100 100 100 85 92 100 100 100 100
5 25 4 5 2 0 1 0 51 100 100 100 100 100 100 100 100 100 84 92 24 79 99 41 88 98 100 95 99 79 97 100 100 100 96 100 100 100 100 100 47 6 99 100 100 99 100
5 5 5 2 2 0 0 2 100 100 98 100 100 100 100 100 100 99 85 33 97 74 100 53 94 98 100 100 100 99 100 100 100 78 100 100 100 100 97 96 92 100 83 100 62 62 100
5 5 4 3 0 0 3 17 100 100 98 100 100 100 100 100 96 100 99 91 35 81 9 42 99 100 100 100 99 99 100 100 100 100 100 100 97 32 70 94 42 100 100 85 100 100 99
5 5 39 6 3 0 5 26 100 100 100 100 100 90 18 95 100 87 47 31 89 74 59 97 100 100 100 100 100 100 100 100 100 100 88 62 29 10 5 5 78 86 99 97 100 100 100
100 99 47 5 16 14 5 68 100 100 100 100 100 16 63 61 81 68 84 74 100 100 100 100 100 92 87 90 100 100 100 100 100 76 7 81 28 86 100 48 89 100 100 100 100 100 100
100 85 100 14 89 41 0 100 100 100 100 100 100 35 78 13 78 67 37 100 100 100 100 100 100 100 100 100 100 100 100 74 86 72 76 100 93 100 93 88 100 100 100 100 100 100 100
97 99 52 51 100 24 100 100 100 100 100 100 100 56 69 73 71 89 100 100 100 100 99 98 100 100 100 100 100 100 92 79 100 87 94 100 100 100 98 95 100 100 100 100 100 100 100
100 42 54 99 57 100 100 100 100 100 100 100 97 86 90 100 100 100 100 100 100 100 100 100 100 100 100 100 100 100 100 100 100 100 100 99 100 100 100 98 100 100 100 100 100 100 100
100 100 100 100 100 100 100 100 100 100 100 100 100 100 100 100 100 100 100 100 100 100 100 100 100 100 100 100 100 96 100 93 90 100 98 100 100 100 99 100 100 100 100 100 100 100 100
100 100 100 100 100 100 100 100 100 100 100 100 100 100 100 100 100 100 100 100 100 100 100 100 100 100 100 100 100 100 100 95 99 100 100 100 100 97 100 100 100 100 100 100 100 100 100
100 100 100 100 100 100 100 100 100 100 100 100 100 100 100 100 100 100 100 100 100 100 100 100 100 100 100 100 100 96 94 98 96 88 100 100 100 100 100 100 100 100 100 100 100 100 100
100 100 100 100 100 100 100 100 100 100 100 100 100 100 96 95 100 100 100 100 100 100 100 100 100 100 100 98 33 72 100 100 93 99 100 100 96 100 100 100 100 100 100 100 100 100 81

GFSGBSN_prec_cloud_117.txt.gz
Cloud_Cover
100 100 100 100 100 100 100 100 100 94 100 100 100 100 100 100 100 100 100 100 100 100 100 100 100 100 100 100 92 14 23 100 100 100 100 100 100 85 100 84 21 10 58 30 8 5 30
100 100 100 100 100 100 100 100 100 100 100 100 100 100 100 100 100 100 100 100 100 100 100 100 100 100 100 100 100 5 76 84 99 100 100 100 100 97 98 31 5 5 5 8 24 23 20
100 100 100 100 100 100 100 100 100 100 100 100 100 100 100 100 100 100 100 100 98 100 100 100 100 100 100 100 100 97 6 66 57 100 97 100 100 100 100 19 5 5 5 5 5 10 63
100 100 100 100 100 100 100 100 100 100 100 100 100 100 100 100 100 100 100 100 100 100 100 100 100 100 100 100 100 100 100 98 91 100 100 100 100 100 100 100 15 5 5 4 3 5 19
100 100 100 100 100 100 100 100 100 100 100 100 100 100 100 100 100 100 100 100 100 100 100 100 100 100 100 100 100 100 100 84 100 100 100 100 100 87 81 100 87 7 5 5 5 3 5
58 95 96 100 100 100 100 100 100 100 100 100 100 100 100 100 100 100 100 100 100 100 100 100 100 100 100 100 100 100 100 100 16 76 100 100 88 5 12 24 54 84 58 28 52 11 0
8 18 100 40 100 100 98 77 100 75 100 100 100 100 100 100 100 100 97 100 100 100 100 100 100 100 100 100 100 100 100 100 100 100 95 5 18 10 80 51 95 80 93 69 0 0 0
55 12 91 100 44 100 97 100 100 100 75 100 100 100 100 100 100 100 100 91 100 97 16 86 79 52 98 83 92 100 100 100 100 100 8 5 5 5 5 6 19 5 17 1 0 0 0
57 88 53 100 100 100 100 100 100 100 100 52 100 100 100 100 100 100 100 100 77 69 21 3 8 71 29 100 64 100 64 100 100 92 99 72 34 13 5 5 0 0 0 0 0 0 0
94 83 59 5 22 100 100 100 100 100 100 100 100 100 100 100 100 100 100 100 14 100 61 38 0 16 86 100 100 100 100 100 100 100 10 5 15 8 88 2 21 5 44 3 4 2 0
38 61 100 100 100 92 100 100 100 100 100 100 100 100 100 100 100 100 100 100 97 92 100 2 2 5 5 99 95 97 100 97 98 8 5 16 4 5 5 38 62 41 95 96 100 13 46
100 24 85 100 100 100 100 100 100 100 100 100 100 100 100 100 100 100 100 100 100 100 49 10 50 18 22 96 8 8 96 33 40 6 0 2 4 0 0 0 6 61 79 91 62 99 53
53 91 99 100 100 100 100 100 100 100 100 100 100 100 100 100 100 100 100 100 100 99 100 28 100 100 19 14 99 100 14 6 4 0 4 5 5 5 10 94 31 5 50 20 80 100 48
17 7 46 56 5 31 100 100 100 100 100 100 100 100 100 100 100 100 100 100 100 100 100 7 60 100 94 51 100 100 87 26 5 5 6 94 98 99 65 100 100 95 95 100 78 100 99
21 38 17 5 14 5 3 70 97 99 97 100 100 100 100 100 100 100 100 100 100 100 100 98 100 100 100 100 100 100 82 85 85 45 46 96 100 100 100 100 89 14 6 98 54 80 84
26 4 64 87 1 4 0 1 5 1 40 100 100 100 100 100 100 100 100 100 94 100 92 100 100 99 100 71 30 4 11 3 5 11 92 100 98 100 77 79 5 5 86 64 98 100 100
37 24 5 30 69 5 2 0 0 3 89 100 100 100 100 100 100 100 100 93 97 74 52 89 99 89 44 98 8 77 34 44 3 5 18 96 17 58 5 18 17 49 100 99 100 100 100
18 6 0 29 56 5 5 0 5 11 100 100 100 100 100 100 100 100 96 74 33 75 9 32 9 65 9 100 5 7 82 65 2 57 75 48 96 84 8 79 99 100 86 99 100 100 100
3 4 0 29 77 54 6 4 5 46 100 100 100 100 100 100 100 76 49 77 66 82 5 5 2 8 27 96 60 30 12 25 99 99 100 96 20 83 100 100 95 100 90 61 99 94 83
5 25 17 5 37 83 17 5 4 48 100 100 100 100 100 100 100 65 99 54 88 5 21 5 15 27 97 88 26 67 100 34 55 86 95 47 100 100 100 100 100 100 98 92 89 86 96
5 5 5 5 5 85 51 3 0 63 100 100 100 100 29 94 100 100 100 85 97 46 17 22 9 22 98 100 100 90 72 28 85 94 97 100 100 100 96 40 26 64 75 100 100 65 100
5 5 5 5 5 22 8 5 0 64 100 100 98 100 96 99 99 99 100 72 100 99 5 5 9 100 100 100 100 82 50 96 94 100 100 100 100 28 5 5 78 95 82 100 100 100 100
7 45 7 5 5 5 30 30 0 61 100 100 52 100 100 100 99 97 79 73 88 100 6 69 100 100 100 87 100 100 97 99 100 100 100 92 66 89 89 91 35 83 100 100 100 100 100
100 98 98 19 5 65 5 26 5 69 100 100 100 100 84 65 80 25 82 84 100 42 92 100 100 100 100 78 95 99 100 100 100 100 100 70 98 100 97 90 100 100 100 100 100 100 100
100 100 100 92 100 80 5 5 5 78 100 100 100 76 100 86 90 100 99 100 100 100 100 100 100 100 100 100 100 100 100 100 100 100 98 100 100 100 95 100 90 100 100 100 100 100 100
100 100 100 100 100 41 5 5 15 86 100 100 100 100 100 85 98 80 95 93 100 100 100 100 100 100 100 100 100 100 100 100 96 97 86 100 100 100 100 100 100 100 100 100 100 100 100
100 100 89 100 100 29 94 71 56 100 100 100 100 100 100 100 47 90 100 100 100 100 100 100 100 100 100 100 100 100 100 98 92 100 82 100 100 82 100 100 100 100 100 99 100 100 100
100 100 100 100 33 88 76 100 100 100 100 100 100 100 100 83 100 100 100 100 100 100 100 100 100 100 100 100 100 100 100 98 53 88 99 91 98 100 99 100 100 100 100 100 100 100 100
100 100 98 100 100 100 100 100 100 100 100 100 100 100 100 100 100 100 100 100 100 100 100 100 100 100 100 100 100 100 100 74 96 99 47 92 81 97 96 98 100 100 100 100 100 100 100

GFSGBSN_prec_cloud_120.txt.gz
Cloud_Cover
100 100 100 100 100 100 100 100 100 100 97 96 100 100 100 99 96 91 100 100 100 100 84 86 75 99 100 100 100 100 100 100 100 100 100 100 66 57 17 40 17 51 58 69 10 5 5
100 100 100 100 100 100 100 100 100 100 100 100 100 100 100 100 80 100 100 100 100 100 99 98 69 98 100 100 100 100 100 100 100 100 100 91 98 65 91 100 97 75 72 36 5 5 5
100 100 100 100 100 100 100 100 100 100 100 100 100 100 100 100 100 100 100 100 100 100 100 100 50 48 56 100 100 100 100 100 100 100 100 100 100 100 100 100 100 100 99 79 100 13 5
100 100 100 100 100 100 100 100 100 100 100 100 100 100 100 100 100 100 100 100 100 100 100 99 57 33 82 80 100 100 100 100 100 100 100 100 100 100 100 100 98 69 100 43 79 40 5
100 100 100 100 100 100 100 100 100 100 100 100 100 100 100 100 100 100 100 100 100 100 100 100 100 69 5 56 23 100 100 100 100 100 100 100 100 100 100 100 91 100 5 26 90 98 41
100 100 100 100 100 100 100 100 100 100 100 100 100 100 100 100 100 100 100 100 100 100 100 100 100 100 81 75 97 100 100 100 100 100 100 100 100 100 100 100 34 5 15 71 38 87 9
84 95 53 100 100 100 96 77 100 100 100 100 100 100 100 100 100 100 100 100 100 100 100 100 100 100 100 100 100 100 100 100 100 100 100 100 100 100 100 100 74 82 69 5 5 5 88
7 100 98 91 100 93 48 57 81 98 65 62 82 100 100 100 100 100 100 86 100 100 93 100 100 100 100 100 94 100 73 55 19 32 30 5 8 86 66 100 100 100 100 82 5 1 1
100 6 40 91 17 54 71 14 74 70 75 96 100 100 100 100 100 100 99 100 100 66 6 52 100 100 100 99 90 38 6 4 17 6 15 5 30 98 100 100 100 100 100 47 5 5 0
100 100 100 98 25 82 70 14 95 100 100 100 100 99 100 100 100 100 84 21 41 6 1 4 65 99 100 100 100 100 100 60 5 11 44 5 7 15 7 16 74 27 24 2 3 0 0
100 100 75 100 100 81 66 99 13 56 57 100 100 100 100 100 32 92 99 100 94 91 78 0 3 5 5 8 37 80 100 94 68 8 10 23 7 6 5 5 6 2 2 3 5 2 3
100 100 100 84 97 100 100 100 100 100 100 100 100 100 100 100 100 100 95 100 100 100 17 19 0 4 5 18 13 5 100 100 99 90 51 16 88 90 95 20 5 5 12 5 20 50 57
100 100 97 98 100 100 98 44 100 100 100 100 100 100 100 100 100 100 100 100 100 84 15 96 5 5 5 2 5 5 5 10 9 13 31 8 1 0 3 3 5 5 31 83 53 99 58
94 100 100 99 84 100 100 100 100 100 100 100 100 100 100 100 100 100 100 100 100 100 100 100 99 27 100 70 25 64 100 86 41 63 25 31 7 57 35 9 5 30 100 100 98 65 99
5 80 52 90 87 98 100 94 100 100 100 95 100 100 100 100 100 100 100 100 100 100 100 100 100 71 88 88 42 63 87 100 100 76 5 36 6 40 5 24 8 90 100 100 100 100 23
55 60 36 82 67 18 5 38 5 5 39 100 100 100 100 100 100 100 100 100 100 100 100 100 100 100 100 99 59 96 99 87 76 60 9 45 5 5 8 30 14 100 95 12 60 43 98
90 42 62 68 35 49 14 57 5 1 7 58 100 100 100 100 100 100 100 69 59 98 86 92 100 100 68 90 100 83 58 47 16 6 5 5 5 0 0 2 5 95 91 32 52 78 100
6 7 32 93 22 100 99 100 2 3 83 100 100 100 100 100 100 100 100 24 42 48 93 50 25 31 24 68 54 51 91 100 3 4 0 78 8 2 5 43 59 58 55 61 100 100 100
5 5 3 5 5 78 81 44 40 3 94 100 100 100 100 100 100 100 100 100 100 100 100 5 3 14 8 5 30 29 6 16 5 2 11 3 4 4 5 48 53 92 88 100 90 99 65
13 5 4 4 5 5 53 5 77 3 100 100 100 100 100 100 100 59 100 91 100 79 99 81 38 50 9 5 5 5 98 35 7 5 5 5 7 14 52 84 100 100 100 98 58 8 7
25 17 15 5 5 5 4 5 90 3 90 100 100 98 16 97 100 100 99 65 50 100 100 100 33 86 7 5 41 75 52 64 53 100 5 5 53 22 99 94 92 97 37 75 59 46 82
5 14 5 5 5 4 1 95 100 5 33 100 100 50 18 4 49 81 99 74 100 100 100 21 6 7 99 5 53 100 100 99 100 7 46 43 100 100 100 97 8 5 3 5 5 22 77
64 100 45 94 32 4 5 14 81 67 83 100 98 30 37 9 95 78 23 22 66 100 99 43 43 84 76 9 89 100 100 97 56 45 99 100 100 100 95 60 82 44 5 34 53 100 100
64 99 94 100 100 5 6 100 100 100 40 100 23 61 67 7 76 38 14 100 100 92 90 17 94 42 5 94 100 100 100 90 98 100 100 100 100 95 74 77 94 16 24 100 100 100 94
100 67 47 98 100 5 0 53 100 100 99 98 100 100 6 29 72 94 7 10 99 100 100 85 5 96 72 100 100 100 100 100 100 100 100 100 100 97 98 98 62 77 99 100 100 100 100
100 100 100 100 7 96 5 5 100 19 99 37 100 6 94 6 57 5 23 100 88 35 88 56 69 100 100 100 100 100 100 100 100 100 100 100 67 100 96 100 100 100 100 100 100 100 100
100 100 100 100 80 69 58 5 100 5 40 38 100 55 83 100 92 9 72 46 65 83 52 94 100 100 100 100 100 100 100 100 100 100 100 100 99 90 100 100 80 94 100 100 100 100 100
100 100 100 100 100 87 13 5 35 24 48 98 100 76 99 17 74 100 100 100 92 53 94 100 100 100 100 100 100 100 100 100 100 100 100 100 90 86 95 100 98 100 100 76 100 100 100
100 100 100 100 100 86 5 11 40 5 98 100 100 100 100 98 10 100 68 62 100 100 100 100 100 100 100 100 100 100 100 100 100 100 100 99 99 92 100 98 78 100 100 100 100 91 100

GFSGBSN_prec_cloud_123.txt.gz
Cloud_Cover
100 100 100 100 100 100 100 100 100 100 100 100 99 100 100 100 100 100 98 64 99 100 100 100 100 97 98 96 99 91 70 98 56 100 100 100 100 100 80 99 100 100 100 100 100 100 100
100 100 100 100 100 100 100 100 100 100 100 100 100 100 100 98 100 100 100 88 54 100 100 83 95 99 84 99 100 100 34 87 100 100 100 100 100 100 100 100 98 100 100 100 100 100 59
100 100 100 100 100 100 100 100 100 100 100 100 100 100 100 100 100 100 100 100 98 92 100 100 27 66 91 45 34 96 22 48 84 100 100 100 100 100 100 100 100 100 100 100 100 100 100
100 100 100 100 100 100 100 100 100 100 100 100 100 100 100 100 100 100 100 100 100 99 28 16 61 100 100 25 40 100 98 47 6 68 100 100 100 100 100 100 100 100 100 100 100 100 100
97 100 100 100 75 100 100 100 100 100 100 100 100 100 100 100 100 100 100 100 100 76 100 84 30 100 100 96 88 100 100 46 31 13 62 100 100 100 100 100 100 100 100 100 100 100 100
100 75 32 44 92 81 100 100 100 100 100 100 100 100 100 100 100 100 100 100 100 98 93 98 44 100 61 93 94 100 100 100 100 100 100 100 100 100 100 100 100 100 100 100 100 100 100
5 48 37 58 5 5 5 98 100 100 100 100 100 100 100 100 100 100 100 100 100 100 100 100 100 82 100 57 10 100 100 100 100 100 100 100 100 100 100 100 100 100 100 100 100 98 100
100 79 10 38 74 76 35 97 73 100 100 100 100 100 100 100 100 100 100 100 100 100 100 100 100 100 100 5 6 23 100 100 100 100 100 99 39 94 89 8 3 4 4 5 5 43 93
100 100 99 74 100 69 88 89 100 70 92 100 100 100 100 100 100 100 100 100 100 100 99 100 99 100 100 88 97 13 8 48 71 94 100 97 77 79 46 32 5 5 6 25 3 4 5
100 100 100 99 100 100 100 63 79 83 100 66 54 100 100 100 100 100 100 99 85 17 2 18 91 16 86 99 88 12 8 5 0 5 89 92 100 100 96 20 10 5 5 0 1 5 5
100 100 100 100 100 100 80 100 100 91 20 13 98 100 100 99 99 100 100 100 93 37 39 0 3 98 89 30 8 20 6 0 5 5 3 8 49 1 0 4 5 0 1 4 0 0 0
100 100 100 100 100 100 99 80 97 84 100 100 100 100 100 100 100 70 96 92 99 100 25 1 0 0 77 14 5 1 15 5 8 5 3 5 1 5 5 5 3 2 4 5 5 3 0
100 100 100 100 100 100 100 100 93 66 100 100 100 100 100 100 100 100 100 100 100 90 9 6 3 3 4 31 3 1 5 5 5 7 30 5 7 30 5 3 4 5 5 3 2 5 2
100 100 100 100 100 100 100 100 100 100 99 97 100 100 100 100 100 100 100 100 98 31 100 100 82 11 24 100 100 86 27 5 53 45 5 5 8 43 5 5 9 46 71 65 76 3 5
100 100 100 100 93 74 100 100 100 100 100 100 100 100 100 100 100 100 100 100 6 22 98 100 100 100 100 100 89 74 100 89 100 92 5 5 5 3 0 0 1 5 5 97 100 20 29
100 100 100 100 100 100 100 100 100 100 100 100 100 100 100 100 100 100 100 100 100 100 100 100 100 99 81 100 100 60 2 8 39 62 5 14 3 0 0 3 28 5 5 4 84 48 51
100 100 100 100 92 80 97 100 98 100 100 100 100 100 100 100 100 100 100 100 100 98 100 100 100 100 100 87 98 57 16 10 0 2 4 5 0 0 5 5 24 72 5 47 64 54 29
100 100 100 100 100 99 47 22 96 100 100 100 100 100 100 100 100 100 100 100 96 100 96 70 38 95 67 100 100 100 61 100 5 5 5 1 0 0 0 0 1 5 10 70 100 7 99
42 62 95 100 100 100 95 85 26 12 5 90 100 100 100 100 100 86 22 62 85 99 37 96 30 5 13 73 84 26 100 12 5 2 3 5 14 4 0 0 1 3 5 13 99 99 100
100 100 100 62 5 61 58 86 100 99 7 96 100 100 100 100 100 42 12 18 60 66 100 99 52 100 100 99 100 24 7 5 5 5 5 5 5 5 3 5 3 1 29 18 75 100 66
100 100 80 82 84 52 65 9 55 100 35 96 94 100 29 99 100 100 58 26 94 23 19 100 100 100 100 100 100 60 5 4 2 22 60 70 5 5 5 5 5 5 87 98 100 71 99
100 78 49 99 5 5 5 98 100 100 88 100 95 86 5 5 13 100 100 99 8 5 5 5 61 100 100 100 100 10 77 5 5 5 44 15 44 61 98 6 84 100 100 18 5 2 2
1 24 90 46 98 34 28 5 100 100 100 100 100 52 4 1 34 94 60 5 12 79 78 23 16 67 14 24 98 28 14 5 6 12 100 83 100 36 100 37 100 100 25 5 5 5 39
4 25 5 96 100 60 49 5 5 85 100 100 90 100 51 40 10 38 12 5 5 3 18 79 100 100 100 91 6 79 42 76 80 100 100 100 98 76 100 41 99 63 5 5 5 98 94
91 100 83 5 66 100 100 38 24 5 12 93 100 84 40 39 5 28 5 5 5 26 90 12 100 84 5 9 99 81 99 70 100 93 100 100 100 100 100 79 89 41 5 14 96 100 100
100 100 100 100 9 48 100 100 100 5 79 20 100 98 16 6 17 33 5 3 5 5 25 90 100 100 22 94 96 86 100 100 93 100 100 100 100 100 100 100 62 31 84 98 100 100 100
100 100 100 100 100 87 100 100 100 22 80 83 99 100 68 79 4 54 23 3 5 33 36 34 82 92 100 79 86 100 100 100 100 100 100 100 100 100 100 100 78 24 25 76 100 100 100
100 100 100 100 100 100 96 100 100 18 79 75 100 100 100 66 4 0 8 4 21 64 20 37 63 92 88 100 100 100 100 100 100 100 100 100 100 100 100 100 73 56 5 63 100 100 100
100 100 100 100 100 99 82 100 94 5 78 92 100 100 100 100 27 66 98 98 61 7 5 8 84 63 100 100 100 100 100 100 100 100 100 100 100 100 100 45 57 53 57 86 100 100 100

GFSGBSN_prec_cloud_129.txt.gz
Cloud_Cover
100 100 100 100 100 100 100 100 100 100 100 100 100 100 100 100 100 93 99 27 34 86 100 26 68 70 38 39 100 69 100 100 88 51 28 8 26 58 29 5 15 40 6 8 98 11 53
100 100 100 100 100 100 100 100 100 100 100 100 100 100 100 100 100 100 100 95 41 78 100 5 26 97 91 42 30 100 95 100 94 44 72 47 6 23 76 5 29 12 10 5 5 5 58
100 100 100 94 100 100 100 100 100 100 94 99 93 100 100 100 90 100 99 92 100 98 94 42 5 53 67 7 38 66 100 98 73 97 51 20 33 95 17 32 100 63 5 5 5 5 5
100 100 100 100 100 100 100 100 100 100 100 100 100 100 100 100 100 100 100 100 100 100 43 72 42 87 18 28 97 100 100 93 98 100 100 100 52 10 6 35 5 54 20 96 100 90 100
100 100 100 100 100 100 100 100 100 100 100 100 100 100 100 100 100 100 100 100 100 100 100 50 89 55 89 5 98 90 49 77 98 100 100 83 78 100 51 5 48 52 8 48 100 100 100
100 100 96 100 100 100 100 100 100 100 100 100 100 100 100 100 100 100 100 100 100 100 100 97 100 72 40 52 8 74 68 67 87 64 64 5 5 60 63 26 100 89 94 71 86 89 17
100 99 74 98 100 100 100 100 100 98 99 100 100 79 99 100 100 100 100 100 100 100 98 100 73 100 100 70 11 100 80 41 100 100 100 100 100 100 75 67 5 6 5 36 29 23 49
100 100 100 100 100 100 100 80 69 83 54 75 97 100 100 100 100 100 100 100 86 80 67 97 100 100 100 99 96 100 100 100 100 100 100 66 96 100 97 54 83 60 12 14 7 4 0
97 100 100 100 100 100 100 100 98 100 100 68 86 70 94 100 100 100 100 100 19 93 59 100 94 10 92 27 58 100 100 100 100 100 100 100 100 100 100 90 8 1 2 4 2 4 8
100 100 100 100 100 100 100 100 100 100 100 100 95 51 100 100 100 100 100 46 50 5 5 44 96 5 14 76 10 100 100 100 100 100 100 99 76 16 4 1 1 0 0 0 0 0 1
100 100 100 100 100 100 100 100 100 100 100 100 41 99 99 100 100 100 66 20 39 37 4 5 51 79 93 90 5 35 67 72 96 46 5 5 5 5 5 5 5 5 5 5 4 0 0
100 100 100 100 100 100 100 100 100 100 100 99 87 100 100 100 100 82 59 99 97 16 30 4 31 20 54 100 100 88 100 20 59 34 94 78 5 11 7 5 11 5 1 3 0 0 0
100 100 100 100 100 100 100 100 100 100 100 100 100 100 100 83 99 92 82 100 94 90 70 69 13 5 30 100 100 100 100 100 100 100 100 100 100 100 100 100 56 5 5 1 0 0 0
100 100 100 100 100 100 100 100 100 100 100 100 100 100 100 100 100 100 100 100 92 98 100 98 90 67 95 96 65 100 100 100 100 100 100 100 100 100 98 30 71 6 4 1 1 0 0
91 100 100 100 100 100 100 100 100 100 100 100 100 100 100 100 100 100 100 100 45 100 100 100 100 100 96 100 100 92 97 38 100 100 88 34 19 72 30 5 2 3 4 2 48 5 4
87 99 95 100 100 100 100 100 100 100 100 100 100 100 100 100 100 100 100 100 100 100 100 100 100 100 100 100 99 70 78 72 100 100 80 19 49 67 14 24 20 5 1 6 54 81 55
100 81 45 66 100 100 100 100 100 100 100 100 100 100 100 100 100 100 100 100 100 100 100 100 100 100 100 100 100 95 80 66 100 96 74 90 80 25 59 77 52 87 90 64 95 41 82
100 100 100 65 90 100 100 100 100 100 100 100 100 100 100 100 100 100 100 100 100 100 100 100 100 100 100 100 100 100 100 100 82 100 100 100 97 94 100 86 8 8 5 5 100 11 6
82 99 100 100 94 100 100 100 100 100 100 100 100 100 100 100 100 100 100 100 100 100 100 100 100 100 100 100 100 100 95 46 97 100 100 99 38 95 81 24 5 5 5 14 100 74 1
5 72 100 100 100 100 100 100 100 100 100 100 100 100 100 100 100 100 100 100 100 100 100 100 100 100 100 100 100 84 79 61 58 100 100 98 29 5 3 5 19 26 7 99 97 55 3
19 98 100 100 100 100 100 100 100 100 100 100 100 84 89 100 100 100 100 100 100 100 100 99 65 89 100 100 94 87 98 97 99 99 88 100 88 4 4 5 10 0 4 8 16 4 4
44 6 100 100 99 100 100 100 100 100 100 100 100 97 53 72 15 85 100 45 99 100 100 94 93 100 100 15 80 96 94 40 100 87 88 100 83 11 5 5 5 1 5 91 5 12 38
100 45 100 100 100 100 100 100 100 100 100 100 100 58 72 24 49 92 25 40 100 80 92 54 48 100 98 52 47 96 100 100 100 100 100 100 100 99 5 5 5 5 100 6 58 100 66
49 100 100 100 100 100 100 100 100 100 100 100 100 100 100 100 84 61 99 91 81 95 82 20 4 4 5 4 52 5 97 100 99 99 100 100 100 96 47 5 52 93 100 44 84 100 74
100 100 100 100 100 100 100 100 100 100 100 100 100 100 100 100 100 100 100 100 100 100 100 93 78 5 36 26 100 97 100 95 70 97 100 98 10 100 92 86 6 100 100 96 50 97 20
9 97 100 100 100 100 100 100 100 100 100 100 100 100 100 100 100 100 100 100 100 100 100 98 57 7 32 100 100 64 48 46 53 5 16 100 49 70 75 96 58 100 100 53 83 75 7
5 79 100 100 100 100 100 100 100 100 100 100 100 100 100 100 100 100 100 100 100 100 100 100 100 92 48 93 100 100 98 74 17 5 95 22 37 73 97 85 100 100 26 33 48 25 5
5 5 44 100 100 100 100 100 100 100 100 96 98 100 100 100 100 100 100 100 100 100 100 100 100 68 100 100 100 88 47 65 40 100 94 82 98 100 100 100 100 100 5 69 14 5 5
100 17 5 11 99 100 100 100 100 100 100 100 100 100 100 94 100 100 100 100 100 100 100 100 100 77 63 80 85 97 58 65 100 29 33 100 100 100 100 100 100 100 96 29 5 35 6